<?xml version="1.0" encoding="UTF-8" standalone="no" ?>
<gpx xmlns="http://www.topografix.com/GPX/1/1" xmlns:xsi="http://www.w3.org/2001/XMLSchema-instance" xsi:schemaLocation="http://www.topografix.com/GPX/1/1 http://www.topografix.com/GPX/1/1/gpx.xsd" version="1.1" creator="VisuGPX - https://www.visugpx.com">
  <metadata>
    <name>04 - D+ Castellane </name>
    <desc><![CDATA[04 - D+ Castellane Destourbes Eoulx castellane 
27 06 2021]]></desc>
  </metadata>
  <trk>
    <name><![CDATA[Castellane Destourbes Eoulx castellane 27 06 2021]]></name>
    <extensions>
      <line xmlns="http://www.topografix.com/GPX/gpx_style/0/2">
        <width>4</width>
      </line>
    </extensions>
    <trkseg>
      <trkpt lat="43.84502" lon="6.51432">
        <ele>557.1</ele>
        <time>2021-06-27T07:59:00.000Z</time>
      </trkpt>
      <trkpt lat="43.84504" lon="6.51434">
        <ele>557</ele>
        <time>2021-06-27T07:59:04.000Z</time>
      </trkpt>
      <trkpt lat="43.84495" lon="6.51431">
        <ele>562.4</ele>
        <time>2021-06-27T08:00:28.000Z</time>
      </trkpt>
      <trkpt lat="43.84486" lon="6.51429">
        <ele>563.9</ele>
        <time>2021-06-27T08:03:29.000Z</time>
      </trkpt>
      <trkpt lat="43.84489" lon="6.51441">
        <ele>564.6</ele>
        <time>2021-06-27T08:03:43.000Z</time>
      </trkpt>
      <trkpt lat="43.84491" lon="6.51453">
        <ele>564.5</ele>
        <time>2021-06-27T08:03:53.000Z</time>
      </trkpt>
      <trkpt lat="43.84495" lon="6.51466">
        <ele>564.9</ele>
        <time>2021-06-27T08:04:17.000Z</time>
      </trkpt>
      <trkpt lat="43.84495" lon="6.51478">
        <ele>564.6</ele>
        <time>2021-06-27T08:04:26.000Z</time>
      </trkpt>
      <trkpt lat="43.84498" lon="6.5149">
        <ele>565.3</ele>
        <time>2021-06-27T08:04:35.000Z</time>
      </trkpt>
      <trkpt lat="43.84506" lon="6.51499">
        <ele>565.4</ele>
        <time>2021-06-27T08:04:43.000Z</time>
      </trkpt>
      <trkpt lat="43.84508" lon="6.51511">
        <ele>565.4</ele>
        <time>2021-06-27T08:04:51.000Z</time>
      </trkpt>
      <trkpt lat="43.84514" lon="6.51522">
        <ele>565.6</ele>
        <time>2021-06-27T08:05:02.000Z</time>
      </trkpt>
      <trkpt lat="43.84515" lon="6.51536">
        <ele>566</ele>
        <time>2021-06-27T08:05:11.000Z</time>
      </trkpt>
      <trkpt lat="43.84515" lon="6.51548">
        <ele>566.6</ele>
        <time>2021-06-27T08:05:18.000Z</time>
      </trkpt>
      <trkpt lat="43.84515" lon="6.51561">
        <ele>567.3</ele>
        <time>2021-06-27T08:05:26.000Z</time>
      </trkpt>
      <trkpt lat="43.84515" lon="6.51575">
        <ele>567.8</ele>
        <time>2021-06-27T08:05:34.000Z</time>
      </trkpt>
      <trkpt lat="43.84516" lon="6.51589">
        <ele>568.4</ele>
        <time>2021-06-27T08:05:42.000Z</time>
      </trkpt>
      <trkpt lat="43.84518" lon="6.51603">
        <ele>568.9</ele>
        <time>2021-06-27T08:05:50.000Z</time>
      </trkpt>
      <trkpt lat="43.84517" lon="6.51616">
        <ele>569.3</ele>
        <time>2021-06-27T08:05:59.000Z</time>
      </trkpt>
      <trkpt lat="43.84518" lon="6.51629">
        <ele>569.5</ele>
        <time>2021-06-27T08:06:06.000Z</time>
      </trkpt>
      <trkpt lat="43.8452" lon="6.51642">
        <ele>569.8</ele>
        <time>2021-06-27T08:06:15.000Z</time>
      </trkpt>
      <trkpt lat="43.84528" lon="6.51649">
        <ele>569.9</ele>
        <time>2021-06-27T08:06:28.000Z</time>
      </trkpt>
      <trkpt lat="43.84537" lon="6.51651">
        <ele>569.7</ele>
        <time>2021-06-27T08:06:39.000Z</time>
      </trkpt>
      <trkpt lat="43.84546" lon="6.51652">
        <ele>569.5</ele>
        <time>2021-06-27T08:06:52.000Z</time>
      </trkpt>
      <trkpt lat="43.84538" lon="6.51648">
        <ele>571</ele>
        <time>2021-06-27T08:09:09.000Z</time>
      </trkpt>
      <trkpt lat="43.84546" lon="6.51654">
        <ele>571.1</ele>
        <time>2021-06-27T08:09:35.000Z</time>
      </trkpt>
      <trkpt lat="43.84536" lon="6.51656">
        <ele>571.4</ele>
        <time>2021-06-27T08:11:01.000Z</time>
      </trkpt>
      <trkpt lat="43.84527" lon="6.51655">
        <ele>571.4</ele>
        <time>2021-06-27T08:11:14.000Z</time>
      </trkpt>
      <trkpt lat="43.84518" lon="6.51656">
        <ele>571</ele>
        <time>2021-06-27T08:13:26.000Z</time>
      </trkpt>
      <trkpt lat="43.84512" lon="6.51645">
        <ele>571.1</ele>
        <time>2021-06-27T08:13:39.000Z</time>
      </trkpt>
      <trkpt lat="43.8451" lon="6.51632">
        <ele>571.2</ele>
        <time>2021-06-27T08:13:46.000Z</time>
      </trkpt>
      <trkpt lat="43.84515" lon="6.51644">
        <ele>571.5</ele>
        <time>2021-06-27T08:14:24.000Z</time>
      </trkpt>
      <trkpt lat="43.84514" lon="6.51656">
        <ele>571.4</ele>
        <time>2021-06-27T08:14:34.000Z</time>
      </trkpt>
      <trkpt lat="43.84516" lon="6.51669">
        <ele>571.2</ele>
        <time>2021-06-27T08:14:42.000Z</time>
      </trkpt>
      <trkpt lat="43.84513" lon="6.51683">
        <ele>571.1</ele>
        <time>2021-06-27T08:14:51.000Z</time>
      </trkpt>
      <trkpt lat="43.8451" lon="6.51696">
        <ele>571.1</ele>
        <time>2021-06-27T08:15:00.000Z</time>
      </trkpt>
      <trkpt lat="43.84511" lon="6.51709">
        <ele>571.1</ele>
        <time>2021-06-27T08:15:08.000Z</time>
      </trkpt>
      <trkpt lat="43.8451" lon="6.51723">
        <ele>571</ele>
        <time>2021-06-27T08:15:16.000Z</time>
      </trkpt>
      <trkpt lat="43.84509" lon="6.51735">
        <ele>571</ele>
        <time>2021-06-27T08:15:24.000Z</time>
      </trkpt>
      <trkpt lat="43.84502" lon="6.51745">
        <ele>571.1</ele>
        <time>2021-06-27T08:15:32.000Z</time>
      </trkpt>
      <trkpt lat="43.84498" lon="6.51757">
        <ele>571</ele>
        <time>2021-06-27T08:15:39.000Z</time>
      </trkpt>
      <trkpt lat="43.84494" lon="6.51769">
        <ele>570.9</ele>
        <time>2021-06-27T08:15:47.000Z</time>
      </trkpt>
      <trkpt lat="43.8449" lon="6.51781">
        <ele>570.9</ele>
        <time>2021-06-27T08:15:57.000Z</time>
      </trkpt>
      <trkpt lat="43.84485" lon="6.51792">
        <ele>570.9</ele>
        <time>2021-06-27T08:16:10.000Z</time>
      </trkpt>
      <trkpt lat="43.84485" lon="6.51778">
        <ele>571.8</ele>
        <time>2021-06-27T08:16:25.000Z</time>
      </trkpt>
      <trkpt lat="43.8449" lon="6.51768">
        <ele>573.1</ele>
        <time>2021-06-27T08:16:35.000Z</time>
      </trkpt>
      <trkpt lat="43.84496" lon="6.51758">
        <ele>574.3</ele>
        <time>2021-06-27T08:16:45.000Z</time>
      </trkpt>
      <trkpt lat="43.845" lon="6.51746">
        <ele>575.6</ele>
        <time>2021-06-27T08:16:55.000Z</time>
      </trkpt>
      <trkpt lat="43.84499" lon="6.51733">
        <ele>577.1</ele>
        <time>2021-06-27T08:17:06.000Z</time>
      </trkpt>
      <trkpt lat="43.845" lon="6.51721">
        <ele>579.2</ele>
        <time>2021-06-27T08:17:19.000Z</time>
      </trkpt>
      <trkpt lat="43.84499" lon="6.51708">
        <ele>580.5</ele>
        <time>2021-06-27T08:17:29.000Z</time>
      </trkpt>
      <trkpt lat="43.84497" lon="6.51695">
        <ele>581.7</ele>
        <time>2021-06-27T08:17:39.000Z</time>
      </trkpt>
      <trkpt lat="43.84488" lon="6.51694">
        <ele>584.9</ele>
        <time>2021-06-27T08:18:02.000Z</time>
      </trkpt>
      <trkpt lat="43.84483" lon="6.51705">
        <ele>587.1</ele>
        <time>2021-06-27T08:18:16.000Z</time>
      </trkpt>
      <trkpt lat="43.8448" lon="6.51718">
        <ele>589</ele>
        <time>2021-06-27T08:18:29.000Z</time>
      </trkpt>
      <trkpt lat="43.84479" lon="6.51731">
        <ele>590.8</ele>
        <time>2021-06-27T08:18:41.000Z</time>
      </trkpt>
      <trkpt lat="43.84478" lon="6.51744">
        <ele>592.8</ele>
        <time>2021-06-27T08:18:53.000Z</time>
      </trkpt>
      <trkpt lat="43.8447" lon="6.51751">
        <ele>594.7</ele>
        <time>2021-06-27T08:19:03.000Z</time>
      </trkpt>
      <trkpt lat="43.84463" lon="6.51761">
        <ele>596.4</ele>
        <time>2021-06-27T08:19:15.000Z</time>
      </trkpt>
      <trkpt lat="43.84456" lon="6.51771">
        <ele>597.6</ele>
        <time>2021-06-27T08:19:25.000Z</time>
      </trkpt>
      <trkpt lat="43.84449" lon="6.5178">
        <ele>598.6</ele>
        <time>2021-06-27T08:19:35.000Z</time>
      </trkpt>
      <trkpt lat="43.84444" lon="6.5179">
        <ele>600</ele>
        <time>2021-06-27T08:19:46.000Z</time>
      </trkpt>
      <trkpt lat="43.84441" lon="6.51802">
        <ele>601.2</ele>
        <time>2021-06-27T08:19:56.000Z</time>
      </trkpt>
      <trkpt lat="43.84435" lon="6.51813">
        <ele>602.5</ele>
        <time>2021-06-27T08:20:06.000Z</time>
      </trkpt>
      <trkpt lat="43.84427" lon="6.51806">
        <ele>605.9</ele>
        <time>2021-06-27T08:20:32.000Z</time>
      </trkpt>
      <trkpt lat="43.84431" lon="6.51794">
        <ele>607</ele>
        <time>2021-06-27T08:20:42.000Z</time>
      </trkpt>
      <trkpt lat="43.84432" lon="6.5178">
        <ele>608.1</ele>
        <time>2021-06-27T08:20:52.000Z</time>
      </trkpt>
      <trkpt lat="43.84435" lon="6.51768">
        <ele>609.3</ele>
        <time>2021-06-27T08:21:02.000Z</time>
      </trkpt>
      <trkpt lat="43.84435" lon="6.51755">
        <ele>610.5</ele>
        <time>2021-06-27T08:21:13.000Z</time>
      </trkpt>
      <trkpt lat="43.84435" lon="6.51741">
        <ele>611.6</ele>
        <time>2021-06-27T08:21:23.000Z</time>
      </trkpt>
      <trkpt lat="43.84434" lon="6.51729">
        <ele>612.6</ele>
        <time>2021-06-27T08:21:32.000Z</time>
      </trkpt>
      <trkpt lat="43.84434" lon="6.51716">
        <ele>613.4</ele>
        <time>2021-06-27T08:21:40.000Z</time>
      </trkpt>
      <trkpt lat="43.84436" lon="6.51703">
        <ele>614.4</ele>
        <time>2021-06-27T08:21:51.000Z</time>
      </trkpt>
      <trkpt lat="43.8443" lon="6.51713">
        <ele>616.3</ele>
        <time>2021-06-27T08:22:05.000Z</time>
      </trkpt>
      <trkpt lat="43.84426" lon="6.51725">
        <ele>617.8</ele>
        <time>2021-06-27T08:22:17.000Z</time>
      </trkpt>
      <trkpt lat="43.84423" lon="6.51737">
        <ele>619.3</ele>
        <time>2021-06-27T08:22:30.000Z</time>
      </trkpt>
      <trkpt lat="43.8442" lon="6.5175">
        <ele>620.4</ele>
        <time>2021-06-27T08:22:40.000Z</time>
      </trkpt>
      <trkpt lat="43.84416" lon="6.51762">
        <ele>621.6</ele>
        <time>2021-06-27T08:22:50.000Z</time>
      </trkpt>
      <trkpt lat="43.84412" lon="6.51773">
        <ele>622.8</ele>
        <time>2021-06-27T08:23:01.000Z</time>
      </trkpt>
      <trkpt lat="43.84406" lon="6.51784">
        <ele>623.9</ele>
        <time>2021-06-27T08:23:10.000Z</time>
      </trkpt>
      <trkpt lat="43.84401" lon="6.51795">
        <ele>624.8</ele>
        <time>2021-06-27T08:23:18.000Z</time>
      </trkpt>
      <trkpt lat="43.844" lon="6.51807">
        <ele>626</ele>
        <time>2021-06-27T08:23:27.000Z</time>
      </trkpt>
      <trkpt lat="43.84394" lon="6.51817">
        <ele>626.9</ele>
        <time>2021-06-27T08:23:35.000Z</time>
      </trkpt>
      <trkpt lat="43.84387" lon="6.51826">
        <ele>627.8</ele>
        <time>2021-06-27T08:23:42.000Z</time>
      </trkpt>
      <trkpt lat="43.84381" lon="6.51836">
        <ele>628.9</ele>
        <time>2021-06-27T08:23:50.000Z</time>
      </trkpt>
      <trkpt lat="43.84376" lon="6.51848">
        <ele>630.2</ele>
        <time>2021-06-27T08:23:58.000Z</time>
      </trkpt>
      <trkpt lat="43.84373" lon="6.51861">
        <ele>631.8</ele>
        <time>2021-06-27T08:24:08.000Z</time>
      </trkpt>
      <trkpt lat="43.84369" lon="6.51874">
        <ele>632.8</ele>
        <time>2021-06-27T08:24:18.000Z</time>
      </trkpt>
      <trkpt lat="43.84366" lon="6.51886">
        <ele>633.6</ele>
        <time>2021-06-27T08:24:25.000Z</time>
      </trkpt>
      <trkpt lat="43.84363" lon="6.51899">
        <ele>634.7</ele>
        <time>2021-06-27T08:24:34.000Z</time>
      </trkpt>
      <trkpt lat="43.8436" lon="6.51912">
        <ele>636.3</ele>
        <time>2021-06-27T08:24:45.000Z</time>
      </trkpt>
      <trkpt lat="43.84356" lon="6.51923">
        <ele>638.2</ele>
        <time>2021-06-27T08:24:56.000Z</time>
      </trkpt>
      <trkpt lat="43.84358" lon="6.51935">
        <ele>639.8</ele>
        <time>2021-06-27T08:25:08.000Z</time>
      </trkpt>
      <trkpt lat="43.84359" lon="6.51948">
        <ele>641.2</ele>
        <time>2021-06-27T08:25:19.000Z</time>
      </trkpt>
      <trkpt lat="43.8436" lon="6.51961">
        <ele>642.3</ele>
        <time>2021-06-27T08:25:28.000Z</time>
      </trkpt>
      <trkpt lat="43.84361" lon="6.51975">
        <ele>643.4</ele>
        <time>2021-06-27T08:25:37.000Z</time>
      </trkpt>
      <trkpt lat="43.84364" lon="6.51987">
        <ele>644.6</ele>
        <time>2021-06-27T08:25:46.000Z</time>
      </trkpt>
      <trkpt lat="43.84358" lon="6.51997">
        <ele>646.4</ele>
        <time>2021-06-27T08:26:01.000Z</time>
      </trkpt>
      <trkpt lat="43.8435" lon="6.52003">
        <ele>648.9</ele>
        <time>2021-06-27T08:26:16.000Z</time>
      </trkpt>
      <trkpt lat="43.84341" lon="6.52007">
        <ele>650.5</ele>
        <time>2021-06-27T08:26:26.000Z</time>
      </trkpt>
      <trkpt lat="43.84334" lon="6.52015">
        <ele>651.7</ele>
        <time>2021-06-27T08:26:37.000Z</time>
      </trkpt>
      <trkpt lat="43.84325" lon="6.5202">
        <ele>652.7</ele>
        <time>2021-06-27T08:26:45.000Z</time>
      </trkpt>
      <trkpt lat="43.84316" lon="6.52023">
        <ele>654.3</ele>
        <time>2021-06-27T08:26:57.000Z</time>
      </trkpt>
      <trkpt lat="43.84308" lon="6.52029">
        <ele>655.8</ele>
        <time>2021-06-27T08:27:08.000Z</time>
      </trkpt>
      <trkpt lat="43.843" lon="6.52037">
        <ele>657.2</ele>
        <time>2021-06-27T08:27:17.000Z</time>
      </trkpt>
      <trkpt lat="43.84292" lon="6.52043">
        <ele>659.2</ele>
        <time>2021-06-27T08:27:28.000Z</time>
      </trkpt>
      <trkpt lat="43.84283" lon="6.52049">
        <ele>661.1</ele>
        <time>2021-06-27T08:27:39.000Z</time>
      </trkpt>
      <trkpt lat="43.84287" lon="6.52038">
        <ele>663.8</ele>
        <time>2021-06-27T08:27:57.000Z</time>
      </trkpt>
      <trkpt lat="43.8429" lon="6.52026">
        <ele>665.2</ele>
        <time>2021-06-27T08:28:07.000Z</time>
      </trkpt>
      <trkpt lat="43.84295" lon="6.52015">
        <ele>667.2</ele>
        <time>2021-06-27T08:28:21.000Z</time>
      </trkpt>
      <trkpt lat="43.84301" lon="6.52004">
        <ele>668.5</ele>
        <time>2021-06-27T08:28:31.000Z</time>
      </trkpt>
      <trkpt lat="43.84292" lon="6.52008">
        <ele>672.5</ele>
        <time>2021-06-27T08:29:04.000Z</time>
      </trkpt>
      <trkpt lat="43.84284" lon="6.52014">
        <ele>673.7</ele>
        <time>2021-06-27T08:29:13.000Z</time>
      </trkpt>
      <trkpt lat="43.84276" lon="6.52022">
        <ele>675.2</ele>
        <time>2021-06-27T08:29:24.000Z</time>
      </trkpt>
      <trkpt lat="43.84269" lon="6.52031">
        <ele>676.3</ele>
        <time>2021-06-27T08:29:33.000Z</time>
      </trkpt>
      <trkpt lat="43.84264" lon="6.52041">
        <ele>678.1</ele>
        <time>2021-06-27T08:29:44.000Z</time>
      </trkpt>
      <trkpt lat="43.84258" lon="6.52052">
        <ele>679.5</ele>
        <time>2021-06-27T08:29:53.000Z</time>
      </trkpt>
      <trkpt lat="43.84252" lon="6.52063">
        <ele>681.2</ele>
        <time>2021-06-27T08:30:02.000Z</time>
      </trkpt>
      <trkpt lat="43.84253" lon="6.52076">
        <ele>683.3</ele>
        <time>2021-06-27T08:30:14.000Z</time>
      </trkpt>
      <trkpt lat="43.84249" lon="6.52088">
        <ele>685.3</ele>
        <time>2021-06-27T08:30:26.000Z</time>
      </trkpt>
      <trkpt lat="43.84243" lon="6.52098">
        <ele>686.6</ele>
        <time>2021-06-27T08:30:37.000Z</time>
      </trkpt>
      <trkpt lat="43.84234" lon="6.52102">
        <ele>687.2</ele>
        <time>2021-06-27T08:30:46.000Z</time>
      </trkpt>
      <trkpt lat="43.84225" lon="6.52104">
        <ele>688</ele>
        <time>2021-06-27T08:30:56.000Z</time>
      </trkpt>
      <trkpt lat="43.84216" lon="6.52106">
        <ele>689.2</ele>
        <time>2021-06-27T08:31:06.000Z</time>
      </trkpt>
      <trkpt lat="43.84206" lon="6.52107">
        <ele>690</ele>
        <time>2021-06-27T08:31:16.000Z</time>
      </trkpt>
      <trkpt lat="43.84197" lon="6.5211">
        <ele>691</ele>
        <time>2021-06-27T08:31:25.000Z</time>
      </trkpt>
      <trkpt lat="43.84188" lon="6.52115">
        <ele>692</ele>
        <time>2021-06-27T08:31:35.000Z</time>
      </trkpt>
      <trkpt lat="43.8418" lon="6.52122">
        <ele>692.9</ele>
        <time>2021-06-27T08:31:44.000Z</time>
      </trkpt>
      <trkpt lat="43.84174" lon="6.52132">
        <ele>694.6</ele>
        <time>2021-06-27T08:31:56.000Z</time>
      </trkpt>
      <trkpt lat="43.84166" lon="6.52141">
        <ele>696</ele>
        <time>2021-06-27T08:32:06.000Z</time>
      </trkpt>
      <trkpt lat="43.84161" lon="6.52152">
        <ele>697.5</ele>
        <time>2021-06-27T08:32:16.000Z</time>
      </trkpt>
      <trkpt lat="43.84155" lon="6.52162">
        <ele>698.6</ele>
        <time>2021-06-27T08:32:26.000Z</time>
      </trkpt>
      <trkpt lat="43.8415" lon="6.52174">
        <ele>699.6</ele>
        <time>2021-06-27T08:32:36.000Z</time>
      </trkpt>
      <trkpt lat="43.84146" lon="6.52185">
        <ele>700.6</ele>
        <time>2021-06-27T08:32:45.000Z</time>
      </trkpt>
      <trkpt lat="43.84141" lon="6.52196">
        <ele>701.8</ele>
        <time>2021-06-27T08:32:55.000Z</time>
      </trkpt>
      <trkpt lat="43.84135" lon="6.52206">
        <ele>702.9</ele>
        <time>2021-06-27T08:33:05.000Z</time>
      </trkpt>
      <trkpt lat="43.84131" lon="6.52218">
        <ele>703.7</ele>
        <time>2021-06-27T08:33:13.000Z</time>
      </trkpt>
      <trkpt lat="43.84125" lon="6.52228">
        <ele>705</ele>
        <time>2021-06-27T08:33:24.000Z</time>
      </trkpt>
      <trkpt lat="43.8412" lon="6.52239">
        <ele>706.7</ele>
        <time>2021-06-27T08:33:34.000Z</time>
      </trkpt>
      <trkpt lat="43.84116" lon="6.5225">
        <ele>708.3</ele>
        <time>2021-06-27T08:33:45.000Z</time>
      </trkpt>
      <trkpt lat="43.8411" lon="6.5226">
        <ele>709.5</ele>
        <time>2021-06-27T08:33:55.000Z</time>
      </trkpt>
      <trkpt lat="43.84104" lon="6.52271">
        <ele>710.8</ele>
        <time>2021-06-27T08:34:07.000Z</time>
      </trkpt>
      <trkpt lat="43.841" lon="6.52282">
        <ele>712.2</ele>
        <time>2021-06-27T08:34:18.000Z</time>
      </trkpt>
      <trkpt lat="43.84094" lon="6.52293">
        <ele>713.3</ele>
        <time>2021-06-27T08:34:27.000Z</time>
      </trkpt>
      <trkpt lat="43.84089" lon="6.52303">
        <ele>715</ele>
        <time>2021-06-27T08:34:40.000Z</time>
      </trkpt>
      <trkpt lat="43.84088" lon="6.52291">
        <ele>717.7</ele>
        <time>2021-06-27T08:35:00.000Z</time>
      </trkpt>
      <trkpt lat="43.84093" lon="6.52279">
        <ele>718.6</ele>
        <time>2021-06-27T08:35:11.000Z</time>
      </trkpt>
      <trkpt lat="43.84096" lon="6.52267">
        <ele>719.2</ele>
        <time>2021-06-27T08:35:21.000Z</time>
      </trkpt>
      <trkpt lat="43.84098" lon="6.52254">
        <ele>720.1</ele>
        <time>2021-06-27T08:35:31.000Z</time>
      </trkpt>
      <trkpt lat="43.841" lon="6.52241">
        <ele>721.1</ele>
        <time>2021-06-27T08:35:40.000Z</time>
      </trkpt>
      <trkpt lat="43.84103" lon="6.52229">
        <ele>722</ele>
        <time>2021-06-27T08:35:49.000Z</time>
      </trkpt>
      <trkpt lat="43.84106" lon="6.52217">
        <ele>723.3</ele>
        <time>2021-06-27T08:36:01.000Z</time>
      </trkpt>
      <trkpt lat="43.84107" lon="6.52204">
        <ele>724.3</ele>
        <time>2021-06-27T08:36:11.000Z</time>
      </trkpt>
      <trkpt lat="43.84108" lon="6.52191">
        <ele>725</ele>
        <time>2021-06-27T08:36:22.000Z</time>
      </trkpt>
      <trkpt lat="43.84109" lon="6.52178">
        <ele>726.3</ele>
        <time>2021-06-27T08:36:34.000Z</time>
      </trkpt>
      <trkpt lat="43.84111" lon="6.52166">
        <ele>727</ele>
        <time>2021-06-27T08:36:42.000Z</time>
      </trkpt>
      <trkpt lat="43.84112" lon="6.52152">
        <ele>727.7</ele>
        <time>2021-06-27T08:36:50.000Z</time>
      </trkpt>
      <trkpt lat="43.84115" lon="6.5214">
        <ele>728.4</ele>
        <time>2021-06-27T08:36:58.000Z</time>
      </trkpt>
      <trkpt lat="43.84118" lon="6.52128">
        <ele>729.5</ele>
        <time>2021-06-27T08:37:07.000Z</time>
      </trkpt>
      <trkpt lat="43.84122" lon="6.52116">
        <ele>730.5</ele>
        <time>2021-06-27T08:37:16.000Z</time>
      </trkpt>
      <trkpt lat="43.84124" lon="6.52104">
        <ele>731.6</ele>
        <time>2021-06-27T08:37:25.000Z</time>
      </trkpt>
      <trkpt lat="43.84128" lon="6.52091">
        <ele>732.8</ele>
        <time>2021-06-27T08:37:36.000Z</time>
      </trkpt>
      <trkpt lat="43.84134" lon="6.52082">
        <ele>733.9</ele>
        <time>2021-06-27T08:37:45.000Z</time>
      </trkpt>
      <trkpt lat="43.84141" lon="6.52072">
        <ele>735.1</ele>
        <time>2021-06-27T08:37:54.000Z</time>
      </trkpt>
      <trkpt lat="43.84144" lon="6.5206">
        <ele>736.4</ele>
        <time>2021-06-27T08:38:05.000Z</time>
      </trkpt>
      <trkpt lat="43.84152" lon="6.52051">
        <ele>737.4</ele>
        <time>2021-06-27T08:38:15.000Z</time>
      </trkpt>
      <trkpt lat="43.84144" lon="6.52044">
        <ele>741.3</ele>
        <time>2021-06-27T08:38:44.000Z</time>
      </trkpt>
      <trkpt lat="43.84142" lon="6.52032">
        <ele>746.1</ele>
        <time>2021-06-27T08:39:09.000Z</time>
      </trkpt>
      <trkpt lat="43.84132" lon="6.52037">
        <ele>748.1</ele>
        <time>2021-06-27T08:39:39.000Z</time>
      </trkpt>
      <trkpt lat="43.84126" lon="6.52046">
        <ele>748.4</ele>
        <time>2021-06-27T08:39:52.000Z</time>
      </trkpt>
      <trkpt lat="43.84132" lon="6.52035">
        <ele>748.8</ele>
        <time>2021-06-27T08:41:00.000Z</time>
      </trkpt>
      <trkpt lat="43.84139" lon="6.52027">
        <ele>748.5</ele>
        <time>2021-06-27T08:41:08.000Z</time>
      </trkpt>
      <trkpt lat="43.8413" lon="6.52026">
        <ele>749.7</ele>
        <time>2021-06-27T08:42:48.000Z</time>
      </trkpt>
      <trkpt lat="43.84123" lon="6.52034">
        <ele>750.8</ele>
        <time>2021-06-27T08:43:00.000Z</time>
      </trkpt>
      <trkpt lat="43.84117" lon="6.52044">
        <ele>751.5</ele>
        <time>2021-06-27T08:43:09.000Z</time>
      </trkpt>
      <trkpt lat="43.8411" lon="6.52053">
        <ele>752.5</ele>
        <time>2021-06-27T08:43:20.000Z</time>
      </trkpt>
      <trkpt lat="43.84103" lon="6.52062">
        <ele>754.3</ele>
        <time>2021-06-27T08:43:33.000Z</time>
      </trkpt>
      <trkpt lat="43.84097" lon="6.52072">
        <ele>755.1</ele>
        <time>2021-06-27T08:43:43.000Z</time>
      </trkpt>
      <trkpt lat="43.84091" lon="6.52082">
        <ele>755.9</ele>
        <time>2021-06-27T08:43:52.000Z</time>
      </trkpt>
      <trkpt lat="43.84086" lon="6.52094">
        <ele>756.7</ele>
        <time>2021-06-27T08:44:01.000Z</time>
      </trkpt>
      <trkpt lat="43.84084" lon="6.52107">
        <ele>758</ele>
        <time>2021-06-27T08:44:13.000Z</time>
      </trkpt>
      <trkpt lat="43.84077" lon="6.52118">
        <ele>759</ele>
        <time>2021-06-27T08:44:23.000Z</time>
      </trkpt>
      <trkpt lat="43.84072" lon="6.52128">
        <ele>759.8</ele>
        <time>2021-06-27T08:44:32.000Z</time>
      </trkpt>
      <trkpt lat="43.84069" lon="6.5214">
        <ele>760.9</ele>
        <time>2021-06-27T08:44:41.000Z</time>
      </trkpt>
      <trkpt lat="43.84063" lon="6.5215">
        <ele>761.9</ele>
        <time>2021-06-27T08:44:49.000Z</time>
      </trkpt>
      <trkpt lat="43.84059" lon="6.52162">
        <ele>763.2</ele>
        <time>2021-06-27T08:45:00.000Z</time>
      </trkpt>
      <trkpt lat="43.84052" lon="6.52173">
        <ele>765.2</ele>
        <time>2021-06-27T08:45:12.000Z</time>
      </trkpt>
      <trkpt lat="43.84044" lon="6.52182">
        <ele>766.6</ele>
        <time>2021-06-27T08:45:23.000Z</time>
      </trkpt>
      <trkpt lat="43.84037" lon="6.52191">
        <ele>768.1</ele>
        <time>2021-06-27T08:45:33.000Z</time>
      </trkpt>
      <trkpt lat="43.84034" lon="6.52203">
        <ele>769.4</ele>
        <time>2021-06-27T08:45:41.000Z</time>
      </trkpt>
      <trkpt lat="43.84028" lon="6.52214">
        <ele>770.4</ele>
        <time>2021-06-27T08:45:51.000Z</time>
      </trkpt>
      <trkpt lat="43.84024" lon="6.52226">
        <ele>771.3</ele>
        <time>2021-06-27T08:46:00.000Z</time>
      </trkpt>
      <trkpt lat="43.84019" lon="6.52237">
        <ele>772.4</ele>
        <time>2021-06-27T08:46:10.000Z</time>
      </trkpt>
      <trkpt lat="43.84015" lon="6.52248">
        <ele>773.4</ele>
        <time>2021-06-27T08:46:18.000Z</time>
      </trkpt>
      <trkpt lat="43.84009" lon="6.52258">
        <ele>774.8</ele>
        <time>2021-06-27T08:46:29.000Z</time>
      </trkpt>
      <trkpt lat="43.84004" lon="6.5227">
        <ele>776.1</ele>
        <time>2021-06-27T08:46:38.000Z</time>
      </trkpt>
      <trkpt lat="43.83999" lon="6.52281">
        <ele>777.6</ele>
        <time>2021-06-27T08:46:49.000Z</time>
      </trkpt>
      <trkpt lat="43.83992" lon="6.5229">
        <ele>779.3</ele>
        <time>2021-06-27T08:47:00.000Z</time>
      </trkpt>
      <trkpt lat="43.83984" lon="6.52296">
        <ele>780.8</ele>
        <time>2021-06-27T08:47:10.000Z</time>
      </trkpt>
      <trkpt lat="43.83977" lon="6.52305">
        <ele>782.4</ele>
        <time>2021-06-27T08:47:19.000Z</time>
      </trkpt>
      <trkpt lat="43.8397" lon="6.52313">
        <ele>783.7</ele>
        <time>2021-06-27T08:47:28.000Z</time>
      </trkpt>
      <trkpt lat="43.83963" lon="6.52323">
        <ele>785.2</ele>
        <time>2021-06-27T08:47:39.000Z</time>
      </trkpt>
      <trkpt lat="43.8396" lon="6.52336">
        <ele>786.1</ele>
        <time>2021-06-27T08:47:47.000Z</time>
      </trkpt>
      <trkpt lat="43.83956" lon="6.52348">
        <ele>787</ele>
        <time>2021-06-27T08:47:55.000Z</time>
      </trkpt>
      <trkpt lat="43.83953" lon="6.5236">
        <ele>788</ele>
        <time>2021-06-27T08:48:05.000Z</time>
      </trkpt>
      <trkpt lat="43.83948" lon="6.52371">
        <ele>789.2</ele>
        <time>2021-06-27T08:48:16.000Z</time>
      </trkpt>
      <trkpt lat="43.83941" lon="6.52379">
        <ele>790.2</ele>
        <time>2021-06-27T08:48:28.000Z</time>
      </trkpt>
      <trkpt lat="43.83932" lon="6.52382">
        <ele>791.2</ele>
        <time>2021-06-27T08:48:37.000Z</time>
      </trkpt>
      <trkpt lat="43.83922" lon="6.52383">
        <ele>792.5</ele>
        <time>2021-06-27T08:48:47.000Z</time>
      </trkpt>
      <trkpt lat="43.83913" lon="6.52384">
        <ele>793.4</ele>
        <time>2021-06-27T08:48:56.000Z</time>
      </trkpt>
      <trkpt lat="43.83904" lon="6.52387">
        <ele>794</ele>
        <time>2021-06-27T08:49:04.000Z</time>
      </trkpt>
      <trkpt lat="43.83894" lon="6.52389">
        <ele>795.2</ele>
        <time>2021-06-27T08:49:13.000Z</time>
      </trkpt>
      <trkpt lat="43.83885" lon="6.52395">
        <ele>796.2</ele>
        <time>2021-06-27T08:49:22.000Z</time>
      </trkpt>
      <trkpt lat="43.83876" lon="6.52396">
        <ele>797.8</ele>
        <time>2021-06-27T08:49:31.000Z</time>
      </trkpt>
      <trkpt lat="43.83867" lon="6.52401">
        <ele>798.6</ele>
        <time>2021-06-27T08:49:39.000Z</time>
      </trkpt>
      <trkpt lat="43.8386" lon="6.5241">
        <ele>799.6</ele>
        <time>2021-06-27T08:49:48.000Z</time>
      </trkpt>
      <trkpt lat="43.83852" lon="6.52419">
        <ele>800.6</ele>
        <time>2021-06-27T08:49:58.000Z</time>
      </trkpt>
      <trkpt lat="43.83845" lon="6.52428">
        <ele>802.2</ele>
        <time>2021-06-27T08:50:10.000Z</time>
      </trkpt>
      <trkpt lat="43.83836" lon="6.52434">
        <ele>803.8</ele>
        <time>2021-06-27T08:50:21.000Z</time>
      </trkpt>
      <trkpt lat="43.83827" lon="6.52435">
        <ele>804.9</ele>
        <time>2021-06-27T08:50:29.000Z</time>
      </trkpt>
      <trkpt lat="43.83818" lon="6.5244">
        <ele>806.6</ele>
        <time>2021-06-27T08:50:39.000Z</time>
      </trkpt>
      <trkpt lat="43.83809" lon="6.52442">
        <ele>808.7</ele>
        <time>2021-06-27T08:50:50.000Z</time>
      </trkpt>
      <trkpt lat="43.83803" lon="6.52452">
        <ele>810.4</ele>
        <time>2021-06-27T08:51:01.000Z</time>
      </trkpt>
      <trkpt lat="43.83794" lon="6.5246">
        <ele>811.6</ele>
        <time>2021-06-27T08:51:10.000Z</time>
      </trkpt>
      <trkpt lat="43.83789" lon="6.5247">
        <ele>812.8</ele>
        <time>2021-06-27T08:51:21.000Z</time>
      </trkpt>
      <trkpt lat="43.83793" lon="6.52459">
        <ele>814.8</ele>
        <time>2021-06-27T08:51:35.000Z</time>
      </trkpt>
      <trkpt lat="43.83797" lon="6.52446">
        <ele>816.2</ele>
        <time>2021-06-27T08:51:46.000Z</time>
      </trkpt>
      <trkpt lat="43.83801" lon="6.52434">
        <ele>817.7</ele>
        <time>2021-06-27T08:51:58.000Z</time>
      </trkpt>
      <trkpt lat="43.83804" lon="6.52422">
        <ele>819.1</ele>
        <time>2021-06-27T08:52:08.000Z</time>
      </trkpt>
      <trkpt lat="43.83807" lon="6.52409">
        <ele>820.7</ele>
        <time>2021-06-27T08:52:18.000Z</time>
      </trkpt>
      <trkpt lat="43.83814" lon="6.52399">
        <ele>822.1</ele>
        <time>2021-06-27T08:52:28.000Z</time>
      </trkpt>
      <trkpt lat="43.83821" lon="6.52389">
        <ele>823.8</ele>
        <time>2021-06-27T08:52:39.000Z</time>
      </trkpt>
      <trkpt lat="43.83825" lon="6.52377">
        <ele>825.2</ele>
        <time>2021-06-27T08:52:48.000Z</time>
      </trkpt>
      <trkpt lat="43.83827" lon="6.52363">
        <ele>826.7</ele>
        <time>2021-06-27T08:52:59.000Z</time>
      </trkpt>
      <trkpt lat="43.83835" lon="6.52355">
        <ele>827.6</ele>
        <time>2021-06-27T08:53:06.000Z</time>
      </trkpt>
      <trkpt lat="43.8384" lon="6.52344">
        <ele>828.7</ele>
        <time>2021-06-27T08:53:16.000Z</time>
      </trkpt>
      <trkpt lat="43.83843" lon="6.52332">
        <ele>830.6</ele>
        <time>2021-06-27T08:53:29.000Z</time>
      </trkpt>
      <trkpt lat="43.83848" lon="6.5232">
        <ele>832.1</ele>
        <time>2021-06-27T08:53:41.000Z</time>
      </trkpt>
      <trkpt lat="43.83852" lon="6.52308">
        <ele>833.2</ele>
        <time>2021-06-27T08:53:49.000Z</time>
      </trkpt>
      <trkpt lat="43.83858" lon="6.52298">
        <ele>834.4</ele>
        <time>2021-06-27T08:53:57.000Z</time>
      </trkpt>
      <trkpt lat="43.83861" lon="6.52286">
        <ele>835.3</ele>
        <time>2021-06-27T08:54:06.000Z</time>
      </trkpt>
      <trkpt lat="43.83869" lon="6.52277">
        <ele>837</ele>
        <time>2021-06-27T08:54:17.000Z</time>
      </trkpt>
      <trkpt lat="43.83872" lon="6.52264">
        <ele>838.8</ele>
        <time>2021-06-27T08:54:29.000Z</time>
      </trkpt>
      <trkpt lat="43.8388" lon="6.52257">
        <ele>840.1</ele>
        <time>2021-06-27T08:54:40.000Z</time>
      </trkpt>
      <trkpt lat="43.8389" lon="6.52252">
        <ele>841.4</ele>
        <time>2021-06-27T08:54:51.000Z</time>
      </trkpt>
      <trkpt lat="43.8388" lon="6.52252">
        <ele>844.5</ele>
        <time>2021-06-27T08:55:13.000Z</time>
      </trkpt>
      <trkpt lat="43.83871" lon="6.52254">
        <ele>845.9</ele>
        <time>2021-06-27T08:55:23.000Z</time>
      </trkpt>
      <trkpt lat="43.83862" lon="6.52254">
        <ele>847.1</ele>
        <time>2021-06-27T08:55:33.000Z</time>
      </trkpt>
      <trkpt lat="43.83854" lon="6.52262">
        <ele>848.3</ele>
        <time>2021-06-27T08:55:43.000Z</time>
      </trkpt>
      <trkpt lat="43.83846" lon="6.52267">
        <ele>849.5</ele>
        <time>2021-06-27T08:55:53.000Z</time>
      </trkpt>
      <trkpt lat="43.83836" lon="6.52269">
        <ele>851.4</ele>
        <time>2021-06-27T08:56:05.000Z</time>
      </trkpt>
      <trkpt lat="43.83829" lon="6.52277">
        <ele>852.7</ele>
        <time>2021-06-27T08:56:14.000Z</time>
      </trkpt>
      <trkpt lat="43.83821" lon="6.52285">
        <ele>854.4</ele>
        <time>2021-06-27T08:56:31.000Z</time>
      </trkpt>
      <trkpt lat="43.83813" lon="6.52289">
        <ele>855.5</ele>
        <time>2021-06-27T08:56:42.000Z</time>
      </trkpt>
      <trkpt lat="43.83805" lon="6.52296">
        <ele>856.8</ele>
        <time>2021-06-27T08:56:51.000Z</time>
      </trkpt>
      <trkpt lat="43.83797" lon="6.52302">
        <ele>858.3</ele>
        <time>2021-06-27T08:57:00.000Z</time>
      </trkpt>
      <trkpt lat="43.83789" lon="6.52309">
        <ele>860.4</ele>
        <time>2021-06-27T08:57:11.000Z</time>
      </trkpt>
      <trkpt lat="43.83781" lon="6.52316">
        <ele>861.9</ele>
        <time>2021-06-27T08:57:21.000Z</time>
      </trkpt>
      <trkpt lat="43.83774" lon="6.52324">
        <ele>863.6</ele>
        <time>2021-06-27T08:57:30.000Z</time>
      </trkpt>
      <trkpt lat="43.83766" lon="6.5233">
        <ele>865.4</ele>
        <time>2021-06-27T08:57:41.000Z</time>
      </trkpt>
      <trkpt lat="43.83757" lon="6.52336">
        <ele>867</ele>
        <time>2021-06-27T08:57:51.000Z</time>
      </trkpt>
      <trkpt lat="43.8375" lon="6.52346">
        <ele>868.6</ele>
        <time>2021-06-27T08:58:02.000Z</time>
      </trkpt>
      <trkpt lat="43.83743" lon="6.52354">
        <ele>870.4</ele>
        <time>2021-06-27T08:58:14.000Z</time>
      </trkpt>
      <trkpt lat="43.83736" lon="6.52363">
        <ele>872.2</ele>
        <time>2021-06-27T08:58:26.000Z</time>
      </trkpt>
      <trkpt lat="43.83728" lon="6.5237">
        <ele>873.5</ele>
        <time>2021-06-27T08:58:34.000Z</time>
      </trkpt>
      <trkpt lat="43.83722" lon="6.52382">
        <ele>875.3</ele>
        <time>2021-06-27T08:58:47.000Z</time>
      </trkpt>
      <trkpt lat="43.83718" lon="6.52395">
        <ele>876.6</ele>
        <time>2021-06-27T08:58:56.000Z</time>
      </trkpt>
      <trkpt lat="43.83712" lon="6.52404">
        <ele>878</ele>
        <time>2021-06-27T08:59:06.000Z</time>
      </trkpt>
      <trkpt lat="43.83708" lon="6.52417">
        <ele>879.8</ele>
        <time>2021-06-27T08:59:21.000Z</time>
      </trkpt>
      <trkpt lat="43.83702" lon="6.52429">
        <ele>880.8</ele>
        <time>2021-06-27T08:59:30.000Z</time>
      </trkpt>
      <trkpt lat="43.83697" lon="6.52442">
        <ele>882.4</ele>
        <time>2021-06-27T08:59:42.000Z</time>
      </trkpt>
      <trkpt lat="43.83691" lon="6.52452">
        <ele>883.8</ele>
        <time>2021-06-27T08:59:53.000Z</time>
      </trkpt>
      <trkpt lat="43.83685" lon="6.52463">
        <ele>885.4</ele>
        <time>2021-06-27T09:00:05.000Z</time>
      </trkpt>
      <trkpt lat="43.83683" lon="6.52476">
        <ele>886.1</ele>
        <time>2021-06-27T09:00:15.000Z</time>
      </trkpt>
      <trkpt lat="43.83683" lon="6.52489">
        <ele>887</ele>
        <time>2021-06-27T09:00:27.000Z</time>
      </trkpt>
      <trkpt lat="43.83679" lon="6.525">
        <ele>887.2</ele>
        <time>2021-06-27T09:00:35.000Z</time>
      </trkpt>
      <trkpt lat="43.83673" lon="6.52511">
        <ele>887.7</ele>
        <time>2021-06-27T09:00:43.000Z</time>
      </trkpt>
      <trkpt lat="43.83669" lon="6.52522">
        <ele>888.5</ele>
        <time>2021-06-27T09:00:51.000Z</time>
      </trkpt>
      <trkpt lat="43.83661" lon="6.5253">
        <ele>890.1</ele>
        <time>2021-06-27T09:01:02.000Z</time>
      </trkpt>
      <trkpt lat="43.83654" lon="6.5254">
        <ele>891.5</ele>
        <time>2021-06-27T09:01:13.000Z</time>
      </trkpt>
      <trkpt lat="43.83649" lon="6.5255">
        <ele>892.6</ele>
        <time>2021-06-27T09:01:23.000Z</time>
      </trkpt>
      <trkpt lat="43.83647" lon="6.52562">
        <ele>893.6</ele>
        <time>2021-06-27T09:01:31.000Z</time>
      </trkpt>
      <trkpt lat="43.8364" lon="6.5257">
        <ele>895.6</ele>
        <time>2021-06-27T09:01:47.000Z</time>
      </trkpt>
      <trkpt lat="43.83632" lon="6.52564">
        <ele>899.1</ele>
        <time>2021-06-27T09:02:13.000Z</time>
      </trkpt>
      <trkpt lat="43.83623" lon="6.52569">
        <ele>902.7</ele>
        <time>2021-06-27T09:02:47.000Z</time>
      </trkpt>
      <trkpt lat="43.83619" lon="6.5258">
        <ele>903.6</ele>
        <time>2021-06-27T09:03:00.000Z</time>
      </trkpt>
      <trkpt lat="43.83615" lon="6.52594">
        <ele>905</ele>
        <time>2021-06-27T09:03:11.000Z</time>
      </trkpt>
      <trkpt lat="43.83619" lon="6.52605">
        <ele>905.4</ele>
        <time>2021-06-27T09:04:03.000Z</time>
      </trkpt>
      <trkpt lat="43.83616" lon="6.52618">
        <ele>905</ele>
        <time>2021-06-27T09:04:16.000Z</time>
      </trkpt>
      <trkpt lat="43.83613" lon="6.5263">
        <ele>905</ele>
        <time>2021-06-27T09:04:25.000Z</time>
      </trkpt>
      <trkpt lat="43.83609" lon="6.52642">
        <ele>905.2</ele>
        <time>2021-06-27T09:04:32.000Z</time>
      </trkpt>
      <trkpt lat="43.83601" lon="6.52649">
        <ele>904.8</ele>
        <time>2021-06-27T09:04:45.000Z</time>
      </trkpt>
      <trkpt lat="43.83602" lon="6.52662">
        <ele>901.6</ele>
        <time>2021-06-27T09:05:11.000Z</time>
      </trkpt>
      <trkpt lat="43.83598" lon="6.52675">
        <ele>901.3</ele>
        <time>2021-06-27T09:05:22.000Z</time>
      </trkpt>
      <trkpt lat="43.83591" lon="6.52682">
        <ele>901.6</ele>
        <time>2021-06-27T09:05:31.000Z</time>
      </trkpt>
      <trkpt lat="43.83585" lon="6.52694">
        <ele>902.1</ele>
        <time>2021-06-27T09:05:38.000Z</time>
      </trkpt>
      <trkpt lat="43.83583" lon="6.52707">
        <ele>902.5</ele>
        <time>2021-06-27T09:05:44.000Z</time>
      </trkpt>
      <trkpt lat="43.83578" lon="6.52717">
        <ele>903.1</ele>
        <time>2021-06-27T09:05:52.000Z</time>
      </trkpt>
      <trkpt lat="43.83573" lon="6.52729">
        <ele>903.6</ele>
        <time>2021-06-27T09:05:58.000Z</time>
      </trkpt>
      <trkpt lat="43.83567" lon="6.52739">
        <ele>904.3</ele>
        <time>2021-06-27T09:06:07.000Z</time>
      </trkpt>
      <trkpt lat="43.83558" lon="6.52735">
        <ele>906.2</ele>
        <time>2021-06-27T09:06:18.000Z</time>
      </trkpt>
      <trkpt lat="43.83548" lon="6.52733">
        <ele>907.6</ele>
        <time>2021-06-27T09:06:29.000Z</time>
      </trkpt>
      <trkpt lat="43.83539" lon="6.52735">
        <ele>910.3</ele>
        <time>2021-06-27T09:06:45.000Z</time>
      </trkpt>
      <trkpt lat="43.83529" lon="6.52733">
        <ele>912.7</ele>
        <time>2021-06-27T09:07:01.000Z</time>
      </trkpt>
      <trkpt lat="43.8352" lon="6.52735">
        <ele>914.1</ele>
        <time>2021-06-27T09:07:12.000Z</time>
      </trkpt>
      <trkpt lat="43.83512" lon="6.52744">
        <ele>915.6</ele>
        <time>2021-06-27T09:07:24.000Z</time>
      </trkpt>
      <trkpt lat="43.83505" lon="6.52752">
        <ele>917</ele>
        <time>2021-06-27T09:07:35.000Z</time>
      </trkpt>
      <trkpt lat="43.83497" lon="6.52758">
        <ele>918.4</ele>
        <time>2021-06-27T09:07:46.000Z</time>
      </trkpt>
      <trkpt lat="43.83488" lon="6.52751">
        <ele>921.4</ele>
        <time>2021-06-27T09:08:03.000Z</time>
      </trkpt>
      <trkpt lat="43.8348" lon="6.52745">
        <ele>923.2</ele>
        <time>2021-06-27T09:08:17.000Z</time>
      </trkpt>
      <trkpt lat="43.83472" lon="6.52741">
        <ele>925</ele>
        <time>2021-06-27T09:08:29.000Z</time>
      </trkpt>
      <trkpt lat="43.83462" lon="6.52746">
        <ele>925.8</ele>
        <time>2021-06-27T09:08:36.000Z</time>
      </trkpt>
      <trkpt lat="43.83454" lon="6.52753">
        <ele>927</ele>
        <time>2021-06-27T09:08:45.000Z</time>
      </trkpt>
      <trkpt lat="43.83446" lon="6.52758">
        <ele>928.2</ele>
        <time>2021-06-27T09:08:54.000Z</time>
      </trkpt>
      <trkpt lat="43.83438" lon="6.52769">
        <ele>930.2</ele>
        <time>2021-06-27T09:09:07.000Z</time>
      </trkpt>
      <trkpt lat="43.8343" lon="6.52776">
        <ele>932.1</ele>
        <time>2021-06-27T09:09:18.000Z</time>
      </trkpt>
      <trkpt lat="43.83426" lon="6.52787">
        <ele>934.4</ele>
        <time>2021-06-27T09:09:33.000Z</time>
      </trkpt>
      <trkpt lat="43.83425" lon="6.528">
        <ele>936.2</ele>
        <time>2021-06-27T09:09:48.000Z</time>
      </trkpt>
      <trkpt lat="43.83425" lon="6.52813">
        <ele>937.9</ele>
        <time>2021-06-27T09:10:00.000Z</time>
      </trkpt>
      <trkpt lat="43.8343" lon="6.52824">
        <ele>939.6</ele>
        <time>2021-06-27T09:10:13.000Z</time>
      </trkpt>
      <trkpt lat="43.8343" lon="6.52839">
        <ele>941.5</ele>
        <time>2021-06-27T09:10:26.000Z</time>
      </trkpt>
      <trkpt lat="43.83437" lon="6.52851">
        <ele>942.8</ele>
        <time>2021-06-27T09:10:35.000Z</time>
      </trkpt>
      <trkpt lat="43.83436" lon="6.52864">
        <ele>944.4</ele>
        <time>2021-06-27T09:10:49.000Z</time>
      </trkpt>
      <trkpt lat="43.83433" lon="6.52877">
        <ele>945.7</ele>
        <time>2021-06-27T09:10:59.000Z</time>
      </trkpt>
      <trkpt lat="43.83431" lon="6.5289">
        <ele>946.9</ele>
        <time>2021-06-27T09:11:11.000Z</time>
      </trkpt>
      <trkpt lat="43.83427" lon="6.52902">
        <ele>947.8</ele>
        <time>2021-06-27T09:11:22.000Z</time>
      </trkpt>
      <trkpt lat="43.83421" lon="6.52913">
        <ele>948.7</ele>
        <time>2021-06-27T09:11:31.000Z</time>
      </trkpt>
      <trkpt lat="43.83416" lon="6.52926">
        <ele>949.7</ele>
        <time>2021-06-27T09:11:40.000Z</time>
      </trkpt>
      <trkpt lat="43.83414" lon="6.52939">
        <ele>950.9</ele>
        <time>2021-06-27T09:11:49.000Z</time>
      </trkpt>
      <trkpt lat="43.83412" lon="6.52952">
        <ele>951.6</ele>
        <time>2021-06-27T09:11:58.000Z</time>
      </trkpt>
      <trkpt lat="43.83409" lon="6.52965">
        <ele>953</ele>
        <time>2021-06-27T09:12:09.000Z</time>
      </trkpt>
      <trkpt lat="43.83409" lon="6.52978">
        <ele>955.9</ele>
        <time>2021-06-27T09:12:22.000Z</time>
      </trkpt>
      <trkpt lat="43.83404" lon="6.5299">
        <ele>956.9</ele>
        <time>2021-06-27T09:12:31.000Z</time>
      </trkpt>
      <trkpt lat="43.834" lon="6.53002">
        <ele>957.5</ele>
        <time>2021-06-27T09:12:40.000Z</time>
      </trkpt>
      <trkpt lat="43.83395" lon="6.53012">
        <ele>958.4</ele>
        <time>2021-06-27T09:12:48.000Z</time>
      </trkpt>
      <trkpt lat="43.83389" lon="6.53022">
        <ele>959.5</ele>
        <time>2021-06-27T09:12:57.000Z</time>
      </trkpt>
      <trkpt lat="43.83383" lon="6.53032">
        <ele>960.3</ele>
        <time>2021-06-27T09:13:05.000Z</time>
      </trkpt>
      <trkpt lat="43.83376" lon="6.5304">
        <ele>961.4</ele>
        <time>2021-06-27T09:13:15.000Z</time>
      </trkpt>
      <trkpt lat="43.83368" lon="6.53048">
        <ele>962.5</ele>
        <time>2021-06-27T09:13:25.000Z</time>
      </trkpt>
      <trkpt lat="43.8336" lon="6.53054">
        <ele>963.7</ele>
        <time>2021-06-27T09:13:35.000Z</time>
      </trkpt>
      <trkpt lat="43.8335" lon="6.53057">
        <ele>965</ele>
        <time>2021-06-27T09:13:45.000Z</time>
      </trkpt>
      <trkpt lat="43.83342" lon="6.53065">
        <ele>965.9</ele>
        <time>2021-06-27T09:13:55.000Z</time>
      </trkpt>
      <trkpt lat="43.83333" lon="6.53069">
        <ele>966.9</ele>
        <time>2021-06-27T09:14:05.000Z</time>
      </trkpt>
      <trkpt lat="43.83324" lon="6.53073">
        <ele>968.4</ele>
        <time>2021-06-27T09:14:15.000Z</time>
      </trkpt>
      <trkpt lat="43.83316" lon="6.53079">
        <ele>969.7</ele>
        <time>2021-06-27T09:14:25.000Z</time>
      </trkpt>
      <trkpt lat="43.83307" lon="6.53084">
        <ele>971.2</ele>
        <time>2021-06-27T09:14:35.000Z</time>
      </trkpt>
      <trkpt lat="43.83299" lon="6.53089">
        <ele>972.6</ele>
        <time>2021-06-27T09:14:44.000Z</time>
      </trkpt>
      <trkpt lat="43.8329" lon="6.53094">
        <ele>974.3</ele>
        <time>2021-06-27T09:14:56.000Z</time>
      </trkpt>
      <trkpt lat="43.83283" lon="6.53103">
        <ele>976.3</ele>
        <time>2021-06-27T09:15:07.000Z</time>
      </trkpt>
      <trkpt lat="43.83275" lon="6.53111">
        <ele>978.2</ele>
        <time>2021-06-27T09:15:18.000Z</time>
      </trkpt>
      <trkpt lat="43.83268" lon="6.5312">
        <ele>979.7</ele>
        <time>2021-06-27T09:15:28.000Z</time>
      </trkpt>
      <trkpt lat="43.83263" lon="6.5313">
        <ele>981.2</ele>
        <time>2021-06-27T09:15:39.000Z</time>
      </trkpt>
      <trkpt lat="43.83259" lon="6.53141">
        <ele>982.9</ele>
        <time>2021-06-27T09:15:49.000Z</time>
      </trkpt>
      <trkpt lat="43.83253" lon="6.53151">
        <ele>984.4</ele>
        <time>2021-06-27T09:15:59.000Z</time>
      </trkpt>
      <trkpt lat="43.83245" lon="6.53158">
        <ele>986.2</ele>
        <time>2021-06-27T09:16:09.000Z</time>
      </trkpt>
      <trkpt lat="43.83236" lon="6.53161">
        <ele>987.6</ele>
        <time>2021-06-27T09:16:19.000Z</time>
      </trkpt>
      <trkpt lat="43.83227" lon="6.5316">
        <ele>989</ele>
        <time>2021-06-27T09:16:30.000Z</time>
      </trkpt>
      <trkpt lat="43.83218" lon="6.53162">
        <ele>990.2</ele>
        <time>2021-06-27T09:16:42.000Z</time>
      </trkpt>
      <trkpt lat="43.83209" lon="6.53164">
        <ele>991.6</ele>
        <time>2021-06-27T09:16:54.000Z</time>
      </trkpt>
      <trkpt lat="43.832" lon="6.53169">
        <ele>992.7</ele>
        <time>2021-06-27T09:17:03.000Z</time>
      </trkpt>
      <trkpt lat="43.83192" lon="6.53174">
        <ele>993.9</ele>
        <time>2021-06-27T09:17:13.000Z</time>
      </trkpt>
      <trkpt lat="43.83183" lon="6.53178">
        <ele>995.9</ele>
        <time>2021-06-27T09:17:23.000Z</time>
      </trkpt>
      <trkpt lat="43.83174" lon="6.53182">
        <ele>998.8</ele>
        <time>2021-06-27T09:17:39.000Z</time>
      </trkpt>
      <trkpt lat="43.83167" lon="6.53193">
        <ele>1000.4</ele>
        <time>2021-06-27T09:17:49.000Z</time>
      </trkpt>
      <trkpt lat="43.83159" lon="6.53201">
        <ele>1002.4</ele>
        <time>2021-06-27T09:18:00.000Z</time>
      </trkpt>
      <trkpt lat="43.83151" lon="6.53207">
        <ele>1004.6</ele>
        <time>2021-06-27T09:18:13.000Z</time>
      </trkpt>
      <trkpt lat="43.83143" lon="6.53213">
        <ele>1006.5</ele>
        <time>2021-06-27T09:18:25.000Z</time>
      </trkpt>
      <trkpt lat="43.83136" lon="6.53222">
        <ele>1008.5</ele>
        <time>2021-06-27T09:18:37.000Z</time>
      </trkpt>
      <trkpt lat="43.83132" lon="6.53234">
        <ele>1011.5</ele>
        <time>2021-06-27T09:18:56.000Z</time>
      </trkpt>
      <trkpt lat="43.83127" lon="6.53245">
        <ele>1013.8</ele>
        <time>2021-06-27T09:19:10.000Z</time>
      </trkpt>
      <trkpt lat="43.83122" lon="6.53257">
        <ele>1015.8</ele>
        <time>2021-06-27T09:19:22.000Z</time>
      </trkpt>
      <trkpt lat="43.8312" lon="6.5327">
        <ele>1017.5</ele>
        <time>2021-06-27T09:19:33.000Z</time>
      </trkpt>
      <trkpt lat="43.83119" lon="6.53283">
        <ele>1019.7</ele>
        <time>2021-06-27T09:19:46.000Z</time>
      </trkpt>
      <trkpt lat="43.8312" lon="6.53295">
        <ele>1021.3</ele>
        <time>2021-06-27T09:19:57.000Z</time>
      </trkpt>
      <trkpt lat="43.83118" lon="6.53308">
        <ele>1023</ele>
        <time>2021-06-27T09:20:07.000Z</time>
      </trkpt>
      <trkpt lat="43.8312" lon="6.53322">
        <ele>1024</ele>
        <time>2021-06-27T09:20:21.000Z</time>
      </trkpt>
      <trkpt lat="43.83117" lon="6.53337">
        <ele>1026.4</ele>
        <time>2021-06-27T09:20:33.000Z</time>
      </trkpt>
      <trkpt lat="43.83113" lon="6.53349">
        <ele>1027.9</ele>
        <time>2021-06-27T09:20:45.000Z</time>
      </trkpt>
      <trkpt lat="43.83108" lon="6.5336">
        <ele>1029.2</ele>
        <time>2021-06-27T09:20:53.000Z</time>
      </trkpt>
      <trkpt lat="43.83103" lon="6.53371">
        <ele>1030.5</ele>
        <time>2021-06-27T09:21:03.000Z</time>
      </trkpt>
      <trkpt lat="43.83097" lon="6.5338">
        <ele>1031.8</ele>
        <time>2021-06-27T09:21:13.000Z</time>
      </trkpt>
      <trkpt lat="43.83093" lon="6.53392">
        <ele>1032.9</ele>
        <time>2021-06-27T09:21:21.000Z</time>
      </trkpt>
      <trkpt lat="43.83086" lon="6.53401">
        <ele>1034.4</ele>
        <time>2021-06-27T09:21:32.000Z</time>
      </trkpt>
      <trkpt lat="43.83079" lon="6.5341">
        <ele>1036</ele>
        <time>2021-06-27T09:21:44.000Z</time>
      </trkpt>
      <trkpt lat="43.83071" lon="6.5342">
        <ele>1037.8</ele>
        <time>2021-06-27T09:21:57.000Z</time>
      </trkpt>
      <trkpt lat="43.83065" lon="6.5343">
        <ele>1039.3</ele>
        <time>2021-06-27T09:22:06.000Z</time>
      </trkpt>
      <trkpt lat="43.83056" lon="6.53436">
        <ele>1041.2</ele>
        <time>2021-06-27T09:22:19.000Z</time>
      </trkpt>
      <trkpt lat="43.83047" lon="6.53442">
        <ele>1043.2</ele>
        <time>2021-06-27T09:22:33.000Z</time>
      </trkpt>
      <trkpt lat="43.8304" lon="6.5345">
        <ele>1045.3</ele>
        <time>2021-06-27T09:22:47.000Z</time>
      </trkpt>
      <trkpt lat="43.83029" lon="6.53459">
        <ele>1047.2</ele>
        <time>2021-06-27T09:23:01.000Z</time>
      </trkpt>
      <trkpt lat="43.83025" lon="6.53476">
        <ele>1049</ele>
        <time>2021-06-27T09:23:18.000Z</time>
      </trkpt>
      <trkpt lat="43.83035" lon="6.53489">
        <ele>1051</ele>
        <time>2021-06-27T09:23:30.000Z</time>
      </trkpt>
      <trkpt lat="43.83036" lon="6.53504">
        <ele>1053</ele>
        <time>2021-06-27T09:23:47.000Z</time>
      </trkpt>
      <trkpt lat="43.83003" lon="6.53509">
        <ele>1054</ele>
        <time>2021-06-27T09:24:00.000Z</time>
      </trkpt>
      <trkpt lat="43.82997" lon="6.53519">
        <ele>1055.5</ele>
        <time>2021-06-27T09:24:10.000Z</time>
      </trkpt>
      <trkpt lat="43.8299" lon="6.53529">
        <ele>1057.1</ele>
        <time>2021-06-27T09:24:23.000Z</time>
      </trkpt>
      <trkpt lat="43.82984" lon="6.53537">
        <ele>1058.6</ele>
        <time>2021-06-27T09:25:01.000Z</time>
      </trkpt>
      <trkpt lat="43.82975" lon="6.53543">
        <ele>1059.3</ele>
        <time>2021-06-27T09:25:12.000Z</time>
      </trkpt>
      <trkpt lat="43.82966" lon="6.53549">
        <ele>1060.9</ele>
        <time>2021-06-27T09:25:23.000Z</time>
      </trkpt>
      <trkpt lat="43.82966" lon="6.53535">
        <ele>1063.7</ele>
        <time>2021-06-27T09:25:37.000Z</time>
      </trkpt>
      <trkpt lat="43.8297" lon="6.53523">
        <ele>1064.7</ele>
        <time>2021-06-27T09:25:48.000Z</time>
      </trkpt>
      <trkpt lat="43.82975" lon="6.53512">
        <ele>1066.1</ele>
        <time>2021-06-27T09:25:59.000Z</time>
      </trkpt>
      <trkpt lat="43.82975" lon="6.53499">
        <ele>1067.7</ele>
        <time>2021-06-27T09:26:10.000Z</time>
      </trkpt>
      <trkpt lat="43.82973" lon="6.53487">
        <ele>1068.9</ele>
        <time>2021-06-27T09:26:19.000Z</time>
      </trkpt>
      <trkpt lat="43.82978" lon="6.53476">
        <ele>1070.2</ele>
        <time>2021-06-27T09:26:31.000Z</time>
      </trkpt>
      <trkpt lat="43.82981" lon="6.53463">
        <ele>1071.6</ele>
        <time>2021-06-27T09:26:41.000Z</time>
      </trkpt>
      <trkpt lat="43.82982" lon="6.5345">
        <ele>1072.7</ele>
        <time>2021-06-27T09:26:50.000Z</time>
      </trkpt>
      <trkpt lat="43.82984" lon="6.53437">
        <ele>1073.7</ele>
        <time>2021-06-27T09:27:00.000Z</time>
      </trkpt>
      <trkpt lat="43.82988" lon="6.53424">
        <ele>1075</ele>
        <time>2021-06-27T09:27:10.000Z</time>
      </trkpt>
      <trkpt lat="43.8299" lon="6.53411">
        <ele>1076.2</ele>
        <time>2021-06-27T09:27:21.000Z</time>
      </trkpt>
      <trkpt lat="43.82994" lon="6.534">
        <ele>1077.5</ele>
        <time>2021-06-27T09:27:31.000Z</time>
      </trkpt>
      <trkpt lat="43.83" lon="6.53389">
        <ele>1079.1</ele>
        <time>2021-06-27T09:27:42.000Z</time>
      </trkpt>
      <trkpt lat="43.82999" lon="6.53374">
        <ele>1080.1</ele>
        <time>2021-06-27T09:27:51.000Z</time>
      </trkpt>
      <trkpt lat="43.82996" lon="6.53361">
        <ele>1081.1</ele>
        <time>2021-06-27T09:27:59.000Z</time>
      </trkpt>
      <trkpt lat="43.82995" lon="6.53347">
        <ele>1082.5</ele>
        <time>2021-06-27T09:28:10.000Z</time>
      </trkpt>
      <trkpt lat="43.83003" lon="6.53341">
        <ele>1083.7</ele>
        <time>2021-06-27T09:28:19.000Z</time>
      </trkpt>
      <trkpt lat="43.8301" lon="6.53331">
        <ele>1084.8</ele>
        <time>2021-06-27T09:28:28.000Z</time>
      </trkpt>
      <trkpt lat="43.83014" lon="6.53319">
        <ele>1085.9</ele>
        <time>2021-06-27T09:28:37.000Z</time>
      </trkpt>
      <trkpt lat="43.83019" lon="6.53307">
        <ele>1087.1</ele>
        <time>2021-06-27T09:28:46.000Z</time>
      </trkpt>
      <trkpt lat="43.83016" lon="6.53295">
        <ele>1088.5</ele>
        <time>2021-06-27T09:28:58.000Z</time>
      </trkpt>
      <trkpt lat="43.8301" lon="6.53285">
        <ele>1090.1</ele>
        <time>2021-06-27T09:29:12.000Z</time>
      </trkpt>
      <trkpt lat="43.83006" lon="6.53274">
        <ele>1091.5</ele>
        <time>2021-06-27T09:29:23.000Z</time>
      </trkpt>
      <trkpt lat="43.83002" lon="6.53262">
        <ele>1093.3</ele>
        <time>2021-06-27T09:29:36.000Z</time>
      </trkpt>
      <trkpt lat="43.82997" lon="6.5325">
        <ele>1094.7</ele>
        <time>2021-06-27T09:29:45.000Z</time>
      </trkpt>
      <trkpt lat="43.82994" lon="6.53239">
        <ele>1096.2</ele>
        <time>2021-06-27T09:30:00.000Z</time>
      </trkpt>
      <trkpt lat="43.82991" lon="6.53225">
        <ele>1098</ele>
        <time>2021-06-27T09:30:12.000Z</time>
      </trkpt>
      <trkpt lat="43.82989" lon="6.53213">
        <ele>1099.5</ele>
        <time>2021-06-27T09:30:23.000Z</time>
      </trkpt>
      <trkpt lat="43.82989" lon="6.532">
        <ele>1101.4</ele>
        <time>2021-06-27T09:30:35.000Z</time>
      </trkpt>
      <trkpt lat="43.82988" lon="6.53187">
        <ele>1102.7</ele>
        <time>2021-06-27T09:30:47.000Z</time>
      </trkpt>
      <trkpt lat="43.82988" lon="6.53173">
        <ele>1103.8</ele>
        <time>2021-06-27T09:30:56.000Z</time>
      </trkpt>
      <trkpt lat="43.82984" lon="6.53162">
        <ele>1104.9</ele>
        <time>2021-06-27T09:31:05.000Z</time>
      </trkpt>
      <trkpt lat="43.82983" lon="6.53149">
        <ele>1106.3</ele>
        <time>2021-06-27T09:31:15.000Z</time>
      </trkpt>
      <trkpt lat="43.82982" lon="6.53136">
        <ele>1107.6</ele>
        <time>2021-06-27T09:31:25.000Z</time>
      </trkpt>
      <trkpt lat="43.8298" lon="6.53123">
        <ele>1108.8</ele>
        <time>2021-06-27T09:31:33.000Z</time>
      </trkpt>
      <trkpt lat="43.82976" lon="6.53111">
        <ele>1110</ele>
        <time>2021-06-27T09:31:41.000Z</time>
      </trkpt>
      <trkpt lat="43.82976" lon="6.53097">
        <ele>1111.5</ele>
        <time>2021-06-27T09:31:52.000Z</time>
      </trkpt>
      <trkpt lat="43.82978" lon="6.53085">
        <ele>1113.2</ele>
        <time>2021-06-27T09:32:03.000Z</time>
      </trkpt>
      <trkpt lat="43.82977" lon="6.53072">
        <ele>1115</ele>
        <time>2021-06-27T09:32:14.000Z</time>
      </trkpt>
      <trkpt lat="43.82969" lon="6.53079">
        <ele>1117.4</ele>
        <time>2021-06-27T09:32:32.000Z</time>
      </trkpt>
      <trkpt lat="43.82965" lon="6.53091">
        <ele>1119.2</ele>
        <time>2021-06-27T09:32:47.000Z</time>
      </trkpt>
      <trkpt lat="43.82962" lon="6.53104">
        <ele>1121</ele>
        <time>2021-06-27T09:33:00.000Z</time>
      </trkpt>
      <trkpt lat="43.8296" lon="6.53117">
        <ele>1122.5</ele>
        <time>2021-06-27T09:33:12.000Z</time>
      </trkpt>
      <trkpt lat="43.8295" lon="6.53133">
        <ele>1123.1</ele>
        <time>2021-06-27T09:33:26.000Z</time>
      </trkpt>
      <trkpt lat="43.82948" lon="6.53146">
        <ele>1125.7</ele>
        <time>2021-06-27T09:33:36.000Z</time>
      </trkpt>
      <trkpt lat="43.82945" lon="6.53158">
        <ele>1127.3</ele>
        <time>2021-06-27T09:33:48.000Z</time>
      </trkpt>
      <trkpt lat="43.82943" lon="6.53171">
        <ele>1128.6</ele>
        <time>2021-06-27T09:33:58.000Z</time>
      </trkpt>
      <trkpt lat="43.8294" lon="6.53184">
        <ele>1129.8</ele>
        <time>2021-06-27T09:34:08.000Z</time>
      </trkpt>
      <trkpt lat="43.82937" lon="6.53196">
        <ele>1130.9</ele>
        <time>2021-06-27T09:34:17.000Z</time>
      </trkpt>
      <trkpt lat="43.82935" lon="6.53208">
        <ele>1133.3</ele>
        <time>2021-06-27T09:34:33.000Z</time>
      </trkpt>
      <trkpt lat="43.8293" lon="6.53219">
        <ele>1134.6</ele>
        <time>2021-06-27T09:34:43.000Z</time>
      </trkpt>
      <trkpt lat="43.82927" lon="6.53232">
        <ele>1135.8</ele>
        <time>2021-06-27T09:34:54.000Z</time>
      </trkpt>
      <trkpt lat="43.82926" lon="6.53244">
        <ele>1137.7</ele>
        <time>2021-06-27T09:35:06.000Z</time>
      </trkpt>
      <trkpt lat="43.82927" lon="6.53257">
        <ele>1139.7</ele>
        <time>2021-06-27T09:35:19.000Z</time>
      </trkpt>
      <trkpt lat="43.82923" lon="6.5327">
        <ele>1140.7</ele>
        <time>2021-06-27T09:35:29.000Z</time>
      </trkpt>
      <trkpt lat="43.82918" lon="6.5328">
        <ele>1141.7</ele>
        <time>2021-06-27T09:35:38.000Z</time>
      </trkpt>
      <trkpt lat="43.82911" lon="6.5329">
        <ele>1142.8</ele>
        <time>2021-06-27T09:35:48.000Z</time>
      </trkpt>
      <trkpt lat="43.82904" lon="6.53299">
        <ele>1144.1</ele>
        <time>2021-06-27T09:35:59.000Z</time>
      </trkpt>
      <trkpt lat="43.82896" lon="6.53306">
        <ele>1145.1</ele>
        <time>2021-06-27T09:36:09.000Z</time>
      </trkpt>
      <trkpt lat="43.82887" lon="6.53311">
        <ele>1146.1</ele>
        <time>2021-06-27T09:36:18.000Z</time>
      </trkpt>
      <trkpt lat="43.82878" lon="6.53314">
        <ele>1148.2</ele>
        <time>2021-06-27T09:36:33.000Z</time>
      </trkpt>
      <trkpt lat="43.82868" lon="6.53317">
        <ele>1149.6</ele>
        <time>2021-06-27T09:36:44.000Z</time>
      </trkpt>
      <trkpt lat="43.82859" lon="6.53322">
        <ele>1151.7</ele>
        <time>2021-06-27T09:36:57.000Z</time>
      </trkpt>
      <trkpt lat="43.8285" lon="6.53323">
        <ele>1153.8</ele>
        <time>2021-06-27T09:37:07.000Z</time>
      </trkpt>
      <trkpt lat="43.82842" lon="6.53331">
        <ele>1154.8</ele>
        <time>2021-06-27T09:37:18.000Z</time>
      </trkpt>
      <trkpt lat="43.82833" lon="6.53336">
        <ele>1155.9</ele>
        <time>2021-06-27T09:37:30.000Z</time>
      </trkpt>
      <trkpt lat="43.82825" lon="6.53342">
        <ele>1157.6</ele>
        <time>2021-06-27T09:37:41.000Z</time>
      </trkpt>
      <trkpt lat="43.82817" lon="6.53349">
        <ele>1159.1</ele>
        <time>2021-06-27T09:37:52.000Z</time>
      </trkpt>
      <trkpt lat="43.82808" lon="6.53354">
        <ele>1161</ele>
        <time>2021-06-27T09:38:04.000Z</time>
      </trkpt>
      <trkpt lat="43.82806" lon="6.53342">
        <ele>1166.1</ele>
        <time>2021-06-27T09:38:36.000Z</time>
      </trkpt>
      <trkpt lat="43.82808" lon="6.5333">
        <ele>1167.1</ele>
        <time>2021-06-27T09:38:45.000Z</time>
      </trkpt>
      <trkpt lat="43.8281" lon="6.53317">
        <ele>1168.3</ele>
        <time>2021-06-27T09:38:54.000Z</time>
      </trkpt>
      <trkpt lat="43.82815" lon="6.53305">
        <ele>1169.6</ele>
        <time>2021-06-27T09:39:04.000Z</time>
      </trkpt>
      <trkpt lat="43.82819" lon="6.53293">
        <ele>1170.2</ele>
        <time>2021-06-27T09:39:14.000Z</time>
      </trkpt>
      <trkpt lat="43.82827" lon="6.53285">
        <ele>1171.2</ele>
        <time>2021-06-27T09:39:23.000Z</time>
      </trkpt>
      <trkpt lat="43.82831" lon="6.53273">
        <ele>1173.1</ele>
        <time>2021-06-27T09:39:36.000Z</time>
      </trkpt>
      <trkpt lat="43.82836" lon="6.53261">
        <ele>1174.9</ele>
        <time>2021-06-27T09:39:47.000Z</time>
      </trkpt>
      <trkpt lat="43.82844" lon="6.53254">
        <ele>1175.9</ele>
        <time>2021-06-27T09:39:56.000Z</time>
      </trkpt>
      <trkpt lat="43.82851" lon="6.53244">
        <ele>1177.1</ele>
        <time>2021-06-27T09:40:07.000Z</time>
      </trkpt>
      <trkpt lat="43.82855" lon="6.53233">
        <ele>1178.5</ele>
        <time>2021-06-27T09:40:19.000Z</time>
      </trkpt>
      <trkpt lat="43.8286" lon="6.53221">
        <ele>1180.2</ele>
        <time>2021-06-27T09:40:34.000Z</time>
      </trkpt>
      <trkpt lat="43.8286" lon="6.53209">
        <ele>1181.5</ele>
        <time>2021-06-27T09:40:48.000Z</time>
      </trkpt>
      <trkpt lat="43.82859" lon="6.53196">
        <ele>1182.1</ele>
        <time>2021-06-27T09:41:01.000Z</time>
      </trkpt>
      <trkpt lat="43.82856" lon="6.53183">
        <ele>1183</ele>
        <time>2021-06-27T09:41:11.000Z</time>
      </trkpt>
      <trkpt lat="43.82855" lon="6.5317">
        <ele>1184.1</ele>
        <time>2021-06-27T09:41:21.000Z</time>
      </trkpt>
      <trkpt lat="43.82856" lon="6.53157">
        <ele>1185.1</ele>
        <time>2021-06-27T09:41:32.000Z</time>
      </trkpt>
      <trkpt lat="43.8285" lon="6.53146">
        <ele>1186.3</ele>
        <time>2021-06-27T09:41:43.000Z</time>
      </trkpt>
      <trkpt lat="43.82844" lon="6.53136">
        <ele>1187.1</ele>
        <time>2021-06-27T09:41:53.000Z</time>
      </trkpt>
      <trkpt lat="43.82846" lon="6.53124">
        <ele>1188.3</ele>
        <time>2021-06-27T09:42:05.000Z</time>
      </trkpt>
      <trkpt lat="43.82843" lon="6.5311">
        <ele>1189.7</ele>
        <time>2021-06-27T09:42:14.000Z</time>
      </trkpt>
      <trkpt lat="43.82844" lon="6.53097">
        <ele>1190.8</ele>
        <time>2021-06-27T09:42:23.000Z</time>
      </trkpt>
      <trkpt lat="43.82848" lon="6.53084">
        <ele>1192</ele>
        <time>2021-06-27T09:42:33.000Z</time>
      </trkpt>
      <trkpt lat="43.82847" lon="6.53071">
        <ele>1193</ele>
        <time>2021-06-27T09:42:41.000Z</time>
      </trkpt>
      <trkpt lat="43.8285" lon="6.53057">
        <ele>1194.2</ele>
        <time>2021-06-27T09:42:51.000Z</time>
      </trkpt>
      <trkpt lat="43.82852" lon="6.53045">
        <ele>1195.3</ele>
        <time>2021-06-27T09:43:01.000Z</time>
      </trkpt>
      <trkpt lat="43.82853" lon="6.53032">
        <ele>1196.3</ele>
        <time>2021-06-27T09:43:10.000Z</time>
      </trkpt>
      <trkpt lat="43.82856" lon="6.53019">
        <ele>1197.7</ele>
        <time>2021-06-27T09:43:19.000Z</time>
      </trkpt>
      <trkpt lat="43.8286" lon="6.53005">
        <ele>1198.8</ele>
        <time>2021-06-27T09:43:30.000Z</time>
      </trkpt>
      <trkpt lat="43.82864" lon="6.52994">
        <ele>1200</ele>
        <time>2021-06-27T09:43:39.000Z</time>
      </trkpt>
      <trkpt lat="43.82863" lon="6.52981">
        <ele>1201</ele>
        <time>2021-06-27T09:43:48.000Z</time>
      </trkpt>
      <trkpt lat="43.82867" lon="6.52968">
        <ele>1202.1</ele>
        <time>2021-06-27T09:43:57.000Z</time>
      </trkpt>
      <trkpt lat="43.82858" lon="6.52969">
        <ele>1204</ele>
        <time>2021-06-27T09:44:10.000Z</time>
      </trkpt>
      <trkpt lat="43.8285" lon="6.52978">
        <ele>1206.2</ele>
        <time>2021-06-27T09:44:23.000Z</time>
      </trkpt>
      <trkpt lat="43.82844" lon="6.52988">
        <ele>1207.9</ele>
        <time>2021-06-27T09:44:43.000Z</time>
      </trkpt>
      <trkpt lat="43.82839" lon="6.53">
        <ele>1209.1</ele>
        <time>2021-06-27T09:44:56.000Z</time>
      </trkpt>
      <trkpt lat="43.82833" lon="6.5301">
        <ele>1210.6</ele>
        <time>2021-06-27T09:45:07.000Z</time>
      </trkpt>
      <trkpt lat="43.82828" lon="6.53021">
        <ele>1212.3</ele>
        <time>2021-06-27T09:45:17.000Z</time>
      </trkpt>
      <trkpt lat="43.82821" lon="6.53031">
        <ele>1214.4</ele>
        <time>2021-06-27T09:45:30.000Z</time>
      </trkpt>
      <trkpt lat="43.82817" lon="6.53043">
        <ele>1216</ele>
        <time>2021-06-27T09:45:40.000Z</time>
      </trkpt>
      <trkpt lat="43.8281" lon="6.53054">
        <ele>1217.5</ele>
        <time>2021-06-27T09:45:51.000Z</time>
      </trkpt>
      <trkpt lat="43.82806" lon="6.53065">
        <ele>1218.9</ele>
        <time>2021-06-27T09:46:03.000Z</time>
      </trkpt>
      <trkpt lat="43.82805" lon="6.53052">
        <ele>1222.9</ele>
        <time>2021-06-27T09:46:28.000Z</time>
      </trkpt>
      <trkpt lat="43.82795" lon="6.53055">
        <ele>1225.3</ele>
        <time>2021-06-27T09:46:45.000Z</time>
      </trkpt>
      <trkpt lat="43.82789" lon="6.53065">
        <ele>1227.3</ele>
        <time>2021-06-27T09:46:59.000Z</time>
      </trkpt>
      <trkpt lat="43.82786" lon="6.53078">
        <ele>1228.3</ele>
        <time>2021-06-27T09:47:08.000Z</time>
      </trkpt>
      <trkpt lat="43.82782" lon="6.5309">
        <ele>1229.6</ele>
        <time>2021-06-27T09:47:20.000Z</time>
      </trkpt>
      <trkpt lat="43.8278" lon="6.53103">
        <ele>1231</ele>
        <time>2021-06-27T09:47:31.000Z</time>
      </trkpt>
      <trkpt lat="43.82777" lon="6.53116">
        <ele>1232.4</ele>
        <time>2021-06-27T09:47:43.000Z</time>
      </trkpt>
      <trkpt lat="43.82771" lon="6.53126">
        <ele>1234.2</ele>
        <time>2021-06-27T09:47:58.000Z</time>
      </trkpt>
      <trkpt lat="43.82765" lon="6.53136">
        <ele>1235.7</ele>
        <time>2021-06-27T09:48:09.000Z</time>
      </trkpt>
      <trkpt lat="43.82757" lon="6.53141">
        <ele>1237.1</ele>
        <time>2021-06-27T09:48:17.000Z</time>
      </trkpt>
      <trkpt lat="43.8275" lon="6.53149">
        <ele>1239.1</ele>
        <time>2021-06-27T09:48:29.000Z</time>
      </trkpt>
      <trkpt lat="43.82741" lon="6.53151">
        <ele>1240.5</ele>
        <time>2021-06-27T09:48:40.000Z</time>
      </trkpt>
      <trkpt lat="43.82731" lon="6.53155">
        <ele>1242</ele>
        <time>2021-06-27T09:48:52.000Z</time>
      </trkpt>
      <trkpt lat="43.82724" lon="6.53162">
        <ele>1243.3</ele>
        <time>2021-06-27T09:49:02.000Z</time>
      </trkpt>
      <trkpt lat="43.82727" lon="6.5315">
        <ele>1246.6</ele>
        <time>2021-06-27T09:49:32.000Z</time>
      </trkpt>
      <trkpt lat="43.82733" lon="6.5314">
        <ele>1247.3</ele>
        <time>2021-06-27T09:49:41.000Z</time>
      </trkpt>
      <trkpt lat="43.8274" lon="6.5313">
        <ele>1247.9</ele>
        <time>2021-06-27T09:49:50.000Z</time>
      </trkpt>
      <trkpt lat="43.82743" lon="6.53118">
        <ele>1248.7</ele>
        <time>2021-06-27T09:49:58.000Z</time>
      </trkpt>
      <trkpt lat="43.82745" lon="6.53106">
        <ele>1250.2</ele>
        <time>2021-06-27T09:50:08.000Z</time>
      </trkpt>
      <trkpt lat="43.8274" lon="6.53093">
        <ele>1251.4</ele>
        <time>2021-06-27T09:50:15.000Z</time>
      </trkpt>
      <trkpt lat="43.82742" lon="6.5308">
        <ele>1252.6</ele>
        <time>2021-06-27T09:50:25.000Z</time>
      </trkpt>
      <trkpt lat="43.82747" lon="6.53069">
        <ele>1254</ele>
        <time>2021-06-27T09:50:35.000Z</time>
      </trkpt>
      <trkpt lat="43.82747" lon="6.53057">
        <ele>1254.9</ele>
        <time>2021-06-27T09:50:45.000Z</time>
      </trkpt>
      <trkpt lat="43.82745" lon="6.53044">
        <ele>1255.9</ele>
        <time>2021-06-27T09:50:55.000Z</time>
      </trkpt>
      <trkpt lat="43.82746" lon="6.53031">
        <ele>1256.8</ele>
        <time>2021-06-27T09:51:05.000Z</time>
      </trkpt>
      <trkpt lat="43.8275" lon="6.53019">
        <ele>1257.4</ele>
        <time>2021-06-27T09:51:13.000Z</time>
      </trkpt>
      <trkpt lat="43.82751" lon="6.53006">
        <ele>1258.6</ele>
        <time>2021-06-27T09:51:22.000Z</time>
      </trkpt>
      <trkpt lat="43.82751" lon="6.52993">
        <ele>1260.1</ele>
        <time>2021-06-27T09:51:33.000Z</time>
      </trkpt>
      <trkpt lat="43.82752" lon="6.5298">
        <ele>1261.3</ele>
        <time>2021-06-27T09:51:44.000Z</time>
      </trkpt>
      <trkpt lat="43.82752" lon="6.52967">
        <ele>1262.5</ele>
        <time>2021-06-27T09:51:56.000Z</time>
      </trkpt>
      <trkpt lat="43.82754" lon="6.52954">
        <ele>1264</ele>
        <time>2021-06-27T09:52:05.000Z</time>
      </trkpt>
      <trkpt lat="43.82756" lon="6.52942">
        <ele>1265.2</ele>
        <time>2021-06-27T09:52:13.000Z</time>
      </trkpt>
      <trkpt lat="43.82755" lon="6.52929">
        <ele>1266.5</ele>
        <time>2021-06-27T09:52:23.000Z</time>
      </trkpt>
      <trkpt lat="43.82746" lon="6.52928">
        <ele>1270.4</ele>
        <time>2021-06-27T09:52:48.000Z</time>
      </trkpt>
      <trkpt lat="43.82737" lon="6.52932">
        <ele>1273.2</ele>
        <time>2021-06-27T09:53:06.000Z</time>
      </trkpt>
      <trkpt lat="43.82729" lon="6.52941">
        <ele>1275</ele>
        <time>2021-06-27T09:53:20.000Z</time>
      </trkpt>
      <trkpt lat="43.82723" lon="6.52951">
        <ele>1276.1</ele>
        <time>2021-06-27T09:53:30.000Z</time>
      </trkpt>
      <trkpt lat="43.82716" lon="6.52959">
        <ele>1278.3</ele>
        <time>2021-06-27T09:53:44.000Z</time>
      </trkpt>
      <trkpt lat="43.82709" lon="6.52969">
        <ele>1280.7</ele>
        <time>2021-06-27T09:53:58.000Z</time>
      </trkpt>
      <trkpt lat="43.82702" lon="6.52978">
        <ele>1282.7</ele>
        <time>2021-06-27T09:54:11.000Z</time>
      </trkpt>
      <trkpt lat="43.82695" lon="6.52986">
        <ele>1285</ele>
        <time>2021-06-27T09:54:26.000Z</time>
      </trkpt>
      <trkpt lat="43.8269" lon="6.52996">
        <ele>1286.6</ele>
        <time>2021-06-27T09:54:38.000Z</time>
      </trkpt>
      <trkpt lat="43.82684" lon="6.53006">
        <ele>1287.8</ele>
        <time>2021-06-27T09:54:49.000Z</time>
      </trkpt>
      <trkpt lat="43.82676" lon="6.53013">
        <ele>1289.2</ele>
        <time>2021-06-27T09:54:59.000Z</time>
      </trkpt>
      <trkpt lat="43.82669" lon="6.53023">
        <ele>1289.8</ele>
        <time>2021-06-27T09:55:09.000Z</time>
      </trkpt>
      <trkpt lat="43.82661" lon="6.5303">
        <ele>1291.5</ele>
        <time>2021-06-27T09:55:24.000Z</time>
      </trkpt>
      <trkpt lat="43.82652" lon="6.53025">
        <ele>1294.4</ele>
        <time>2021-06-27T09:55:41.000Z</time>
      </trkpt>
      <trkpt lat="43.82644" lon="6.53021">
        <ele>1297.4</ele>
        <time>2021-06-27T09:56:00.000Z</time>
      </trkpt>
      <trkpt lat="43.82634" lon="6.53019">
        <ele>1299.5</ele>
        <time>2021-06-27T09:56:15.000Z</time>
      </trkpt>
      <trkpt lat="43.82625" lon="6.53019">
        <ele>1301.7</ele>
        <time>2021-06-27T09:56:31.000Z</time>
      </trkpt>
      <trkpt lat="43.82622" lon="6.53007">
        <ele>1305</ele>
        <time>2021-06-27T09:56:50.000Z</time>
      </trkpt>
      <trkpt lat="43.82613" lon="6.53004">
        <ele>1308</ele>
        <time>2021-06-27T09:57:12.000Z</time>
      </trkpt>
      <trkpt lat="43.82604" lon="6.52999">
        <ele>1310.3</ele>
        <time>2021-06-27T09:57:31.000Z</time>
      </trkpt>
      <trkpt lat="43.82595" lon="6.52998">
        <ele>1312</ele>
        <time>2021-06-27T09:57:44.000Z</time>
      </trkpt>
      <trkpt lat="43.82586" lon="6.52996">
        <ele>1313.9</ele>
        <time>2021-06-27T09:57:56.000Z</time>
      </trkpt>
      <trkpt lat="43.82577" lon="6.52996">
        <ele>1315.5</ele>
        <time>2021-06-27T09:58:09.000Z</time>
      </trkpt>
      <trkpt lat="43.82568" lon="6.53001">
        <ele>1316.5</ele>
        <time>2021-06-27T09:58:20.000Z</time>
      </trkpt>
      <trkpt lat="43.8256" lon="6.53009">
        <ele>1316.8</ele>
        <time>2021-06-27T09:58:29.000Z</time>
      </trkpt>
      <trkpt lat="43.82554" lon="6.53019">
        <ele>1317</ele>
        <time>2021-06-27T09:58:38.000Z</time>
      </trkpt>
      <trkpt lat="43.82548" lon="6.5303">
        <ele>1318.6</ele>
        <time>2021-06-27T10:22:57.000Z</time>
      </trkpt>
      <trkpt lat="43.82541" lon="6.53039">
        <ele>1318.5</ele>
        <time>2021-06-27T10:23:09.000Z</time>
      </trkpt>
      <trkpt lat="43.82533" lon="6.53046">
        <ele>1318.4</ele>
        <time>2021-06-27T10:23:23.000Z</time>
      </trkpt>
      <trkpt lat="43.82525" lon="6.53052">
        <ele>1317.8</ele>
        <time>2021-06-27T10:23:36.000Z</time>
      </trkpt>
      <trkpt lat="43.82519" lon="6.53061">
        <ele>1317.5</ele>
        <time>2021-06-27T10:23:48.000Z</time>
      </trkpt>
      <trkpt lat="43.82511" lon="6.53069">
        <ele>1317.3</ele>
        <time>2021-06-27T10:23:59.000Z</time>
      </trkpt>
      <trkpt lat="43.82503" lon="6.53075">
        <ele>1317.1</ele>
        <time>2021-06-27T10:24:11.000Z</time>
      </trkpt>
      <trkpt lat="43.82494" lon="6.53079">
        <ele>1317.9</ele>
        <time>2021-06-27T10:24:23.000Z</time>
      </trkpt>
      <trkpt lat="43.82488" lon="6.53089">
        <ele>1318.5</ele>
        <time>2021-06-27T10:24:33.000Z</time>
      </trkpt>
      <trkpt lat="43.82482" lon="6.53099">
        <ele>1318.8</ele>
        <time>2021-06-27T10:24:44.000Z</time>
      </trkpt>
      <trkpt lat="43.8248" lon="6.53111">
        <ele>1318.7</ele>
        <time>2021-06-27T10:24:56.000Z</time>
      </trkpt>
      <trkpt lat="43.82474" lon="6.53121">
        <ele>1318.2</ele>
        <time>2021-06-27T10:25:09.000Z</time>
      </trkpt>
      <trkpt lat="43.82468" lon="6.53132">
        <ele>1317.4</ele>
        <time>2021-06-27T10:25:22.000Z</time>
      </trkpt>
      <trkpt lat="43.8246" lon="6.53138">
        <ele>1316.7</ele>
        <time>2021-06-27T10:25:39.000Z</time>
      </trkpt>
      <trkpt lat="43.8245" lon="6.53139">
        <ele>1317.5</ele>
        <time>2021-06-27T10:25:49.000Z</time>
      </trkpt>
      <trkpt lat="43.82442" lon="6.53132">
        <ele>1319</ele>
        <time>2021-06-27T10:26:00.000Z</time>
      </trkpt>
      <trkpt lat="43.82433" lon="6.53133">
        <ele>1321.3</ele>
        <time>2021-06-27T10:26:12.000Z</time>
      </trkpt>
      <trkpt lat="43.82423" lon="6.53135">
        <ele>1323.5</ele>
        <time>2021-06-27T10:26:23.000Z</time>
      </trkpt>
      <trkpt lat="43.82414" lon="6.53131">
        <ele>1325.6</ele>
        <time>2021-06-27T10:26:35.000Z</time>
      </trkpt>
      <trkpt lat="43.82405" lon="6.53138">
        <ele>1327.4</ele>
        <time>2021-06-27T10:26:49.000Z</time>
      </trkpt>
      <trkpt lat="43.82397" lon="6.53144">
        <ele>1329.4</ele>
        <time>2021-06-27T10:27:03.000Z</time>
      </trkpt>
      <trkpt lat="43.8239" lon="6.53152">
        <ele>1331.3</ele>
        <time>2021-06-27T10:27:19.000Z</time>
      </trkpt>
      <trkpt lat="43.8238" lon="6.53155">
        <ele>1333.3</ele>
        <time>2021-06-27T10:27:33.000Z</time>
      </trkpt>
      <trkpt lat="43.82371" lon="6.53152">
        <ele>1334.8</ele>
        <time>2021-06-27T10:27:44.000Z</time>
      </trkpt>
      <trkpt lat="43.82363" lon="6.53158">
        <ele>1336</ele>
        <time>2021-06-27T10:27:57.000Z</time>
      </trkpt>
      <trkpt lat="43.82358" lon="6.53168">
        <ele>1336.7</ele>
        <time>2021-06-27T10:28:07.000Z</time>
      </trkpt>
      <trkpt lat="43.82353" lon="6.5318">
        <ele>1336.3</ele>
        <time>2021-06-27T10:28:19.000Z</time>
      </trkpt>
      <trkpt lat="43.82351" lon="6.53193">
        <ele>1335.4</ele>
        <time>2021-06-27T10:28:40.000Z</time>
      </trkpt>
      <trkpt lat="43.8235" lon="6.53206">
        <ele>1335.5</ele>
        <time>2021-06-27T10:28:51.000Z</time>
      </trkpt>
      <trkpt lat="43.82347" lon="6.53219">
        <ele>1335.3</ele>
        <time>2021-06-27T10:29:04.000Z</time>
      </trkpt>
      <trkpt lat="43.82341" lon="6.53229">
        <ele>1334</ele>
        <time>2021-06-27T10:29:13.000Z</time>
      </trkpt>
      <trkpt lat="43.82336" lon="6.5324">
        <ele>1332.4</ele>
        <time>2021-06-27T10:29:25.000Z</time>
      </trkpt>
      <trkpt lat="43.82329" lon="6.53249">
        <ele>1330.9</ele>
        <time>2021-06-27T10:30:04.000Z</time>
      </trkpt>
      <trkpt lat="43.82322" lon="6.53259">
        <ele>1329.9</ele>
        <time>2021-06-27T10:30:16.000Z</time>
      </trkpt>
      <trkpt lat="43.82315" lon="6.53269">
        <ele>1328.7</ele>
        <time>2021-06-27T10:30:26.000Z</time>
      </trkpt>
      <trkpt lat="43.8231" lon="6.53279">
        <ele>1327.9</ele>
        <time>2021-06-27T10:30:35.000Z</time>
      </trkpt>
      <trkpt lat="43.82314" lon="6.53291">
        <ele>1327.7</ele>
        <time>2021-06-27T10:30:46.000Z</time>
      </trkpt>
      <trkpt lat="43.82312" lon="6.53304">
        <ele>1327.9</ele>
        <time>2021-06-27T10:30:56.000Z</time>
      </trkpt>
      <trkpt lat="43.82305" lon="6.53313">
        <ele>1328.3</ele>
        <time>2021-06-27T10:31:07.000Z</time>
      </trkpt>
      <trkpt lat="43.82305" lon="6.53326">
        <ele>1330.6</ele>
        <time>2021-06-27T10:31:21.000Z</time>
      </trkpt>
      <trkpt lat="43.82304" lon="6.53338">
        <ele>1332.3</ele>
        <time>2021-06-27T10:31:34.000Z</time>
      </trkpt>
      <trkpt lat="43.82309" lon="6.53349">
        <ele>1333.5</ele>
        <time>2021-06-27T10:31:44.000Z</time>
      </trkpt>
      <trkpt lat="43.82315" lon="6.5336">
        <ele>1334.4</ele>
        <time>2021-06-27T10:31:57.000Z</time>
      </trkpt>
      <trkpt lat="43.82318" lon="6.53372">
        <ele>1336.1</ele>
        <time>2021-06-27T10:32:12.000Z</time>
      </trkpt>
      <trkpt lat="43.82315" lon="6.53383">
        <ele>1339.3</ele>
        <time>2021-06-27T10:32:33.000Z</time>
      </trkpt>
      <trkpt lat="43.82311" lon="6.53395">
        <ele>1342.6</ele>
        <time>2021-06-27T10:32:54.000Z</time>
      </trkpt>
      <trkpt lat="43.82307" lon="6.53407">
        <ele>1346.2</ele>
        <time>2021-06-27T10:33:17.000Z</time>
      </trkpt>
      <trkpt lat="43.82302" lon="6.53417">
        <ele>1352</ele>
        <time>2021-06-27T10:33:54.000Z</time>
      </trkpt>
      <trkpt lat="43.82293" lon="6.53423">
        <ele>1355</ele>
        <time>2021-06-27T10:34:16.000Z</time>
      </trkpt>
      <trkpt lat="43.82288" lon="6.53434">
        <ele>1357.9</ele>
        <time>2021-06-27T10:36:05.000Z</time>
      </trkpt>
      <trkpt lat="43.82285" lon="6.53446">
        <ele>1356.8</ele>
        <time>2021-06-27T10:36:17.000Z</time>
      </trkpt>
      <trkpt lat="43.82282" lon="6.53459">
        <ele>1355.7</ele>
        <time>2021-06-27T10:36:29.000Z</time>
      </trkpt>
      <trkpt lat="43.82279" lon="6.53471">
        <ele>1354.6</ele>
        <time>2021-06-27T10:36:42.000Z</time>
      </trkpt>
      <trkpt lat="43.82282" lon="6.53483">
        <ele>1351.9</ele>
        <time>2021-06-27T10:37:06.000Z</time>
      </trkpt>
      <trkpt lat="43.82274" lon="6.5349">
        <ele>1348.5</ele>
        <time>2021-06-27T10:37:48.000Z</time>
      </trkpt>
      <trkpt lat="43.8227" lon="6.53501">
        <ele>1344.8</ele>
        <time>2021-06-27T10:38:36.000Z</time>
      </trkpt>
      <trkpt lat="43.82273" lon="6.53513">
        <ele>1342.4</ele>
        <time>2021-06-27T10:39:01.000Z</time>
      </trkpt>
      <trkpt lat="43.82272" lon="6.53525">
        <ele>1346.9</ele>
        <time>2021-06-27T10:40:00.000Z</time>
      </trkpt>
      <trkpt lat="43.82266" lon="6.53535">
        <ele>1347.5</ele>
        <time>2021-06-27T10:40:22.000Z</time>
      </trkpt>
      <trkpt lat="43.82261" lon="6.53546">
        <ele>1344.4</ele>
        <time>2021-06-27T10:40:39.000Z</time>
      </trkpt>
      <trkpt lat="43.82257" lon="6.53557">
        <ele>1344.2</ele>
        <time>2021-06-27T10:40:56.000Z</time>
      </trkpt>
      <trkpt lat="43.82255" lon="6.5357">
        <ele>1344.2</ele>
        <time>2021-06-27T10:41:13.000Z</time>
      </trkpt>
      <trkpt lat="43.82247" lon="6.53577">
        <ele>1344.2</ele>
        <time>2021-06-27T10:41:26.000Z</time>
      </trkpt>
      <trkpt lat="43.82241" lon="6.53588">
        <ele>1344.3</ele>
        <time>2021-06-27T10:41:37.000Z</time>
      </trkpt>
      <trkpt lat="43.82238" lon="6.536">
        <ele>1343.3</ele>
        <time>2021-06-27T10:41:51.000Z</time>
      </trkpt>
      <trkpt lat="43.82237" lon="6.53613">
        <ele>1340.3</ele>
        <time>2021-06-27T10:42:20.000Z</time>
      </trkpt>
      <trkpt lat="43.82233" lon="6.53625">
        <ele>1339.6</ele>
        <time>2021-06-27T10:42:40.000Z</time>
      </trkpt>
      <trkpt lat="43.82234" lon="6.53638">
        <ele>1342.9</ele>
        <time>2021-06-27T10:43:08.000Z</time>
      </trkpt>
      <trkpt lat="43.82235" lon="6.5365">
        <ele>1344.6</ele>
        <time>2021-06-27T10:43:28.000Z</time>
      </trkpt>
      <trkpt lat="43.82227" lon="6.53645">
        <ele>1351.1</ele>
        <time>2021-06-27T10:44:17.000Z</time>
      </trkpt>
      <trkpt lat="43.82218" lon="6.53644">
        <ele>1354</ele>
        <time>2021-06-27T10:45:53.000Z</time>
      </trkpt>
      <trkpt lat="43.82218" lon="6.53657">
        <ele>1358.4</ele>
        <time>2021-06-27T11:29:07.000Z</time>
      </trkpt>
      <trkpt lat="43.8222" lon="6.53669">
        <ele>1356.6</ele>
        <time>2021-06-27T11:29:35.000Z</time>
      </trkpt>
      <trkpt lat="43.82217" lon="6.53681">
        <ele>1356.1</ele>
        <time>2021-06-27T11:31:12.000Z</time>
      </trkpt>
      <trkpt lat="43.82216" lon="6.53693">
        <ele>1354.6</ele>
        <time>2021-06-27T11:31:30.000Z</time>
      </trkpt>
      <trkpt lat="43.82217" lon="6.53706">
        <ele>1352.9</ele>
        <time>2021-06-27T11:31:50.000Z</time>
      </trkpt>
      <trkpt lat="43.82215" lon="6.53719">
        <ele>1351.4</ele>
        <time>2021-06-27T11:32:11.000Z</time>
      </trkpt>
      <trkpt lat="43.82216" lon="6.53731">
        <ele>1349.5</ele>
        <time>2021-06-27T11:32:37.000Z</time>
      </trkpt>
      <trkpt lat="43.82212" lon="6.53743">
        <ele>1349.3</ele>
        <time>2021-06-27T11:32:51.000Z</time>
      </trkpt>
      <trkpt lat="43.82207" lon="6.53755">
        <ele>1349.4</ele>
        <time>2021-06-27T11:33:09.000Z</time>
      </trkpt>
      <trkpt lat="43.82205" lon="6.53767">
        <ele>1348.8</ele>
        <time>2021-06-27T11:33:23.000Z</time>
      </trkpt>
      <trkpt lat="43.82201" lon="6.53778">
        <ele>1348.8</ele>
        <time>2021-06-27T11:34:04.000Z</time>
      </trkpt>
      <trkpt lat="43.82193" lon="6.53786">
        <ele>1349.2</ele>
        <time>2021-06-27T11:34:24.000Z</time>
      </trkpt>
      <trkpt lat="43.82192" lon="6.53799">
        <ele>1349</ele>
        <time>2021-06-27T11:34:38.000Z</time>
      </trkpt>
      <trkpt lat="43.82188" lon="6.5381">
        <ele>1348.3</ele>
        <time>2021-06-27T11:34:52.000Z</time>
      </trkpt>
      <trkpt lat="43.82182" lon="6.5382">
        <ele>1347.6</ele>
        <time>2021-06-27T11:35:07.000Z</time>
      </trkpt>
      <trkpt lat="43.82176" lon="6.5383">
        <ele>1346.4</ele>
        <time>2021-06-27T11:35:33.000Z</time>
      </trkpt>
      <trkpt lat="43.82176" lon="6.53843">
        <ele>1348.2</ele>
        <time>2021-06-27T11:36:06.000Z</time>
      </trkpt>
      <trkpt lat="43.82173" lon="6.53856">
        <ele>1346.7</ele>
        <time>2021-06-27T11:36:23.000Z</time>
      </trkpt>
      <trkpt lat="43.82168" lon="6.53866">
        <ele>1345.9</ele>
        <time>2021-06-27T11:36:38.000Z</time>
      </trkpt>
      <trkpt lat="43.82165" lon="6.53878">
        <ele>1344.7</ele>
        <time>2021-06-27T11:36:57.000Z</time>
      </trkpt>
      <trkpt lat="43.82162" lon="6.5389">
        <ele>1343.6</ele>
        <time>2021-06-27T11:37:17.000Z</time>
      </trkpt>
      <trkpt lat="43.82164" lon="6.53902">
        <ele>1341.2</ele>
        <time>2021-06-27T11:37:40.000Z</time>
      </trkpt>
      <trkpt lat="43.82158" lon="6.53913">
        <ele>1339.9</ele>
        <time>2021-06-27T11:37:53.000Z</time>
      </trkpt>
      <trkpt lat="43.82154" lon="6.53924">
        <ele>1341</ele>
        <time>2021-06-27T11:38:37.000Z</time>
      </trkpt>
      <trkpt lat="43.82145" lon="6.53926">
        <ele>1344.3</ele>
        <time>2021-06-27T11:39:22.000Z</time>
      </trkpt>
      <trkpt lat="43.82141" lon="6.53938">
        <ele>1346.9</ele>
        <time>2021-06-27T11:39:55.000Z</time>
      </trkpt>
      <trkpt lat="43.82143" lon="6.5395">
        <ele>1346</ele>
        <time>2021-06-27T11:40:15.000Z</time>
      </trkpt>
      <trkpt lat="43.82138" lon="6.53961">
        <ele>1345.8</ele>
        <time>2021-06-27T11:40:29.000Z</time>
      </trkpt>
      <trkpt lat="43.82134" lon="6.53973">
        <ele>1346.4</ele>
        <time>2021-06-27T11:40:40.000Z</time>
      </trkpt>
      <trkpt lat="43.82131" lon="6.53984">
        <ele>1347.4</ele>
        <time>2021-06-27T11:41:32.000Z</time>
      </trkpt>
      <trkpt lat="43.82128" lon="6.53997">
        <ele>1346.7</ele>
        <time>2021-06-27T11:41:52.000Z</time>
      </trkpt>
      <trkpt lat="43.82123" lon="6.54007">
        <ele>1347.1</ele>
        <time>2021-06-27T11:42:11.000Z</time>
      </trkpt>
      <trkpt lat="43.82119" lon="6.54018">
        <ele>1348</ele>
        <time>2021-06-27T11:42:26.000Z</time>
      </trkpt>
      <trkpt lat="43.82117" lon="6.54031">
        <ele>1347.2</ele>
        <time>2021-06-27T11:42:39.000Z</time>
      </trkpt>
      <trkpt lat="43.82114" lon="6.54044">
        <ele>1346</ele>
        <time>2021-06-27T11:42:55.000Z</time>
      </trkpt>
      <trkpt lat="43.82113" lon="6.54056">
        <ele>1344.7</ele>
        <time>2021-06-27T11:43:21.000Z</time>
      </trkpt>
      <trkpt lat="43.82113" lon="6.54069">
        <ele>1342.5</ele>
        <time>2021-06-27T11:43:44.000Z</time>
      </trkpt>
      <trkpt lat="43.82107" lon="6.54079">
        <ele>1340.9</ele>
        <time>2021-06-27T11:44:07.000Z</time>
      </trkpt>
      <trkpt lat="43.82102" lon="6.5409">
        <ele>1340.8</ele>
        <time>2021-06-27T11:44:42.000Z</time>
      </trkpt>
      <trkpt lat="43.821" lon="6.54103">
        <ele>1339.9</ele>
        <time>2021-06-27T11:44:58.000Z</time>
      </trkpt>
      <trkpt lat="43.82094" lon="6.54112">
        <ele>1336.7</ele>
        <time>2021-06-27T11:45:55.000Z</time>
      </trkpt>
      <trkpt lat="43.82087" lon="6.5412">
        <ele>1337.3</ele>
        <time>2021-06-27T11:46:36.000Z</time>
      </trkpt>
      <trkpt lat="43.82082" lon="6.54132">
        <ele>1334.8</ele>
        <time>2021-06-27T11:47:06.000Z</time>
      </trkpt>
      <trkpt lat="43.8208" lon="6.54144">
        <ele>1333.1</ele>
        <time>2021-06-27T11:47:26.000Z</time>
      </trkpt>
      <trkpt lat="43.82076" lon="6.54156">
        <ele>1331.9</ele>
        <time>2021-06-27T11:47:43.000Z</time>
      </trkpt>
      <trkpt lat="43.82077" lon="6.54169">
        <ele>1329.2</ele>
        <time>2021-06-27T11:48:14.000Z</time>
      </trkpt>
      <trkpt lat="43.82073" lon="6.5418">
        <ele>1327.6</ele>
        <time>2021-06-27T11:49:09.000Z</time>
      </trkpt>
      <trkpt lat="43.8207" lon="6.54192">
        <ele>1328.1</ele>
        <time>2021-06-27T11:49:50.000Z</time>
      </trkpt>
      <trkpt lat="43.82068" lon="6.54204">
        <ele>1326.8</ele>
        <time>2021-06-27T11:50:35.000Z</time>
      </trkpt>
      <trkpt lat="43.82067" lon="6.54217">
        <ele>1320.4</ele>
        <time>2021-06-27T11:51:40.000Z</time>
      </trkpt>
      <trkpt lat="43.82064" lon="6.54228">
        <ele>1318</ele>
        <time>2021-06-27T11:52:00.000Z</time>
      </trkpt>
      <trkpt lat="43.82057" lon="6.54237">
        <ele>1321.6</ele>
        <time>2021-06-27T11:53:37.000Z</time>
      </trkpt>
      <trkpt lat="43.82049" lon="6.54245">
        <ele>1325.5</ele>
        <time>2021-06-27T11:54:34.000Z</time>
      </trkpt>
      <trkpt lat="43.82046" lon="6.54257">
        <ele>1327.3</ele>
        <time>2021-06-27T11:55:16.000Z</time>
      </trkpt>
      <trkpt lat="43.82044" lon="6.5427">
        <ele>1326.3</ele>
        <time>2021-06-27T11:55:35.000Z</time>
      </trkpt>
      <trkpt lat="43.82046" lon="6.54283">
        <ele>1324.7</ele>
        <time>2021-06-27T11:55:54.000Z</time>
      </trkpt>
      <trkpt lat="43.82043" lon="6.54295">
        <ele>1322.9</ele>
        <time>2021-06-27T11:56:07.000Z</time>
      </trkpt>
      <trkpt lat="43.82041" lon="6.54308">
        <ele>1321.4</ele>
        <time>2021-06-27T11:56:23.000Z</time>
      </trkpt>
      <trkpt lat="43.82036" lon="6.54318">
        <ele>1319.1</ele>
        <time>2021-06-27T11:56:49.000Z</time>
      </trkpt>
      <trkpt lat="43.82034" lon="6.54331">
        <ele>1317.2</ele>
        <time>2021-06-27T11:57:16.000Z</time>
      </trkpt>
      <trkpt lat="43.82028" lon="6.54341">
        <ele>1316.9</ele>
        <time>2021-06-27T11:59:23.000Z</time>
      </trkpt>
      <trkpt lat="43.82019" lon="6.5434">
        <ele>1314.8</ele>
        <time>2021-06-27T12:00:03.000Z</time>
      </trkpt>
      <trkpt lat="43.82011" lon="6.54333">
        <ele>1316.3</ele>
        <time>2021-06-27T12:00:34.000Z</time>
      </trkpt>
      <trkpt lat="43.82004" lon="6.5434">
        <ele>1316.3</ele>
        <time>2021-06-27T12:00:46.000Z</time>
      </trkpt>
      <trkpt lat="43.81995" lon="6.54338">
        <ele>1315.9</ele>
        <time>2021-06-27T12:01:08.000Z</time>
      </trkpt>
      <trkpt lat="43.81987" lon="6.54346">
        <ele>1315.6</ele>
        <time>2021-06-27T12:01:39.000Z</time>
      </trkpt>
      <trkpt lat="43.81992" lon="6.54357">
        <ele>1314.2</ele>
        <time>2021-06-27T12:02:34.000Z</time>
      </trkpt>
      <trkpt lat="43.81994" lon="6.5437">
        <ele>1312.5</ele>
        <time>2021-06-27T12:02:55.000Z</time>
      </trkpt>
      <trkpt lat="43.81996" lon="6.54383">
        <ele>1309.9</ele>
        <time>2021-06-27T12:03:13.000Z</time>
      </trkpt>
      <trkpt lat="43.81998" lon="6.54395">
        <ele>1306.8</ele>
        <time>2021-06-27T12:03:39.000Z</time>
      </trkpt>
      <trkpt lat="43.81995" lon="6.54406">
        <ele>1303.3</ele>
        <time>2021-06-27T12:04:46.000Z</time>
      </trkpt>
      <trkpt lat="43.81994" lon="6.54419">
        <ele>1301.8</ele>
        <time>2021-06-27T12:05:02.000Z</time>
      </trkpt>
      <trkpt lat="43.81992" lon="6.54431">
        <ele>1298.8</ele>
        <time>2021-06-27T12:05:24.000Z</time>
      </trkpt>
      <trkpt lat="43.81986" lon="6.54442">
        <ele>1296.6</ele>
        <time>2021-06-27T12:05:44.000Z</time>
      </trkpt>
      <trkpt lat="43.81985" lon="6.54454">
        <ele>1294.3</ele>
        <time>2021-06-27T12:06:09.000Z</time>
      </trkpt>
      <trkpt lat="43.81987" lon="6.54466">
        <ele>1290.5</ele>
        <time>2021-06-27T12:06:46.000Z</time>
      </trkpt>
      <trkpt lat="43.81986" lon="6.54479">
        <ele>1288.5</ele>
        <time>2021-06-27T12:07:09.000Z</time>
      </trkpt>
      <trkpt lat="43.81988" lon="6.54492">
        <ele>1285.1</ele>
        <time>2021-06-27T12:07:33.000Z</time>
      </trkpt>
      <trkpt lat="43.81986" lon="6.54504">
        <ele>1281.2</ele>
        <time>2021-06-27T12:08:13.000Z</time>
      </trkpt>
      <trkpt lat="43.81987" lon="6.54517">
        <ele>1277.3</ele>
        <time>2021-06-27T12:08:55.000Z</time>
      </trkpt>
      <trkpt lat="43.81988" lon="6.5453">
        <ele>1274.9</ele>
        <time>2021-06-27T12:09:19.000Z</time>
      </trkpt>
      <trkpt lat="43.81988" lon="6.54542">
        <ele>1271</ele>
        <time>2021-06-27T12:09:58.000Z</time>
      </trkpt>
      <trkpt lat="43.8198" lon="6.5455">
        <ele>1268.4</ele>
        <time>2021-06-27T12:10:56.000Z</time>
      </trkpt>
      <trkpt lat="43.81971" lon="6.54553">
        <ele>1263.8</ele>
        <time>2021-06-27T12:12:03.000Z</time>
      </trkpt>
      <trkpt lat="43.81969" lon="6.54565">
        <ele>1261.4</ele>
        <time>2021-06-27T12:12:37.000Z</time>
      </trkpt>
      <trkpt lat="43.81961" lon="6.54573">
        <ele>1255.8</ele>
        <time>2021-06-27T12:18:04.000Z</time>
      </trkpt>
      <trkpt lat="43.81957" lon="6.54584">
        <ele>1251.5</ele>
        <time>2021-06-27T12:19:11.000Z</time>
      </trkpt>
      <trkpt lat="43.81953" lon="6.54596">
        <ele>1248.8</ele>
        <time>2021-06-27T12:19:38.000Z</time>
      </trkpt>
      <trkpt lat="43.81943" lon="6.54595">
        <ele>1246.2</ele>
        <time>2021-06-27T12:20:09.000Z</time>
      </trkpt>
      <trkpt lat="43.81938" lon="6.54605">
        <ele>1243.1</ele>
        <time>2021-06-27T12:20:33.000Z</time>
      </trkpt>
      <trkpt lat="43.81934" lon="6.54617">
        <ele>1239</ele>
        <time>2021-06-27T12:21:16.000Z</time>
      </trkpt>
      <trkpt lat="43.81927" lon="6.54625">
        <ele>1234.2</ele>
        <time>2021-06-27T12:22:00.000Z</time>
      </trkpt>
      <trkpt lat="43.81918" lon="6.54628">
        <ele>1231.4</ele>
        <time>2021-06-27T12:22:28.000Z</time>
      </trkpt>
      <trkpt lat="43.81917" lon="6.54641">
        <ele>1228</ele>
        <time>2021-06-27T12:23:02.000Z</time>
      </trkpt>
      <trkpt lat="43.8191" lon="6.54651">
        <ele>1224.6</ele>
        <time>2021-06-27T12:23:28.000Z</time>
      </trkpt>
      <trkpt lat="43.81906" lon="6.54662">
        <ele>1220.8</ele>
        <time>2021-06-27T12:23:56.000Z</time>
      </trkpt>
      <trkpt lat="43.81903" lon="6.54674">
        <ele>1216.3</ele>
        <time>2021-06-27T12:24:27.000Z</time>
      </trkpt>
      <trkpt lat="43.819" lon="6.54686">
        <ele>1211.8</ele>
        <time>2021-06-27T12:24:52.000Z</time>
      </trkpt>
      <trkpt lat="43.81898" lon="6.54698">
        <ele>1207.8</ele>
        <time>2021-06-27T12:25:25.000Z</time>
      </trkpt>
      <trkpt lat="43.819" lon="6.54711">
        <ele>1204.8</ele>
        <time>2021-06-27T12:25:48.000Z</time>
      </trkpt>
      <trkpt lat="43.81899" lon="6.54724">
        <ele>1199.4</ele>
        <time>2021-06-27T12:26:32.000Z</time>
      </trkpt>
      <trkpt lat="43.81901" lon="6.54737">
        <ele>1195.9</ele>
        <time>2021-06-27T12:26:59.000Z</time>
      </trkpt>
      <trkpt lat="43.81896" lon="6.54748">
        <ele>1191</ele>
        <time>2021-06-27T12:28:30.000Z</time>
      </trkpt>
      <trkpt lat="43.81888" lon="6.54753">
        <ele>1187</ele>
        <time>2021-06-27T12:29:04.000Z</time>
      </trkpt>
      <trkpt lat="43.81883" lon="6.54764">
        <ele>1181.9</ele>
        <time>2021-06-27T12:29:53.000Z</time>
      </trkpt>
      <trkpt lat="43.81882" lon="6.54776">
        <ele>1177.6</ele>
        <time>2021-06-27T12:30:20.000Z</time>
      </trkpt>
      <trkpt lat="43.81883" lon="6.5479">
        <ele>1173.6</ele>
        <time>2021-06-27T12:31:24.000Z</time>
      </trkpt>
      <trkpt lat="43.81875" lon="6.54797">
        <ele>1170.5</ele>
        <time>2021-06-27T12:32:02.000Z</time>
      </trkpt>
      <trkpt lat="43.81874" lon="6.5481">
        <ele>1166.1</ele>
        <time>2021-06-27T12:32:32.000Z</time>
      </trkpt>
      <trkpt lat="43.81874" lon="6.54823">
        <ele>1161.2</ele>
        <time>2021-06-27T12:33:14.000Z</time>
      </trkpt>
      <trkpt lat="43.81872" lon="6.54835">
        <ele>1156.1</ele>
        <time>2021-06-27T12:33:59.000Z</time>
      </trkpt>
      <trkpt lat="43.81864" lon="6.5484">
        <ele>1151.2</ele>
        <time>2021-06-27T12:34:30.000Z</time>
      </trkpt>
      <trkpt lat="43.81857" lon="6.54848">
        <ele>1146.6</ele>
        <time>2021-06-27T12:35:13.000Z</time>
      </trkpt>
      <trkpt lat="43.81851" lon="6.54858">
        <ele>1139.9</ele>
        <time>2021-06-27T12:36:49.000Z</time>
      </trkpt>
      <trkpt lat="43.81842" lon="6.54855">
        <ele>1134.1</ele>
        <time>2021-06-27T12:38:16.000Z</time>
      </trkpt>
      <trkpt lat="43.81835" lon="6.54847">
        <ele>1131.2</ele>
        <time>2021-06-27T12:39:19.000Z</time>
      </trkpt>
      <trkpt lat="43.8183" lon="6.54857">
        <ele>1127.2</ele>
        <time>2021-06-27T12:40:11.000Z</time>
      </trkpt>
      <trkpt lat="43.81822" lon="6.54863">
        <ele>1122.2</ele>
        <time>2021-06-27T12:41:17.000Z</time>
      </trkpt>
      <trkpt lat="43.81812" lon="6.54863">
        <ele>1120.3</ele>
        <time>2021-06-27T12:41:58.000Z</time>
      </trkpt>
      <trkpt lat="43.81804" lon="6.54866">
        <ele>1116.2</ele>
        <time>2021-06-27T12:42:44.000Z</time>
      </trkpt>
      <trkpt lat="43.81795" lon="6.5487">
        <ele>1112</ele>
        <time>2021-06-27T12:43:43.000Z</time>
      </trkpt>
      <trkpt lat="43.81789" lon="6.5488">
        <ele>1107.6</ele>
        <time>2021-06-27T12:44:44.000Z</time>
      </trkpt>
      <trkpt lat="43.8178" lon="6.54883">
        <ele>1104.9</ele>
        <time>2021-06-27T12:45:09.000Z</time>
      </trkpt>
      <trkpt lat="43.81771" lon="6.54883">
        <ele>1101.2</ele>
        <time>2021-06-27T12:46:19.000Z</time>
      </trkpt>
      <trkpt lat="43.81767" lon="6.54894">
        <ele>1096.5</ele>
        <time>2021-06-27T12:47:47.000Z</time>
      </trkpt>
      <trkpt lat="43.81758" lon="6.54899">
        <ele>1092.4</ele>
        <time>2021-06-27T12:48:20.000Z</time>
      </trkpt>
      <trkpt lat="43.81749" lon="6.54901">
        <ele>1089.9</ele>
        <time>2021-06-27T12:48:38.000Z</time>
      </trkpt>
      <trkpt lat="43.8174" lon="6.54902">
        <ele>1089.1</ele>
        <time>2021-06-27T12:48:52.000Z</time>
      </trkpt>
      <trkpt lat="43.81731" lon="6.54902">
        <ele>1087.4</ele>
        <time>2021-06-27T12:49:15.000Z</time>
      </trkpt>
      <trkpt lat="43.81721" lon="6.54902">
        <ele>1087.1</ele>
        <time>2021-06-27T12:49:27.000Z</time>
      </trkpt>
      <trkpt lat="43.81712" lon="6.54899">
        <ele>1087</ele>
        <time>2021-06-27T12:49:38.000Z</time>
      </trkpt>
      <trkpt lat="43.81703" lon="6.54899">
        <ele>1086.7</ele>
        <time>2021-06-27T12:49:48.000Z</time>
      </trkpt>
      <trkpt lat="43.81699" lon="6.5491">
        <ele>1085.9</ele>
        <time>2021-06-27T12:50:19.000Z</time>
      </trkpt>
      <trkpt lat="43.81697" lon="6.54923">
        <ele>1083.8</ele>
        <time>2021-06-27T12:50:39.000Z</time>
      </trkpt>
      <trkpt lat="43.81688" lon="6.54927">
        <ele>1084</ele>
        <time>2021-06-27T12:50:56.000Z</time>
      </trkpt>
      <trkpt lat="43.81679" lon="6.5493">
        <ele>1084.1</ele>
        <time>2021-06-27T12:51:12.000Z</time>
      </trkpt>
      <trkpt lat="43.8167" lon="6.5493">
        <ele>1083.3</ele>
        <time>2021-06-27T12:51:25.000Z</time>
      </trkpt>
      <trkpt lat="43.81661" lon="6.54936">
        <ele>1082.5</ele>
        <time>2021-06-27T12:51:37.000Z</time>
      </trkpt>
      <trkpt lat="43.81652" lon="6.54934">
        <ele>1079.8</ele>
        <time>2021-06-27T12:54:35.000Z</time>
      </trkpt>
      <trkpt lat="43.81644" lon="6.5494">
        <ele>1078.8</ele>
        <time>2021-06-27T12:54:50.000Z</time>
      </trkpt>
      <trkpt lat="43.81638" lon="6.54951">
        <ele>1078.1</ele>
        <time>2021-06-27T12:55:24.000Z</time>
      </trkpt>
      <trkpt lat="43.81629" lon="6.54955">
        <ele>1077.4</ele>
        <time>2021-06-27T12:55:35.000Z</time>
      </trkpt>
      <trkpt lat="43.8162" lon="6.54953">
        <ele>1075.5</ele>
        <time>2021-06-27T12:55:52.000Z</time>
      </trkpt>
      <trkpt lat="43.81611" lon="6.54953">
        <ele>1072.9</ele>
        <time>2021-06-27T12:56:12.000Z</time>
      </trkpt>
      <trkpt lat="43.81604" lon="6.54961">
        <ele>1069.7</ele>
        <time>2021-06-27T12:57:22.000Z</time>
      </trkpt>
      <trkpt lat="43.81599" lon="6.54971">
        <ele>1070.6</ele>
        <time>2021-06-27T12:57:36.000Z</time>
      </trkpt>
      <trkpt lat="43.81593" lon="6.54982">
        <ele>1070.3</ele>
        <time>2021-06-27T12:57:49.000Z</time>
      </trkpt>
      <trkpt lat="43.81587" lon="6.54991">
        <ele>1071.6</ele>
        <time>2021-06-27T12:58:11.000Z</time>
      </trkpt>
      <trkpt lat="43.81591" lon="6.55003">
        <ele>1073.3</ele>
        <time>2021-06-27T12:58:38.000Z</time>
      </trkpt>
      <trkpt lat="43.8159" lon="6.55015">
        <ele>1077.1</ele>
        <time>2021-06-27T12:58:58.000Z</time>
      </trkpt>
      <trkpt lat="43.81583" lon="6.55024">
        <ele>1080.7</ele>
        <time>2021-06-27T12:59:21.000Z</time>
      </trkpt>
      <trkpt lat="43.81589" lon="6.55013">
        <ele>1079.8</ele>
        <time>2021-06-27T13:01:00.000Z</time>
      </trkpt>
      <trkpt lat="43.81592" lon="6.55">
        <ele>1078.8</ele>
        <time>2021-06-27T13:01:09.000Z</time>
      </trkpt>
      <trkpt lat="43.81599" lon="6.54991">
        <ele>1076.9</ele>
        <time>2021-06-27T13:01:21.000Z</time>
      </trkpt>
      <trkpt lat="43.81599" lon="6.54979">
        <ele>1075.1</ele>
        <time>2021-06-27T13:01:33.000Z</time>
      </trkpt>
      <trkpt lat="43.81601" lon="6.54966">
        <ele>1073.2</ele>
        <time>2021-06-27T13:01:46.000Z</time>
      </trkpt>
      <trkpt lat="43.81602" lon="6.54953">
        <ele>1069.9</ele>
        <time>2021-06-27T13:03:47.000Z</time>
      </trkpt>
      <trkpt lat="43.81594" lon="6.54948">
        <ele>1066.4</ele>
        <time>2021-06-27T13:04:09.000Z</time>
      </trkpt>
      <trkpt lat="43.81585" lon="6.54942">
        <ele>1063.3</ele>
        <time>2021-06-27T13:04:29.000Z</time>
      </trkpt>
      <trkpt lat="43.81576" lon="6.54938">
        <ele>1060.7</ele>
        <time>2021-06-27T13:04:45.000Z</time>
      </trkpt>
      <trkpt lat="43.81569" lon="6.54932">
        <ele>1056.6</ele>
        <time>2021-06-27T13:05:06.000Z</time>
      </trkpt>
      <trkpt lat="43.8156" lon="6.54933">
        <ele>1053.9</ele>
        <time>2021-06-27T13:06:16.000Z</time>
      </trkpt>
      <trkpt lat="43.8155" lon="6.54933">
        <ele>1050.1</ele>
        <time>2021-06-27T13:06:42.000Z</time>
      </trkpt>
      <trkpt lat="43.81542" lon="6.54936">
        <ele>1045.8</ele>
        <time>2021-06-27T13:07:11.000Z</time>
      </trkpt>
      <trkpt lat="43.81532" lon="6.54935">
        <ele>1041.1</ele>
        <time>2021-06-27T13:07:37.000Z</time>
      </trkpt>
      <trkpt lat="43.81523" lon="6.54934">
        <ele>1037.4</ele>
        <time>2021-06-27T13:07:58.000Z</time>
      </trkpt>
      <trkpt lat="43.81514" lon="6.54929">
        <ele>1033</ele>
        <time>2021-06-27T13:08:26.000Z</time>
      </trkpt>
      <trkpt lat="43.81505" lon="6.5493">
        <ele>1030.4</ele>
        <time>2021-06-27T13:08:42.000Z</time>
      </trkpt>
      <trkpt lat="43.81496" lon="6.54933">
        <ele>1026.8</ele>
        <time>2021-06-27T13:09:09.000Z</time>
      </trkpt>
      <trkpt lat="43.81488" lon="6.5494">
        <ele>1024.9</ele>
        <time>2021-06-27T13:09:25.000Z</time>
      </trkpt>
      <trkpt lat="43.81479" lon="6.54942">
        <ele>1021.7</ele>
        <time>2021-06-27T13:09:48.000Z</time>
      </trkpt>
      <trkpt lat="43.81473" lon="6.54952">
        <ele>1019.2</ele>
        <time>2021-06-27T13:10:01.000Z</time>
      </trkpt>
      <trkpt lat="43.81465" lon="6.54961">
        <ele>1017.6</ele>
        <time>2021-06-27T13:10:13.000Z</time>
      </trkpt>
      <trkpt lat="43.81459" lon="6.54971">
        <ele>1015.7</ele>
        <time>2021-06-27T13:10:29.000Z</time>
      </trkpt>
      <trkpt lat="43.81452" lon="6.5498">
        <ele>1012.6</ele>
        <time>2021-06-27T13:10:48.000Z</time>
      </trkpt>
      <trkpt lat="43.81449" lon="6.54992">
        <ele>1010.1</ele>
        <time>2021-06-27T13:11:02.000Z</time>
      </trkpt>
      <trkpt lat="43.81446" lon="6.55005">
        <ele>1008</ele>
        <time>2021-06-27T13:11:18.000Z</time>
      </trkpt>
      <trkpt lat="43.81441" lon="6.55016">
        <ele>1006.4</ele>
        <time>2021-06-27T13:11:28.000Z</time>
      </trkpt>
      <trkpt lat="43.81433" lon="6.55022">
        <ele>1003.8</ele>
        <time>2021-06-27T13:11:44.000Z</time>
      </trkpt>
      <trkpt lat="43.81427" lon="6.55031">
        <ele>1000.3</ele>
        <time>2021-06-27T13:12:16.000Z</time>
      </trkpt>
      <trkpt lat="43.81418" lon="6.55036">
        <ele>999.1</ele>
        <time>2021-06-27T13:12:32.000Z</time>
      </trkpt>
      <trkpt lat="43.8141" lon="6.55041">
        <ele>995.6</ele>
        <time>2021-06-27T13:13:09.000Z</time>
      </trkpt>
      <trkpt lat="43.81402" lon="6.55048">
        <ele>992.8</ele>
        <time>2021-06-27T13:13:33.000Z</time>
      </trkpt>
      <trkpt lat="43.81393" lon="6.55053">
        <ele>990.6</ele>
        <time>2021-06-27T13:13:50.000Z</time>
      </trkpt>
      <trkpt lat="43.81385" lon="6.55058">
        <ele>987.6</ele>
        <time>2021-06-27T13:14:40.000Z</time>
      </trkpt>
      <trkpt lat="43.81377" lon="6.55065">
        <ele>986.5</ele>
        <time>2021-06-27T13:14:51.000Z</time>
      </trkpt>
      <trkpt lat="43.8137" lon="6.55073">
        <ele>984.9</ele>
        <time>2021-06-27T13:15:08.000Z</time>
      </trkpt>
      <trkpt lat="43.81361" lon="6.55072">
        <ele>980</ele>
        <time>2021-06-27T13:15:58.000Z</time>
      </trkpt>
      <trkpt lat="43.81353" lon="6.55065">
        <ele>978.1</ele>
        <time>2021-06-27T13:16:25.000Z</time>
      </trkpt>
      <trkpt lat="43.81356" lon="6.55053">
        <ele>976.2</ele>
        <time>2021-06-27T13:17:06.000Z</time>
      </trkpt>
      <trkpt lat="43.81354" lon="6.55065">
        <ele>975.8</ele>
        <time>2021-06-27T13:20:44.000Z</time>
      </trkpt>
      <trkpt lat="43.81357" lon="6.55077">
        <ele>977.6</ele>
        <time>2021-06-27T13:21:03.000Z</time>
      </trkpt>
      <trkpt lat="43.81355" lon="6.5509">
        <ele>978.9</ele>
        <time>2021-06-27T13:21:20.000Z</time>
      </trkpt>
      <trkpt lat="43.8135" lon="6.55101">
        <ele>978.6</ele>
        <time>2021-06-27T13:21:34.000Z</time>
      </trkpt>
      <trkpt lat="43.81345" lon="6.55112">
        <ele>978</ele>
        <time>2021-06-27T13:21:45.000Z</time>
      </trkpt>
      <trkpt lat="43.81339" lon="6.55121">
        <ele>976.7</ele>
        <time>2021-06-27T13:22:00.000Z</time>
      </trkpt>
      <trkpt lat="43.81331" lon="6.55127">
        <ele>975.7</ele>
        <time>2021-06-27T13:22:14.000Z</time>
      </trkpt>
      <trkpt lat="43.81322" lon="6.55131">
        <ele>974.1</ele>
        <time>2021-06-27T13:22:29.000Z</time>
      </trkpt>
      <trkpt lat="43.81315" lon="6.55138">
        <ele>968.6</ele>
        <time>2021-06-27T13:23:31.000Z</time>
      </trkpt>
      <trkpt lat="43.81313" lon="6.55125">
        <ele>966.9</ele>
        <time>2021-06-27T13:23:52.000Z</time>
      </trkpt>
      <trkpt lat="43.81304" lon="6.55125">
        <ele>964.5</ele>
        <time>2021-06-27T13:24:07.000Z</time>
      </trkpt>
      <trkpt lat="43.81297" lon="6.55115">
        <ele>960.5</ele>
        <time>2021-06-27T13:24:34.000Z</time>
      </trkpt>
      <trkpt lat="43.81292" lon="6.55104">
        <ele>957.9</ele>
        <time>2021-06-27T13:24:48.000Z</time>
      </trkpt>
      <trkpt lat="43.81286" lon="6.55094">
        <ele>954.7</ele>
        <time>2021-06-27T13:25:04.000Z</time>
      </trkpt>
      <trkpt lat="43.81282" lon="6.55082">
        <ele>952.2</ele>
        <time>2021-06-27T13:25:19.000Z</time>
      </trkpt>
      <trkpt lat="43.81275" lon="6.55073">
        <ele>950.4</ele>
        <time>2021-06-27T13:25:30.000Z</time>
      </trkpt>
      <trkpt lat="43.81276" lon="6.5506">
        <ele>946.7</ele>
        <time>2021-06-27T13:25:50.000Z</time>
      </trkpt>
      <trkpt lat="43.81273" lon="6.55048">
        <ele>944.9</ele>
        <time>2021-06-27T13:26:22.000Z</time>
      </trkpt>
      <trkpt lat="43.81266" lon="6.55042">
        <ele>943.6</ele>
        <time>2021-06-27T13:26:39.000Z</time>
      </trkpt>
      <trkpt lat="43.81263" lon="6.55054">
        <ele>941</ele>
        <time>2021-06-27T13:27:52.000Z</time>
      </trkpt>
      <trkpt lat="43.81254" lon="6.55057">
        <ele>940.6</ele>
        <time>2021-06-27T13:28:09.000Z</time>
      </trkpt>
      <trkpt lat="43.81245" lon="6.55056">
        <ele>938.7</ele>
        <time>2021-06-27T13:28:22.000Z</time>
      </trkpt>
      <trkpt lat="43.81237" lon="6.55051">
        <ele>937</ele>
        <time>2021-06-27T13:28:35.000Z</time>
      </trkpt>
      <trkpt lat="43.81227" lon="6.55049">
        <ele>934.9</ele>
        <time>2021-06-27T13:28:48.000Z</time>
      </trkpt>
      <trkpt lat="43.8122" lon="6.55042">
        <ele>932.9</ele>
        <time>2021-06-27T13:29:02.000Z</time>
      </trkpt>
      <trkpt lat="43.81212" lon="6.55049">
        <ele>931</ele>
        <time>2021-06-27T13:29:26.000Z</time>
      </trkpt>
      <trkpt lat="43.81204" lon="6.55056">
        <ele>929.3</ele>
        <time>2021-06-27T13:29:43.000Z</time>
      </trkpt>
      <trkpt lat="43.81201" lon="6.55069">
        <ele>928.8</ele>
        <time>2021-06-27T13:29:54.000Z</time>
      </trkpt>
      <trkpt lat="43.81199" lon="6.55082">
        <ele>928.2</ele>
        <time>2021-06-27T13:30:04.000Z</time>
      </trkpt>
      <trkpt lat="43.81197" lon="6.55094">
        <ele>927.8</ele>
        <time>2021-06-27T13:30:14.000Z</time>
      </trkpt>
      <trkpt lat="43.81188" lon="6.55097">
        <ele>924.8</ele>
        <time>2021-06-27T13:34:06.000Z</time>
      </trkpt>
      <trkpt lat="43.81181" lon="6.55107">
        <ele>924.4</ele>
        <time>2021-06-27T13:34:19.000Z</time>
      </trkpt>
      <trkpt lat="43.81176" lon="6.55118">
        <ele>923.7</ele>
        <time>2021-06-27T13:34:31.000Z</time>
      </trkpt>
      <trkpt lat="43.81174" lon="6.5513">
        <ele>923.1</ele>
        <time>2021-06-27T13:34:48.000Z</time>
      </trkpt>
      <trkpt lat="43.81172" lon="6.55143">
        <ele>923</ele>
        <time>2021-06-27T13:35:00.000Z</time>
      </trkpt>
      <trkpt lat="43.81169" lon="6.55155">
        <ele>923.2</ele>
        <time>2021-06-27T13:35:16.000Z</time>
      </trkpt>
      <trkpt lat="43.81165" lon="6.55167">
        <ele>923.7</ele>
        <time>2021-06-27T13:35:32.000Z</time>
      </trkpt>
      <trkpt lat="43.81166" lon="6.55179">
        <ele>923.9</ele>
        <time>2021-06-27T13:35:55.000Z</time>
      </trkpt>
      <trkpt lat="43.81166" lon="6.55192">
        <ele>924.3</ele>
        <time>2021-06-27T13:36:09.000Z</time>
      </trkpt>
      <trkpt lat="43.81162" lon="6.55204">
        <ele>924.7</ele>
        <time>2021-06-27T13:36:21.000Z</time>
      </trkpt>
      <trkpt lat="43.81159" lon="6.55215">
        <ele>924.7</ele>
        <time>2021-06-27T13:36:33.000Z</time>
      </trkpt>
      <trkpt lat="43.81157" lon="6.55228">
        <ele>924.9</ele>
        <time>2021-06-27T13:36:46.000Z</time>
      </trkpt>
      <trkpt lat="43.81157" lon="6.55241">
        <ele>926.2</ele>
        <time>2021-06-27T13:37:24.000Z</time>
      </trkpt>
      <trkpt lat="43.81153" lon="6.55252">
        <ele>926.6</ele>
        <time>2021-06-27T13:37:33.000Z</time>
      </trkpt>
      <trkpt lat="43.81148" lon="6.55264">
        <ele>927.1</ele>
        <time>2021-06-27T13:37:44.000Z</time>
      </trkpt>
      <trkpt lat="43.81139" lon="6.5527">
        <ele>927.1</ele>
        <time>2021-06-27T13:37:54.000Z</time>
      </trkpt>
      <trkpt lat="43.81132" lon="6.55261">
        <ele>923.6</ele>
        <time>2021-06-27T13:38:23.000Z</time>
      </trkpt>
      <trkpt lat="43.81124" lon="6.55268">
        <ele>921.7</ele>
        <time>2021-06-27T13:38:39.000Z</time>
      </trkpt>
      <trkpt lat="43.81115" lon="6.5527">
        <ele>918.4</ele>
        <time>2021-06-27T13:39:13.000Z</time>
      </trkpt>
      <trkpt lat="43.81113" lon="6.55282">
        <ele>918</ele>
        <time>2021-06-27T13:39:39.000Z</time>
      </trkpt>
      <trkpt lat="43.81113" lon="6.55295">
        <ele>918.8</ele>
        <time>2021-06-27T13:39:49.000Z</time>
      </trkpt>
      <trkpt lat="43.81112" lon="6.55308">
        <ele>919.1</ele>
        <time>2021-06-27T13:39:58.000Z</time>
      </trkpt>
      <trkpt lat="43.8111" lon="6.5532">
        <ele>918.7</ele>
        <time>2021-06-27T13:40:07.000Z</time>
      </trkpt>
      <trkpt lat="43.81106" lon="6.55332">
        <ele>917</ele>
        <time>2021-06-27T13:40:23.000Z</time>
      </trkpt>
      <trkpt lat="43.81105" lon="6.55345">
        <ele>916.3</ele>
        <time>2021-06-27T13:40:35.000Z</time>
      </trkpt>
      <trkpt lat="43.81104" lon="6.55358">
        <ele>915.5</ele>
        <time>2021-06-27T13:40:45.000Z</time>
      </trkpt>
      <trkpt lat="43.81095" lon="6.55355">
        <ele>913.1</ele>
        <time>2021-06-27T13:41:05.000Z</time>
      </trkpt>
      <trkpt lat="43.81093" lon="6.55343">
        <ele>911.3</ele>
        <time>2021-06-27T13:41:17.000Z</time>
      </trkpt>
      <trkpt lat="43.81089" lon="6.55331">
        <ele>910.1</ele>
        <time>2021-06-27T13:41:29.000Z</time>
      </trkpt>
      <trkpt lat="43.81082" lon="6.55321">
        <ele>909.1</ele>
        <time>2021-06-27T13:41:39.000Z</time>
      </trkpt>
      <trkpt lat="43.81077" lon="6.55311">
        <ele>908</ele>
        <time>2021-06-27T13:41:50.000Z</time>
      </trkpt>
      <trkpt lat="43.81072" lon="6.55299">
        <ele>907.4</ele>
        <time>2021-06-27T13:42:03.000Z</time>
      </trkpt>
      <trkpt lat="43.81071" lon="6.55286">
        <ele>907.1</ele>
        <time>2021-06-27T13:42:17.000Z</time>
      </trkpt>
      <trkpt lat="43.8108" lon="6.55279">
        <ele>905.8</ele>
        <time>2021-06-27T13:52:22.000Z</time>
      </trkpt>
      <trkpt lat="43.8108" lon="6.55291">
        <ele>907</ele>
        <time>2021-06-27T13:53:04.000Z</time>
      </trkpt>
      <trkpt lat="43.81073" lon="6.55301">
        <ele>906</ele>
        <time>2021-06-27T13:53:45.000Z</time>
      </trkpt>
      <trkpt lat="43.81068" lon="6.55312">
        <ele>906</ele>
        <time>2021-06-27T13:53:49.000Z</time>
      </trkpt>
      <trkpt lat="43.81069" lon="6.55299">
        <ele>906.6</ele>
        <time>2021-06-27T13:54:03.000Z</time>
      </trkpt>
      <trkpt lat="43.81073" lon="6.55288">
        <ele>906.5</ele>
        <time>2021-06-27T13:54:43.000Z</time>
      </trkpt>
      <trkpt lat="43.81073" lon="6.55276">
        <ele>907.3</ele>
        <time>2021-06-27T13:56:29.000Z</time>
      </trkpt>
      <trkpt lat="43.81069" lon="6.55288">
        <ele>907.6</ele>
        <time>2021-06-27T13:57:31.000Z</time>
      </trkpt>
      <trkpt lat="43.81076" lon="6.55278">
        <ele>906.8</ele>
        <time>2021-06-27T14:00:09.000Z</time>
      </trkpt>
      <trkpt lat="43.81078" lon="6.55266">
        <ele>907.1</ele>
        <time>2021-06-27T14:00:24.000Z</time>
      </trkpt>
      <trkpt lat="43.81085" lon="6.55256">
        <ele>907.2</ele>
        <time>2021-06-27T14:00:35.000Z</time>
      </trkpt>
      <trkpt lat="43.8109" lon="6.55245">
        <ele>906.7</ele>
        <time>2021-06-27T14:00:47.000Z</time>
      </trkpt>
      <trkpt lat="43.81088" lon="6.55231">
        <ele>906.4</ele>
        <time>2021-06-27T14:00:55.000Z</time>
      </trkpt>
      <trkpt lat="43.81088" lon="6.55218">
        <ele>906.1</ele>
        <time>2021-06-27T14:01:03.000Z</time>
      </trkpt>
      <trkpt lat="43.81092" lon="6.55204">
        <ele>906</ele>
        <time>2021-06-27T14:01:11.000Z</time>
      </trkpt>
      <trkpt lat="43.81096" lon="6.55192">
        <ele>906.2</ele>
        <time>2021-06-27T14:01:18.000Z</time>
      </trkpt>
      <trkpt lat="43.81102" lon="6.55182">
        <ele>906.7</ele>
        <time>2021-06-27T14:01:27.000Z</time>
      </trkpt>
      <trkpt lat="43.81105" lon="6.55169">
        <ele>906.8</ele>
        <time>2021-06-27T14:01:35.000Z</time>
      </trkpt>
      <trkpt lat="43.81109" lon="6.55157">
        <ele>907</ele>
        <time>2021-06-27T14:01:47.000Z</time>
      </trkpt>
      <trkpt lat="43.81108" lon="6.55144">
        <ele>906.5</ele>
        <time>2021-06-27T14:02:00.000Z</time>
      </trkpt>
      <trkpt lat="43.8111" lon="6.55131">
        <ele>906.3</ele>
        <time>2021-06-27T14:02:25.000Z</time>
      </trkpt>
      <trkpt lat="43.8111" lon="6.55118">
        <ele>906.3</ele>
        <time>2021-06-27T14:02:35.000Z</time>
      </trkpt>
      <trkpt lat="43.81111" lon="6.55106">
        <ele>906.8</ele>
        <time>2021-06-27T14:02:44.000Z</time>
      </trkpt>
      <trkpt lat="43.81115" lon="6.55094">
        <ele>907.5</ele>
        <time>2021-06-27T14:02:51.000Z</time>
      </trkpt>
      <trkpt lat="43.81122" lon="6.55085">
        <ele>908.2</ele>
        <time>2021-06-27T14:03:00.000Z</time>
      </trkpt>
      <trkpt lat="43.8113" lon="6.55078">
        <ele>909</ele>
        <time>2021-06-27T14:03:07.000Z</time>
      </trkpt>
      <trkpt lat="43.81137" lon="6.5507">
        <ele>909.6</ele>
        <time>2021-06-27T14:03:14.000Z</time>
      </trkpt>
      <trkpt lat="43.81142" lon="6.55058">
        <ele>909.9</ele>
        <time>2021-06-27T14:03:26.000Z</time>
      </trkpt>
      <trkpt lat="43.81143" lon="6.55045">
        <ele>910</ele>
        <time>2021-06-27T14:03:33.000Z</time>
      </trkpt>
      <trkpt lat="43.8114" lon="6.55032">
        <ele>909.9</ele>
        <time>2021-06-27T14:03:40.000Z</time>
      </trkpt>
      <trkpt lat="43.81138" lon="6.55019">
        <ele>909.6</ele>
        <time>2021-06-27T14:03:47.000Z</time>
      </trkpt>
      <trkpt lat="43.81133" lon="6.55007">
        <ele>909.8</ele>
        <time>2021-06-27T14:03:55.000Z</time>
      </trkpt>
      <trkpt lat="43.81127" lon="6.54998">
        <ele>909.9</ele>
        <time>2021-06-27T14:04:01.000Z</time>
      </trkpt>
      <trkpt lat="43.81121" lon="6.54987">
        <ele>910.3</ele>
        <time>2021-06-27T14:04:08.000Z</time>
      </trkpt>
      <trkpt lat="43.81116" lon="6.54976">
        <ele>910.9</ele>
        <time>2021-06-27T14:04:15.000Z</time>
      </trkpt>
      <trkpt lat="43.81111" lon="6.54965">
        <ele>911.6</ele>
        <time>2021-06-27T14:04:24.000Z</time>
      </trkpt>
      <trkpt lat="43.81105" lon="6.54954">
        <ele>911.9</ele>
        <time>2021-06-27T14:04:31.000Z</time>
      </trkpt>
      <trkpt lat="43.811" lon="6.54944">
        <ele>912.5</ele>
        <time>2021-06-27T14:04:38.000Z</time>
      </trkpt>
      <trkpt lat="43.81094" lon="6.54934">
        <ele>912.9</ele>
        <time>2021-06-27T14:04:44.000Z</time>
      </trkpt>
      <trkpt lat="43.8109" lon="6.54921">
        <ele>913.4</ele>
        <time>2021-06-27T14:04:51.000Z</time>
      </trkpt>
      <trkpt lat="43.81086" lon="6.54909">
        <ele>913.6</ele>
        <time>2021-06-27T14:04:58.000Z</time>
      </trkpt>
      <trkpt lat="43.81083" lon="6.54897">
        <ele>914</ele>
        <time>2021-06-27T14:05:06.000Z</time>
      </trkpt>
      <trkpt lat="43.81084" lon="6.54883">
        <ele>914.1</ele>
        <time>2021-06-27T14:05:13.000Z</time>
      </trkpt>
      <trkpt lat="43.81088" lon="6.54871">
        <ele>914.2</ele>
        <time>2021-06-27T14:05:20.000Z</time>
      </trkpt>
      <trkpt lat="43.8109" lon="6.54858">
        <ele>913.9</ele>
        <time>2021-06-27T14:05:28.000Z</time>
      </trkpt>
      <trkpt lat="43.81093" lon="6.54846">
        <ele>913.8</ele>
        <time>2021-06-27T14:05:35.000Z</time>
      </trkpt>
      <trkpt lat="43.81094" lon="6.54833">
        <ele>913.7</ele>
        <time>2021-06-27T14:05:43.000Z</time>
      </trkpt>
      <trkpt lat="43.81101" lon="6.54823">
        <ele>913.7</ele>
        <time>2021-06-27T14:05:50.000Z</time>
      </trkpt>
      <trkpt lat="43.81106" lon="6.54812">
        <ele>913.7</ele>
        <time>2021-06-27T14:05:58.000Z</time>
      </trkpt>
      <trkpt lat="43.81113" lon="6.54803">
        <ele>913</ele>
        <time>2021-06-27T14:06:06.000Z</time>
      </trkpt>
      <trkpt lat="43.81119" lon="6.54794">
        <ele>912.4</ele>
        <time>2021-06-27T14:06:13.000Z</time>
      </trkpt>
      <trkpt lat="43.81126" lon="6.54785">
        <ele>911.3</ele>
        <time>2021-06-27T14:06:21.000Z</time>
      </trkpt>
      <trkpt lat="43.81133" lon="6.54775">
        <ele>910.6</ele>
        <time>2021-06-27T14:06:30.000Z</time>
      </trkpt>
      <trkpt lat="43.81134" lon="6.54762">
        <ele>910.2</ele>
        <time>2021-06-27T14:06:37.000Z</time>
      </trkpt>
      <trkpt lat="43.8114" lon="6.54751">
        <ele>909.6</ele>
        <time>2021-06-27T14:06:44.000Z</time>
      </trkpt>
      <trkpt lat="43.81146" lon="6.5474">
        <ele>909.1</ele>
        <time>2021-06-27T14:06:51.000Z</time>
      </trkpt>
      <trkpt lat="43.81151" lon="6.54727">
        <ele>908.9</ele>
        <time>2021-06-27T14:06:58.000Z</time>
      </trkpt>
      <trkpt lat="43.81155" lon="6.54715">
        <ele>908.8</ele>
        <time>2021-06-27T14:07:04.000Z</time>
      </trkpt>
      <trkpt lat="43.81158" lon="6.54703">
        <ele>908.6</ele>
        <time>2021-06-27T14:07:11.000Z</time>
      </trkpt>
      <trkpt lat="43.8116" lon="6.54691">
        <ele>908.7</ele>
        <time>2021-06-27T14:07:19.000Z</time>
      </trkpt>
      <trkpt lat="43.81164" lon="6.54679">
        <ele>908.8</ele>
        <time>2021-06-27T14:07:27.000Z</time>
      </trkpt>
      <trkpt lat="43.81168" lon="6.54667">
        <ele>909</ele>
        <time>2021-06-27T14:07:34.000Z</time>
      </trkpt>
      <trkpt lat="43.8117" lon="6.54654">
        <ele>909.2</ele>
        <time>2021-06-27T14:07:41.000Z</time>
      </trkpt>
      <trkpt lat="43.81173" lon="6.54642">
        <ele>909.2</ele>
        <time>2021-06-27T14:07:49.000Z</time>
      </trkpt>
      <trkpt lat="43.81175" lon="6.5463">
        <ele>909.2</ele>
        <time>2021-06-27T14:07:57.000Z</time>
      </trkpt>
      <trkpt lat="43.81179" lon="6.54618">
        <ele>909.1</ele>
        <time>2021-06-27T14:08:05.000Z</time>
      </trkpt>
      <trkpt lat="43.81182" lon="6.54606">
        <ele>908.6</ele>
        <time>2021-06-27T14:08:13.000Z</time>
      </trkpt>
      <trkpt lat="43.81186" lon="6.54592">
        <ele>908</ele>
        <time>2021-06-27T14:08:22.000Z</time>
      </trkpt>
      <trkpt lat="43.81189" lon="6.54579">
        <ele>907.5</ele>
        <time>2021-06-27T14:08:31.000Z</time>
      </trkpt>
      <trkpt lat="43.81192" lon="6.54567">
        <ele>906.8</ele>
        <time>2021-06-27T14:08:40.000Z</time>
      </trkpt>
      <trkpt lat="43.8119" lon="6.54555">
        <ele>905.6</ele>
        <time>2021-06-27T14:09:17.000Z</time>
      </trkpt>
      <trkpt lat="43.81192" lon="6.54542">
        <ele>905.4</ele>
        <time>2021-06-27T14:09:29.000Z</time>
      </trkpt>
      <trkpt lat="43.81193" lon="6.54528">
        <ele>905.1</ele>
        <time>2021-06-27T14:09:43.000Z</time>
      </trkpt>
      <trkpt lat="43.81187" lon="6.54519">
        <ele>904.9</ele>
        <time>2021-06-27T14:10:03.000Z</time>
      </trkpt>
      <trkpt lat="43.8118" lon="6.54526">
        <ele>903</ele>
        <time>2021-06-27T14:10:30.000Z</time>
      </trkpt>
      <trkpt lat="43.81188" lon="6.54524">
        <ele>903.4</ele>
        <time>2021-06-27T14:10:58.000Z</time>
      </trkpt>
      <trkpt lat="43.81197" lon="6.5452">
        <ele>904.8</ele>
        <time>2021-06-27T14:11:13.000Z</time>
      </trkpt>
      <trkpt lat="43.81206" lon="6.54516">
        <ele>905.5</ele>
        <time>2021-06-27T14:11:22.000Z</time>
      </trkpt>
      <trkpt lat="43.81214" lon="6.54508">
        <ele>906.1</ele>
        <time>2021-06-27T14:11:29.000Z</time>
      </trkpt>
      <trkpt lat="43.81219" lon="6.54498">
        <ele>907.7</ele>
        <time>2021-06-27T14:11:40.000Z</time>
      </trkpt>
      <trkpt lat="43.81223" lon="6.54486">
        <ele>909.3</ele>
        <time>2021-06-27T14:11:50.000Z</time>
      </trkpt>
      <trkpt lat="43.81227" lon="6.54474">
        <ele>910.6</ele>
        <time>2021-06-27T14:11:59.000Z</time>
      </trkpt>
      <trkpt lat="43.81228" lon="6.54461">
        <ele>911.6</ele>
        <time>2021-06-27T14:12:06.000Z</time>
      </trkpt>
      <trkpt lat="43.81226" lon="6.54447">
        <ele>912.5</ele>
        <time>2021-06-27T14:12:13.000Z</time>
      </trkpt>
      <trkpt lat="43.81225" lon="6.54434">
        <ele>913.7</ele>
        <time>2021-06-27T14:12:22.000Z</time>
      </trkpt>
      <trkpt lat="43.81225" lon="6.5442">
        <ele>914.9</ele>
        <time>2021-06-27T14:12:31.000Z</time>
      </trkpt>
      <trkpt lat="43.81226" lon="6.54407">
        <ele>916.2</ele>
        <time>2021-06-27T14:12:40.000Z</time>
      </trkpt>
      <trkpt lat="43.81227" lon="6.54394">
        <ele>917.8</ele>
        <time>2021-06-27T14:12:50.000Z</time>
      </trkpt>
      <trkpt lat="43.81232" lon="6.54383">
        <ele>919.1</ele>
        <time>2021-06-27T14:13:00.000Z</time>
      </trkpt>
      <trkpt lat="43.81236" lon="6.54371">
        <ele>920.3</ele>
        <time>2021-06-27T14:13:09.000Z</time>
      </trkpt>
      <trkpt lat="43.81242" lon="6.5436">
        <ele>921.9</ele>
        <time>2021-06-27T14:13:19.000Z</time>
      </trkpt>
      <trkpt lat="43.81249" lon="6.54351">
        <ele>923.5</ele>
        <time>2021-06-27T14:13:29.000Z</time>
      </trkpt>
      <trkpt lat="43.81253" lon="6.54339">
        <ele>925.1</ele>
        <time>2021-06-27T14:13:45.000Z</time>
      </trkpt>
      <trkpt lat="43.8126" lon="6.5433">
        <ele>925.7</ele>
        <time>2021-06-27T14:13:56.000Z</time>
      </trkpt>
      <trkpt lat="43.81266" lon="6.54321">
        <ele>925.9</ele>
        <time>2021-06-27T14:14:08.000Z</time>
      </trkpt>
      <trkpt lat="43.81271" lon="6.54311">
        <ele>926.2</ele>
        <time>2021-06-27T14:14:16.000Z</time>
      </trkpt>
      <trkpt lat="43.81276" lon="6.543">
        <ele>926.4</ele>
        <time>2021-06-27T14:14:24.000Z</time>
      </trkpt>
      <trkpt lat="43.81282" lon="6.54288">
        <ele>927.2</ele>
        <time>2021-06-27T14:14:33.000Z</time>
      </trkpt>
      <trkpt lat="43.81284" lon="6.54276">
        <ele>927.9</ele>
        <time>2021-06-27T14:14:42.000Z</time>
      </trkpt>
      <trkpt lat="43.81287" lon="6.54264">
        <ele>928.8</ele>
        <time>2021-06-27T14:14:50.000Z</time>
      </trkpt>
      <trkpt lat="43.81291" lon="6.54251">
        <ele>929.7</ele>
        <time>2021-06-27T14:15:00.000Z</time>
      </trkpt>
      <trkpt lat="43.81293" lon="6.54238">
        <ele>930.4</ele>
        <time>2021-06-27T14:15:08.000Z</time>
      </trkpt>
      <trkpt lat="43.81294" lon="6.54225">
        <ele>931.5</ele>
        <time>2021-06-27T14:15:17.000Z</time>
      </trkpt>
      <trkpt lat="43.81296" lon="6.54212">
        <ele>932.3</ele>
        <time>2021-06-27T14:15:26.000Z</time>
      </trkpt>
      <trkpt lat="43.81297" lon="6.54197">
        <ele>932.9</ele>
        <time>2021-06-27T14:15:33.000Z</time>
      </trkpt>
      <trkpt lat="43.81301" lon="6.54185">
        <ele>933.7</ele>
        <time>2021-06-27T14:15:41.000Z</time>
      </trkpt>
      <trkpt lat="43.81305" lon="6.54174">
        <ele>934.2</ele>
        <time>2021-06-27T14:15:51.000Z</time>
      </trkpt>
      <trkpt lat="43.81307" lon="6.54161">
        <ele>934.5</ele>
        <time>2021-06-27T14:15:58.000Z</time>
      </trkpt>
      <trkpt lat="43.81312" lon="6.54149">
        <ele>935.4</ele>
        <time>2021-06-27T14:16:06.000Z</time>
      </trkpt>
      <trkpt lat="43.81317" lon="6.54137">
        <ele>936.3</ele>
        <time>2021-06-27T14:16:14.000Z</time>
      </trkpt>
      <trkpt lat="43.81321" lon="6.54123">
        <ele>937.3</ele>
        <time>2021-06-27T14:16:22.000Z</time>
      </trkpt>
      <trkpt lat="43.81324" lon="6.54111">
        <ele>938.3</ele>
        <time>2021-06-27T14:16:29.000Z</time>
      </trkpt>
      <trkpt lat="43.81326" lon="6.54098">
        <ele>939</ele>
        <time>2021-06-27T14:16:37.000Z</time>
      </trkpt>
      <trkpt lat="43.81327" lon="6.54085">
        <ele>939.5</ele>
        <time>2021-06-27T14:16:44.000Z</time>
      </trkpt>
      <trkpt lat="43.81324" lon="6.54072">
        <ele>940.2</ele>
        <time>2021-06-27T14:16:51.000Z</time>
      </trkpt>
      <trkpt lat="43.81319" lon="6.5406">
        <ele>940.9</ele>
        <time>2021-06-27T14:16:59.000Z</time>
      </trkpt>
      <trkpt lat="43.81318" lon="6.54047">
        <ele>941.7</ele>
        <time>2021-06-27T14:17:08.000Z</time>
      </trkpt>
      <trkpt lat="43.81317" lon="6.54033">
        <ele>942.4</ele>
        <time>2021-06-27T14:17:15.000Z</time>
      </trkpt>
      <trkpt lat="43.81318" lon="6.54021">
        <ele>943.5</ele>
        <time>2021-06-27T14:17:23.000Z</time>
      </trkpt>
      <trkpt lat="43.8132" lon="6.54008">
        <ele>944.5</ele>
        <time>2021-06-27T14:17:33.000Z</time>
      </trkpt>
      <trkpt lat="43.81322" lon="6.53995">
        <ele>945.5</ele>
        <time>2021-06-27T14:17:44.000Z</time>
      </trkpt>
      <trkpt lat="43.81326" lon="6.53983">
        <ele>946.7</ele>
        <time>2021-06-27T14:17:54.000Z</time>
      </trkpt>
      <trkpt lat="43.81328" lon="6.53971">
        <ele>947.9</ele>
        <time>2021-06-27T14:18:03.000Z</time>
      </trkpt>
      <trkpt lat="43.8133" lon="6.53956">
        <ele>949.9</ele>
        <time>2021-06-27T14:18:13.000Z</time>
      </trkpt>
      <trkpt lat="43.81329" lon="6.53943">
        <ele>951.8</ele>
        <time>2021-06-27T14:18:23.000Z</time>
      </trkpt>
      <trkpt lat="43.8132" lon="6.53941">
        <ele>954</ele>
        <time>2021-06-27T14:18:35.000Z</time>
      </trkpt>
      <trkpt lat="43.81312" lon="6.53937">
        <ele>956.2</ele>
        <time>2021-06-27T14:18:48.000Z</time>
      </trkpt>
      <trkpt lat="43.81307" lon="6.53926">
        <ele>957.4</ele>
        <time>2021-06-27T14:18:56.000Z</time>
      </trkpt>
      <trkpt lat="43.81306" lon="6.53914">
        <ele>959</ele>
        <time>2021-06-27T14:19:07.000Z</time>
      </trkpt>
      <trkpt lat="43.81303" lon="6.53901">
        <ele>960.5</ele>
        <time>2021-06-27T14:19:16.000Z</time>
      </trkpt>
      <trkpt lat="43.813" lon="6.53888">
        <ele>961.6</ele>
        <time>2021-06-27T14:19:26.000Z</time>
      </trkpt>
      <trkpt lat="43.81299" lon="6.53875">
        <ele>962.5</ele>
        <time>2021-06-27T14:19:34.000Z</time>
      </trkpt>
      <trkpt lat="43.81296" lon="6.53862">
        <ele>963.4</ele>
        <time>2021-06-27T14:19:41.000Z</time>
      </trkpt>
      <trkpt lat="43.81297" lon="6.53849">
        <ele>964.2</ele>
        <time>2021-06-27T14:19:49.000Z</time>
      </trkpt>
      <trkpt lat="43.81297" lon="6.53835">
        <ele>964.7</ele>
        <time>2021-06-27T14:19:57.000Z</time>
      </trkpt>
      <trkpt lat="43.81297" lon="6.53822">
        <ele>965.1</ele>
        <time>2021-06-27T14:20:07.000Z</time>
      </trkpt>
      <trkpt lat="43.81296" lon="6.53808">
        <ele>965.5</ele>
        <time>2021-06-27T14:20:16.000Z</time>
      </trkpt>
      <trkpt lat="43.81297" lon="6.53795">
        <ele>965.7</ele>
        <time>2021-06-27T14:20:25.000Z</time>
      </trkpt>
      <trkpt lat="43.813" lon="6.53782">
        <ele>965.6</ele>
        <time>2021-06-27T14:20:33.000Z</time>
      </trkpt>
      <trkpt lat="43.81301" lon="6.53769">
        <ele>966.1</ele>
        <time>2021-06-27T14:20:41.000Z</time>
      </trkpt>
      <trkpt lat="43.81301" lon="6.53755">
        <ele>966.5</ele>
        <time>2021-06-27T14:20:49.000Z</time>
      </trkpt>
      <trkpt lat="43.81299" lon="6.53743">
        <ele>967</ele>
        <time>2021-06-27T14:20:57.000Z</time>
      </trkpt>
      <trkpt lat="43.81297" lon="6.5373">
        <ele>967.9</ele>
        <time>2021-06-27T14:21:06.000Z</time>
      </trkpt>
      <trkpt lat="43.81295" lon="6.53717">
        <ele>968.5</ele>
        <time>2021-06-27T14:21:13.000Z</time>
      </trkpt>
      <trkpt lat="43.81296" lon="6.53704">
        <ele>968.9</ele>
        <time>2021-06-27T14:21:19.000Z</time>
      </trkpt>
      <trkpt lat="43.81293" lon="6.53691">
        <ele>969.3</ele>
        <time>2021-06-27T14:21:26.000Z</time>
      </trkpt>
      <trkpt lat="43.81289" lon="6.53679">
        <ele>969.7</ele>
        <time>2021-06-27T14:21:33.000Z</time>
      </trkpt>
      <trkpt lat="43.81288" lon="6.53666">
        <ele>970.3</ele>
        <time>2021-06-27T14:21:41.000Z</time>
      </trkpt>
      <trkpt lat="43.81284" lon="6.53655">
        <ele>970.5</ele>
        <time>2021-06-27T14:21:48.000Z</time>
      </trkpt>
      <trkpt lat="43.81282" lon="6.53641">
        <ele>970.9</ele>
        <time>2021-06-27T14:21:58.000Z</time>
      </trkpt>
      <trkpt lat="43.8128" lon="6.53627">
        <ele>971.3</ele>
        <time>2021-06-27T14:22:05.000Z</time>
      </trkpt>
      <trkpt lat="43.81276" lon="6.53615">
        <ele>971.5</ele>
        <time>2021-06-27T14:22:11.000Z</time>
      </trkpt>
      <trkpt lat="43.81271" lon="6.53604">
        <ele>971.8</ele>
        <time>2021-06-27T14:22:17.000Z</time>
      </trkpt>
      <trkpt lat="43.81263" lon="6.53596">
        <ele>972.3</ele>
        <time>2021-06-27T14:22:24.000Z</time>
      </trkpt>
      <trkpt lat="43.81256" lon="6.53589">
        <ele>972.7</ele>
        <time>2021-06-27T14:22:31.000Z</time>
      </trkpt>
      <trkpt lat="43.81247" lon="6.53582">
        <ele>973.1</ele>
        <time>2021-06-27T14:22:39.000Z</time>
      </trkpt>
      <trkpt lat="43.8124" lon="6.53572">
        <ele>973.8</ele>
        <time>2021-06-27T14:22:48.000Z</time>
      </trkpt>
      <trkpt lat="43.81234" lon="6.53562">
        <ele>974.2</ele>
        <time>2021-06-27T14:22:55.000Z</time>
      </trkpt>
      <trkpt lat="43.81226" lon="6.53554">
        <ele>974.5</ele>
        <time>2021-06-27T14:23:05.000Z</time>
      </trkpt>
      <trkpt lat="43.81219" lon="6.53545">
        <ele>974.8</ele>
        <time>2021-06-27T14:23:13.000Z</time>
      </trkpt>
      <trkpt lat="43.81213" lon="6.53534">
        <ele>975</ele>
        <time>2021-06-27T14:23:20.000Z</time>
      </trkpt>
      <trkpt lat="43.81207" lon="6.53525">
        <ele>975</ele>
        <time>2021-06-27T14:23:28.000Z</time>
      </trkpt>
      <trkpt lat="43.81201" lon="6.53515">
        <ele>974.7</ele>
        <time>2021-06-27T14:23:36.000Z</time>
      </trkpt>
      <trkpt lat="43.81194" lon="6.53506">
        <ele>974.5</ele>
        <time>2021-06-27T14:23:44.000Z</time>
      </trkpt>
      <trkpt lat="43.81186" lon="6.53499">
        <ele>974.2</ele>
        <time>2021-06-27T14:23:50.000Z</time>
      </trkpt>
      <trkpt lat="43.81179" lon="6.53489">
        <ele>973.3</ele>
        <time>2021-06-27T14:23:58.000Z</time>
      </trkpt>
      <trkpt lat="43.81174" lon="6.53477">
        <ele>972.5</ele>
        <time>2021-06-27T14:24:05.000Z</time>
      </trkpt>
      <trkpt lat="43.81172" lon="6.53464">
        <ele>972</ele>
        <time>2021-06-27T14:24:14.000Z</time>
      </trkpt>
      <trkpt lat="43.81167" lon="6.53452">
        <ele>972</ele>
        <time>2021-06-27T14:24:22.000Z</time>
      </trkpt>
      <trkpt lat="43.81162" lon="6.5344">
        <ele>971.9</ele>
        <time>2021-06-27T14:24:29.000Z</time>
      </trkpt>
      <trkpt lat="43.81156" lon="6.53428">
        <ele>971.7</ele>
        <time>2021-06-27T14:24:37.000Z</time>
      </trkpt>
      <trkpt lat="43.81152" lon="6.53417">
        <ele>971.6</ele>
        <time>2021-06-27T14:24:44.000Z</time>
      </trkpt>
      <trkpt lat="43.81146" lon="6.53407">
        <ele>971.8</ele>
        <time>2021-06-27T14:24:49.000Z</time>
      </trkpt>
      <trkpt lat="43.81142" lon="6.53395">
        <ele>972</ele>
        <time>2021-06-27T14:24:57.000Z</time>
      </trkpt>
      <trkpt lat="43.81136" lon="6.53384">
        <ele>971.7</ele>
        <time>2021-06-27T14:25:07.000Z</time>
      </trkpt>
      <trkpt lat="43.81135" lon="6.53371">
        <ele>971.6</ele>
        <time>2021-06-27T14:25:15.000Z</time>
      </trkpt>
      <trkpt lat="43.81135" lon="6.53357">
        <ele>971.4</ele>
        <time>2021-06-27T14:25:21.000Z</time>
      </trkpt>
      <trkpt lat="43.81134" lon="6.53345">
        <ele>971.3</ele>
        <time>2021-06-27T14:25:27.000Z</time>
      </trkpt>
      <trkpt lat="43.81132" lon="6.53332">
        <ele>971.3</ele>
        <time>2021-06-27T14:25:35.000Z</time>
      </trkpt>
      <trkpt lat="43.81129" lon="6.53319">
        <ele>970.8</ele>
        <time>2021-06-27T14:25:43.000Z</time>
      </trkpt>
      <trkpt lat="43.81125" lon="6.53306">
        <ele>970.6</ele>
        <time>2021-06-27T14:25:51.000Z</time>
      </trkpt>
      <trkpt lat="43.81118" lon="6.53295">
        <ele>970.5</ele>
        <time>2021-06-27T14:25:58.000Z</time>
      </trkpt>
      <trkpt lat="43.81111" lon="6.53287">
        <ele>970.4</ele>
        <time>2021-06-27T14:26:04.000Z</time>
      </trkpt>
      <trkpt lat="43.81107" lon="6.53275">
        <ele>970.5</ele>
        <time>2021-06-27T14:26:11.000Z</time>
      </trkpt>
      <trkpt lat="43.81101" lon="6.53262">
        <ele>970.6</ele>
        <time>2021-06-27T14:26:18.000Z</time>
      </trkpt>
      <trkpt lat="43.81094" lon="6.53253">
        <ele>971.2</ele>
        <time>2021-06-27T14:26:24.000Z</time>
      </trkpt>
      <trkpt lat="43.8109" lon="6.53242">
        <ele>972.3</ele>
        <time>2021-06-27T14:26:33.000Z</time>
      </trkpt>
      <trkpt lat="43.81086" lon="6.53229">
        <ele>972.9</ele>
        <time>2021-06-27T14:26:41.000Z</time>
      </trkpt>
      <trkpt lat="43.81087" lon="6.53216">
        <ele>973.8</ele>
        <time>2021-06-27T14:26:49.000Z</time>
      </trkpt>
      <trkpt lat="43.81088" lon="6.53203">
        <ele>974.5</ele>
        <time>2021-06-27T14:27:00.000Z</time>
      </trkpt>
      <trkpt lat="43.81091" lon="6.5319">
        <ele>975.2</ele>
        <time>2021-06-27T14:27:10.000Z</time>
      </trkpt>
      <trkpt lat="43.81092" lon="6.53177">
        <ele>975.7</ele>
        <time>2021-06-27T14:27:19.000Z</time>
      </trkpt>
      <trkpt lat="43.81097" lon="6.53165">
        <ele>976.2</ele>
        <time>2021-06-27T14:27:27.000Z</time>
      </trkpt>
      <trkpt lat="43.81101" lon="6.53153">
        <ele>976.8</ele>
        <time>2021-06-27T14:27:34.000Z</time>
      </trkpt>
      <trkpt lat="43.81107" lon="6.53144">
        <ele>977.3</ele>
        <time>2021-06-27T14:27:43.000Z</time>
      </trkpt>
      <trkpt lat="43.81112" lon="6.53132">
        <ele>977.9</ele>
        <time>2021-06-27T14:27:51.000Z</time>
      </trkpt>
      <trkpt lat="43.81117" lon="6.53121">
        <ele>978.1</ele>
        <time>2021-06-27T14:27:59.000Z</time>
      </trkpt>
      <trkpt lat="43.81122" lon="6.5311">
        <ele>978.5</ele>
        <time>2021-06-27T14:28:06.000Z</time>
      </trkpt>
      <trkpt lat="43.81128" lon="6.531">
        <ele>978.8</ele>
        <time>2021-06-27T14:28:14.000Z</time>
      </trkpt>
      <trkpt lat="43.81135" lon="6.53091">
        <ele>979.2</ele>
        <time>2021-06-27T14:28:21.000Z</time>
      </trkpt>
      <trkpt lat="43.81139" lon="6.53079">
        <ele>979.2</ele>
        <time>2021-06-27T14:28:30.000Z</time>
      </trkpt>
      <trkpt lat="43.81139" lon="6.53066">
        <ele>979.3</ele>
        <time>2021-06-27T14:28:37.000Z</time>
      </trkpt>
      <trkpt lat="43.8114" lon="6.53051">
        <ele>979</ele>
        <time>2021-06-27T14:28:44.000Z</time>
      </trkpt>
      <trkpt lat="43.81145" lon="6.53039">
        <ele>978.9</ele>
        <time>2021-06-27T14:28:50.000Z</time>
      </trkpt>
      <trkpt lat="43.81153" lon="6.53033">
        <ele>978.9</ele>
        <time>2021-06-27T14:28:57.000Z</time>
      </trkpt>
      <trkpt lat="43.81157" lon="6.53021">
        <ele>978.9</ele>
        <time>2021-06-27T14:29:05.000Z</time>
      </trkpt>
      <trkpt lat="43.81161" lon="6.5301">
        <ele>979.4</ele>
        <time>2021-06-27T14:29:12.000Z</time>
      </trkpt>
      <trkpt lat="43.81167" lon="6.53">
        <ele>980.1</ele>
        <time>2021-06-27T14:29:20.000Z</time>
      </trkpt>
      <trkpt lat="43.81175" lon="6.52992">
        <ele>980.4</ele>
        <time>2021-06-27T14:29:27.000Z</time>
      </trkpt>
      <trkpt lat="43.8118" lon="6.5298">
        <ele>980.8</ele>
        <time>2021-06-27T14:29:35.000Z</time>
      </trkpt>
      <trkpt lat="43.81182" lon="6.52967">
        <ele>981.1</ele>
        <time>2021-06-27T14:29:41.000Z</time>
      </trkpt>
      <trkpt lat="43.81188" lon="6.52959">
        <ele>981.6</ele>
        <time>2021-06-27T14:29:50.000Z</time>
      </trkpt>
      <trkpt lat="43.81194" lon="6.52949">
        <ele>983.2</ele>
        <time>2021-06-27T14:30:00.000Z</time>
      </trkpt>
      <trkpt lat="43.812" lon="6.52938">
        <ele>984.7</ele>
        <time>2021-06-27T14:30:09.000Z</time>
      </trkpt>
      <trkpt lat="43.81205" lon="6.52927">
        <ele>985.8</ele>
        <time>2021-06-27T14:30:17.000Z</time>
      </trkpt>
      <trkpt lat="43.81209" lon="6.52916">
        <ele>986.3</ele>
        <time>2021-06-27T14:30:23.000Z</time>
      </trkpt>
      <trkpt lat="43.81215" lon="6.52905">
        <ele>986.8</ele>
        <time>2021-06-27T14:30:32.000Z</time>
      </trkpt>
      <trkpt lat="43.8122" lon="6.52894">
        <ele>987.5</ele>
        <time>2021-06-27T14:30:40.000Z</time>
      </trkpt>
      <trkpt lat="43.81224" lon="6.52882">
        <ele>988.1</ele>
        <time>2021-06-27T14:30:49.000Z</time>
      </trkpt>
      <trkpt lat="43.81229" lon="6.52871">
        <ele>987.7</ele>
        <time>2021-06-27T14:30:56.000Z</time>
      </trkpt>
      <trkpt lat="43.81237" lon="6.52865">
        <ele>987.5</ele>
        <time>2021-06-27T14:31:10.000Z</time>
      </trkpt>
      <trkpt lat="43.81242" lon="6.52854">
        <ele>987.8</ele>
        <time>2021-06-27T14:31:25.000Z</time>
      </trkpt>
      <trkpt lat="43.81251" lon="6.5285">
        <ele>988.8</ele>
        <time>2021-06-27T14:31:36.000Z</time>
      </trkpt>
      <trkpt lat="43.81258" lon="6.52841">
        <ele>989.9</ele>
        <time>2021-06-27T14:31:46.000Z</time>
      </trkpt>
      <trkpt lat="43.81266" lon="6.52832">
        <ele>990.3</ele>
        <time>2021-06-27T14:31:53.000Z</time>
      </trkpt>
      <trkpt lat="43.8127" lon="6.52821">
        <ele>990.5</ele>
        <time>2021-06-27T14:32:01.000Z</time>
      </trkpt>
      <trkpt lat="43.81274" lon="6.52809">
        <ele>990.3</ele>
        <time>2021-06-27T14:32:09.000Z</time>
      </trkpt>
      <trkpt lat="43.81279" lon="6.52798">
        <ele>989.7</ele>
        <time>2021-06-27T14:32:17.000Z</time>
      </trkpt>
      <trkpt lat="43.81283" lon="6.52786">
        <ele>989.3</ele>
        <time>2021-06-27T14:32:25.000Z</time>
      </trkpt>
      <trkpt lat="43.81285" lon="6.52773">
        <ele>989.1</ele>
        <time>2021-06-27T14:32:30.000Z</time>
      </trkpt>
      <trkpt lat="43.8129" lon="6.52762">
        <ele>988.9</ele>
        <time>2021-06-27T14:32:38.000Z</time>
      </trkpt>
      <trkpt lat="43.81291" lon="6.52749">
        <ele>988.5</ele>
        <time>2021-06-27T14:32:45.000Z</time>
      </trkpt>
      <trkpt lat="43.81292" lon="6.52736">
        <ele>987.8</ele>
        <time>2021-06-27T14:32:53.000Z</time>
      </trkpt>
      <trkpt lat="43.81295" lon="6.52724">
        <ele>986</ele>
        <time>2021-06-27T14:33:04.000Z</time>
      </trkpt>
      <trkpt lat="43.81299" lon="6.52712">
        <ele>985</ele>
        <time>2021-06-27T14:33:13.000Z</time>
      </trkpt>
      <trkpt lat="43.81302" lon="6.527">
        <ele>984.6</ele>
        <time>2021-06-27T14:35:53.000Z</time>
      </trkpt>
      <trkpt lat="43.81311" lon="6.52698">
        <ele>985</ele>
        <time>2021-06-27T14:36:07.000Z</time>
      </trkpt>
      <trkpt lat="43.81321" lon="6.52701">
        <ele>987.6</ele>
        <time>2021-06-27T14:36:19.000Z</time>
      </trkpt>
      <trkpt lat="43.81331" lon="6.52702">
        <ele>990.7</ele>
        <time>2021-06-27T14:36:31.000Z</time>
      </trkpt>
      <trkpt lat="43.8134" lon="6.52697">
        <ele>993.7</ele>
        <time>2021-06-27T14:36:44.000Z</time>
      </trkpt>
      <trkpt lat="43.81349" lon="6.52696">
        <ele>994.8</ele>
        <time>2021-06-27T14:36:51.000Z</time>
      </trkpt>
      <trkpt lat="43.81357" lon="6.52689">
        <ele>995.7</ele>
        <time>2021-06-27T14:37:01.000Z</time>
      </trkpt>
      <trkpt lat="43.81366" lon="6.52682">
        <ele>996.9</ele>
        <time>2021-06-27T14:37:12.000Z</time>
      </trkpt>
      <trkpt lat="43.81374" lon="6.52675">
        <ele>998.4</ele>
        <time>2021-06-27T14:37:23.000Z</time>
      </trkpt>
      <trkpt lat="43.81382" lon="6.5267">
        <ele>1000.6</ele>
        <time>2021-06-27T14:37:35.000Z</time>
      </trkpt>
      <trkpt lat="43.8139" lon="6.52663">
        <ele>1002.4</ele>
        <time>2021-06-27T14:37:46.000Z</time>
      </trkpt>
      <trkpt lat="43.81399" lon="6.52658">
        <ele>1003.6</ele>
        <time>2021-06-27T14:37:56.000Z</time>
      </trkpt>
      <trkpt lat="43.81408" lon="6.52653">
        <ele>1004.3</ele>
        <time>2021-06-27T14:38:08.000Z</time>
      </trkpt>
      <trkpt lat="43.81416" lon="6.52647">
        <ele>1004.6</ele>
        <time>2021-06-27T14:38:18.000Z</time>
      </trkpt>
      <trkpt lat="43.81423" lon="6.52638">
        <ele>1005.6</ele>
        <time>2021-06-27T14:38:27.000Z</time>
      </trkpt>
      <trkpt lat="43.8143" lon="6.5263">
        <ele>1007.5</ele>
        <time>2021-06-27T14:38:38.000Z</time>
      </trkpt>
      <trkpt lat="43.81439" lon="6.52626">
        <ele>1010.7</ele>
        <time>2021-06-27T14:38:52.000Z</time>
      </trkpt>
      <trkpt lat="43.81449" lon="6.52627">
        <ele>1011.9</ele>
        <time>2021-06-27T14:39:02.000Z</time>
      </trkpt>
      <trkpt lat="43.81458" lon="6.52628">
        <ele>1012.1</ele>
        <time>2021-06-27T14:39:12.000Z</time>
      </trkpt>
      <trkpt lat="43.81468" lon="6.52629">
        <ele>1012.4</ele>
        <time>2021-06-27T14:39:20.000Z</time>
      </trkpt>
      <trkpt lat="43.81478" lon="6.52628">
        <ele>1013.2</ele>
        <time>2021-06-27T14:39:30.000Z</time>
      </trkpt>
      <trkpt lat="43.81487" lon="6.52627">
        <ele>1013.6</ele>
        <time>2021-06-27T14:39:39.000Z</time>
      </trkpt>
      <trkpt lat="43.81497" lon="6.52627">
        <ele>1013.5</ele>
        <time>2021-06-27T14:39:46.000Z</time>
      </trkpt>
      <trkpt lat="43.81506" lon="6.5262">
        <ele>1012.6</ele>
        <time>2021-06-27T14:39:55.000Z</time>
      </trkpt>
      <trkpt lat="43.81514" lon="6.52615">
        <ele>1012.4</ele>
        <time>2021-06-27T14:40:02.000Z</time>
      </trkpt>
      <trkpt lat="43.81523" lon="6.52611">
        <ele>1012</ele>
        <time>2021-06-27T14:40:13.000Z</time>
      </trkpt>
      <trkpt lat="43.81532" lon="6.52606">
        <ele>1011.6</ele>
        <time>2021-06-27T14:40:21.000Z</time>
      </trkpt>
      <trkpt lat="43.81542" lon="6.52605">
        <ele>1011</ele>
        <time>2021-06-27T14:40:29.000Z</time>
      </trkpt>
      <trkpt lat="43.81551" lon="6.52602">
        <ele>1010.7</ele>
        <time>2021-06-27T14:40:38.000Z</time>
      </trkpt>
      <trkpt lat="43.81561" lon="6.526">
        <ele>1010.7</ele>
        <time>2021-06-27T14:40:47.000Z</time>
      </trkpt>
      <trkpt lat="43.8157" lon="6.526">
        <ele>1010.8</ele>
        <time>2021-06-27T14:40:55.000Z</time>
      </trkpt>
      <trkpt lat="43.8158" lon="6.52597">
        <ele>1009.9</ele>
        <time>2021-06-27T14:41:03.000Z</time>
      </trkpt>
      <trkpt lat="43.81589" lon="6.5259">
        <ele>1008.8</ele>
        <time>2021-06-27T14:41:11.000Z</time>
      </trkpt>
      <trkpt lat="43.81595" lon="6.52579">
        <ele>1008.3</ele>
        <time>2021-06-27T14:41:18.000Z</time>
      </trkpt>
      <trkpt lat="43.81605" lon="6.52575">
        <ele>1007.9</ele>
        <time>2021-06-27T14:41:25.000Z</time>
      </trkpt>
      <trkpt lat="43.81613" lon="6.5257">
        <ele>1006.9</ele>
        <time>2021-06-27T14:41:35.000Z</time>
      </trkpt>
      <trkpt lat="43.81622" lon="6.52567">
        <ele>1006.7</ele>
        <time>2021-06-27T14:41:42.000Z</time>
      </trkpt>
      <trkpt lat="43.8163" lon="6.52558">
        <ele>1005.1</ele>
        <time>2021-06-27T14:41:52.000Z</time>
      </trkpt>
      <trkpt lat="43.81635" lon="6.52547">
        <ele>1002.2</ele>
        <time>2021-06-27T14:42:02.000Z</time>
      </trkpt>
      <trkpt lat="43.81643" lon="6.52538">
        <ele>999.7</ele>
        <time>2021-06-27T14:42:11.000Z</time>
      </trkpt>
      <trkpt lat="43.81649" lon="6.52528">
        <ele>997.1</ele>
        <time>2021-06-27T14:42:20.000Z</time>
      </trkpt>
      <trkpt lat="43.81657" lon="6.52524">
        <ele>995.1</ele>
        <time>2021-06-27T14:42:37.000Z</time>
      </trkpt>
      <trkpt lat="43.81667" lon="6.52517">
        <ele>993.5</ele>
        <time>2021-06-27T14:42:47.000Z</time>
      </trkpt>
      <trkpt lat="43.81675" lon="6.5251">
        <ele>992.2</ele>
        <time>2021-06-27T14:42:55.000Z</time>
      </trkpt>
      <trkpt lat="43.81683" lon="6.52506">
        <ele>989.9</ele>
        <time>2021-06-27T14:43:22.000Z</time>
      </trkpt>
      <trkpt lat="43.81692" lon="6.52507">
        <ele>989.5</ele>
        <time>2021-06-27T14:43:37.000Z</time>
      </trkpt>
      <trkpt lat="43.81701" lon="6.52513">
        <ele>989.5</ele>
        <time>2021-06-27T14:45:18.000Z</time>
      </trkpt>
      <trkpt lat="43.81712" lon="6.52513">
        <ele>988.6</ele>
        <time>2021-06-27T14:45:35.000Z</time>
      </trkpt>
      <trkpt lat="43.81723" lon="6.52514">
        <ele>988.1</ele>
        <time>2021-06-27T14:45:45.000Z</time>
      </trkpt>
      <trkpt lat="43.81733" lon="6.52516">
        <ele>987.1</ele>
        <time>2021-06-27T14:45:52.000Z</time>
      </trkpt>
      <trkpt lat="43.81742" lon="6.52516">
        <ele>985</ele>
        <time>2021-06-27T14:46:05.000Z</time>
      </trkpt>
      <trkpt lat="43.81752" lon="6.52519">
        <ele>981.3</ele>
        <time>2021-06-27T14:46:19.000Z</time>
      </trkpt>
      <trkpt lat="43.81761" lon="6.5252">
        <ele>979.1</ele>
        <time>2021-06-27T14:46:27.000Z</time>
      </trkpt>
      <trkpt lat="43.81772" lon="6.5252">
        <ele>978.2</ele>
        <time>2021-06-27T14:46:30.000Z</time>
      </trkpt>
      <trkpt lat="43.81781" lon="6.52514">
        <ele>977.2</ele>
        <time>2021-06-27T14:46:36.000Z</time>
      </trkpt>
      <trkpt lat="43.81785" lon="6.52503">
        <ele>975.5</ele>
        <time>2021-06-27T14:46:49.000Z</time>
      </trkpt>
      <trkpt lat="43.81787" lon="6.5249">
        <ele>973.1</ele>
        <time>2021-06-27T14:47:01.000Z</time>
      </trkpt>
      <trkpt lat="43.81793" lon="6.52481">
        <ele>969.5</ele>
        <time>2021-06-27T14:47:15.000Z</time>
      </trkpt>
      <trkpt lat="43.81802" lon="6.5248">
        <ele>966</ele>
        <time>2021-06-27T14:47:28.000Z</time>
      </trkpt>
      <trkpt lat="43.8181" lon="6.52473">
        <ele>964.9</ele>
        <time>2021-06-27T14:47:35.000Z</time>
      </trkpt>
      <trkpt lat="43.81811" lon="6.5246">
        <ele>965.3</ele>
        <time>2021-06-27T14:47:44.000Z</time>
      </trkpt>
      <trkpt lat="43.81812" lon="6.52447">
        <ele>966.4</ele>
        <time>2021-06-27T14:47:51.000Z</time>
      </trkpt>
      <trkpt lat="43.81814" lon="6.52434">
        <ele>967.3</ele>
        <time>2021-06-27T14:48:00.000Z</time>
      </trkpt>
      <trkpt lat="43.81813" lon="6.52421">
        <ele>966.9</ele>
        <time>2021-06-27T14:48:42.000Z</time>
      </trkpt>
      <trkpt lat="43.81809" lon="6.52409">
        <ele>965.4</ele>
        <time>2021-06-27T14:48:52.000Z</time>
      </trkpt>
      <trkpt lat="43.81803" lon="6.524">
        <ele>963.4</ele>
        <time>2021-06-27T14:49:02.000Z</time>
      </trkpt>
      <trkpt lat="43.818" lon="6.52387">
        <ele>961.1</ele>
        <time>2021-06-27T14:49:11.000Z</time>
      </trkpt>
      <trkpt lat="43.81799" lon="6.52374">
        <ele>959.6</ele>
        <time>2021-06-27T14:49:21.000Z</time>
      </trkpt>
      <trkpt lat="43.81797" lon="6.5236">
        <ele>957.7</ele>
        <time>2021-06-27T14:49:31.000Z</time>
      </trkpt>
      <trkpt lat="43.81796" lon="6.52348">
        <ele>956.2</ele>
        <time>2021-06-27T14:49:39.000Z</time>
      </trkpt>
      <trkpt lat="43.81795" lon="6.52335">
        <ele>954.5</ele>
        <time>2021-06-27T14:49:47.000Z</time>
      </trkpt>
      <trkpt lat="43.81794" lon="6.52321">
        <ele>953</ele>
        <time>2021-06-27T14:49:56.000Z</time>
      </trkpt>
      <trkpt lat="43.81794" lon="6.52306">
        <ele>952.3</ele>
        <time>2021-06-27T14:50:01.000Z</time>
      </trkpt>
      <trkpt lat="43.81791" lon="6.52294">
        <ele>951.9</ele>
        <time>2021-06-27T14:50:08.000Z</time>
      </trkpt>
      <trkpt lat="43.81787" lon="6.5228">
        <ele>951.5</ele>
        <time>2021-06-27T14:50:16.000Z</time>
      </trkpt>
      <trkpt lat="43.81786" lon="6.52266">
        <ele>951.1</ele>
        <time>2021-06-27T14:50:24.000Z</time>
      </trkpt>
      <trkpt lat="43.81786" lon="6.52252">
        <ele>950.4</ele>
        <time>2021-06-27T14:50:32.000Z</time>
      </trkpt>
      <trkpt lat="43.81785" lon="6.52239">
        <ele>949.6</ele>
        <time>2021-06-27T14:50:39.000Z</time>
      </trkpt>
      <trkpt lat="43.81782" lon="6.52226">
        <ele>947.9</ele>
        <time>2021-06-27T14:50:50.000Z</time>
      </trkpt>
      <trkpt lat="43.8178" lon="6.52212">
        <ele>946.7</ele>
        <time>2021-06-27T14:50:58.000Z</time>
      </trkpt>
      <trkpt lat="43.81776" lon="6.522">
        <ele>945.7</ele>
        <time>2021-06-27T14:51:05.000Z</time>
      </trkpt>
      <trkpt lat="43.81773" lon="6.52187">
        <ele>944.9</ele>
        <time>2021-06-27T14:51:13.000Z</time>
      </trkpt>
      <trkpt lat="43.81769" lon="6.52174">
        <ele>944.1</ele>
        <time>2021-06-27T14:51:20.000Z</time>
      </trkpt>
      <trkpt lat="43.81766" lon="6.52161">
        <ele>942.7</ele>
        <time>2021-06-27T14:51:30.000Z</time>
      </trkpt>
      <trkpt lat="43.81765" lon="6.52148">
        <ele>940.3</ele>
        <time>2021-06-27T14:51:41.000Z</time>
      </trkpt>
      <trkpt lat="43.81762" lon="6.52135">
        <ele>937.9</ele>
        <time>2021-06-27T14:51:50.000Z</time>
      </trkpt>
      <trkpt lat="43.8176" lon="6.52123">
        <ele>935.2</ele>
        <time>2021-06-27T14:51:59.000Z</time>
      </trkpt>
      <trkpt lat="43.81762" lon="6.5211">
        <ele>932.6</ele>
        <time>2021-06-27T14:52:08.000Z</time>
      </trkpt>
      <trkpt lat="43.81763" lon="6.52096">
        <ele>930.4</ele>
        <time>2021-06-27T14:52:17.000Z</time>
      </trkpt>
      <trkpt lat="43.81766" lon="6.52084">
        <ele>929</ele>
        <time>2021-06-27T14:52:24.000Z</time>
      </trkpt>
      <trkpt lat="43.81766" lon="6.52071">
        <ele>927.4</ele>
        <time>2021-06-27T14:52:32.000Z</time>
      </trkpt>
      <trkpt lat="43.81768" lon="6.52058">
        <ele>925.8</ele>
        <time>2021-06-27T14:52:40.000Z</time>
      </trkpt>
      <trkpt lat="43.81768" lon="6.52044">
        <ele>924.3</ele>
        <time>2021-06-27T14:52:48.000Z</time>
      </trkpt>
      <trkpt lat="43.81769" lon="6.52031">
        <ele>923.4</ele>
        <time>2021-06-27T14:52:54.000Z</time>
      </trkpt>
      <trkpt lat="43.81766" lon="6.52017">
        <ele>922.7</ele>
        <time>2021-06-27T14:53:00.000Z</time>
      </trkpt>
      <trkpt lat="43.81766" lon="6.52004">
        <ele>921.7</ele>
        <time>2021-06-27T14:53:07.000Z</time>
      </trkpt>
      <trkpt lat="43.8177" lon="6.51991">
        <ele>921.2</ele>
        <time>2021-06-27T14:53:13.000Z</time>
      </trkpt>
      <trkpt lat="43.81773" lon="6.51979">
        <ele>920.6</ele>
        <time>2021-06-27T14:53:20.000Z</time>
      </trkpt>
      <trkpt lat="43.81779" lon="6.51968">
        <ele>918.8</ele>
        <time>2021-06-27T14:53:35.000Z</time>
      </trkpt>
      <trkpt lat="43.81779" lon="6.51955">
        <ele>916.8</ele>
        <time>2021-06-27T14:53:46.000Z</time>
      </trkpt>
      <trkpt lat="43.81778" lon="6.51942">
        <ele>915.3</ele>
        <time>2021-06-27T14:53:53.000Z</time>
      </trkpt>
      <trkpt lat="43.81778" lon="6.51929">
        <ele>913.1</ele>
        <time>2021-06-27T14:54:03.000Z</time>
      </trkpt>
      <trkpt lat="43.81779" lon="6.51916">
        <ele>910.6</ele>
        <time>2021-06-27T14:54:15.000Z</time>
      </trkpt>
      <trkpt lat="43.81778" lon="6.51904">
        <ele>909.4</ele>
        <time>2021-06-27T14:54:56.000Z</time>
      </trkpt>
      <trkpt lat="43.81775" lon="6.51892">
        <ele>908.7</ele>
        <time>2021-06-27T14:55:08.000Z</time>
      </trkpt>
      <trkpt lat="43.8177" lon="6.51881">
        <ele>906.7</ele>
        <time>2021-06-27T14:55:19.000Z</time>
      </trkpt>
      <trkpt lat="43.81766" lon="6.5187">
        <ele>904.8</ele>
        <time>2021-06-27T14:55:30.000Z</time>
      </trkpt>
      <trkpt lat="43.8176" lon="6.5186">
        <ele>902.7</ele>
        <time>2021-06-27T14:55:39.000Z</time>
      </trkpt>
      <trkpt lat="43.81755" lon="6.51848">
        <ele>900.5</ele>
        <time>2021-06-27T14:55:48.000Z</time>
      </trkpt>
      <trkpt lat="43.81754" lon="6.51835">
        <ele>898</ele>
        <time>2021-06-27T14:56:00.000Z</time>
      </trkpt>
      <trkpt lat="43.81754" lon="6.51822">
        <ele>896.4</ele>
        <time>2021-06-27T14:56:09.000Z</time>
      </trkpt>
      <trkpt lat="43.81754" lon="6.51808">
        <ele>895</ele>
        <time>2021-06-27T14:56:17.000Z</time>
      </trkpt>
      <trkpt lat="43.81754" lon="6.51795">
        <ele>893.6</ele>
        <time>2021-06-27T14:56:24.000Z</time>
      </trkpt>
      <trkpt lat="43.81756" lon="6.51781">
        <ele>891.5</ele>
        <time>2021-06-27T14:56:34.000Z</time>
      </trkpt>
      <trkpt lat="43.81756" lon="6.51768">
        <ele>890.2</ele>
        <time>2021-06-27T14:56:41.000Z</time>
      </trkpt>
      <trkpt lat="43.8175" lon="6.51755">
        <ele>888.4</ele>
        <time>2021-06-27T14:56:49.000Z</time>
      </trkpt>
      <trkpt lat="43.81745" lon="6.51745">
        <ele>887.2</ele>
        <time>2021-06-27T14:56:56.000Z</time>
      </trkpt>
      <trkpt lat="43.81737" lon="6.51739">
        <ele>885.9</ele>
        <time>2021-06-27T14:57:04.000Z</time>
      </trkpt>
      <trkpt lat="43.8173" lon="6.51731">
        <ele>884.9</ele>
        <time>2021-06-27T14:57:12.000Z</time>
      </trkpt>
      <trkpt lat="43.81727" lon="6.51719">
        <ele>882.7</ele>
        <time>2021-06-27T14:57:22.000Z</time>
      </trkpt>
      <trkpt lat="43.81724" lon="6.51706">
        <ele>880.5</ele>
        <time>2021-06-27T14:58:11.000Z</time>
      </trkpt>
      <trkpt lat="43.81718" lon="6.51697">
        <ele>879.3</ele>
        <time>2021-06-27T14:59:27.000Z</time>
      </trkpt>
      <trkpt lat="43.81709" lon="6.51696">
        <ele>878.2</ele>
        <time>2021-06-27T14:59:45.000Z</time>
      </trkpt>
      <trkpt lat="43.81718" lon="6.51694">
        <ele>879</ele>
        <time>2021-06-27T15:00:06.000Z</time>
      </trkpt>
      <trkpt lat="43.81724" lon="6.51684">
        <ele>878.9</ele>
        <time>2021-06-27T15:02:54.000Z</time>
      </trkpt>
      <trkpt lat="43.81727" lon="6.51672">
        <ele>877.8</ele>
        <time>2021-06-27T15:03:03.000Z</time>
      </trkpt>
      <trkpt lat="43.81723" lon="6.51661">
        <ele>875.5</ele>
        <time>2021-06-27T15:03:15.000Z</time>
      </trkpt>
      <trkpt lat="43.81713" lon="6.51656">
        <ele>873.9</ele>
        <time>2021-06-27T15:03:26.000Z</time>
      </trkpt>
      <trkpt lat="43.81707" lon="6.51645">
        <ele>873</ele>
        <time>2021-06-27T15:03:35.000Z</time>
      </trkpt>
      <trkpt lat="43.817" lon="6.51636">
        <ele>872.2</ele>
        <time>2021-06-27T15:03:43.000Z</time>
      </trkpt>
      <trkpt lat="43.81691" lon="6.51631">
        <ele>870.9</ele>
        <time>2021-06-27T15:03:53.000Z</time>
      </trkpt>
      <trkpt lat="43.81683" lon="6.51625">
        <ele>869.2</ele>
        <time>2021-06-27T15:04:03.000Z</time>
      </trkpt>
      <trkpt lat="43.81674" lon="6.51619">
        <ele>867.3</ele>
        <time>2021-06-27T15:04:14.000Z</time>
      </trkpt>
      <trkpt lat="43.81669" lon="6.51608">
        <ele>865.7</ele>
        <time>2021-06-27T15:04:24.000Z</time>
      </trkpt>
      <trkpt lat="43.81663" lon="6.51597">
        <ele>863.8</ele>
        <time>2021-06-27T15:04:34.000Z</time>
      </trkpt>
      <trkpt lat="43.81659" lon="6.51584">
        <ele>862.2</ele>
        <time>2021-06-27T15:04:44.000Z</time>
      </trkpt>
      <trkpt lat="43.81654" lon="6.51573">
        <ele>860.7</ele>
        <time>2021-06-27T15:04:52.000Z</time>
      </trkpt>
      <trkpt lat="43.81652" lon="6.5156">
        <ele>858.7</ele>
        <time>2021-06-27T15:05:02.000Z</time>
      </trkpt>
      <trkpt lat="43.8165" lon="6.51547">
        <ele>857.4</ele>
        <time>2021-06-27T15:05:12.000Z</time>
      </trkpt>
      <trkpt lat="43.81651" lon="6.51534">
        <ele>855.9</ele>
        <time>2021-06-27T15:05:23.000Z</time>
      </trkpt>
      <trkpt lat="43.81655" lon="6.51521">
        <ele>854</ele>
        <time>2021-06-27T15:05:36.000Z</time>
      </trkpt>
      <trkpt lat="43.81654" lon="6.51509">
        <ele>852.7</ele>
        <time>2021-06-27T15:05:44.000Z</time>
      </trkpt>
      <trkpt lat="43.81654" lon="6.51495">
        <ele>851.8</ele>
        <time>2021-06-27T15:05:51.000Z</time>
      </trkpt>
      <trkpt lat="43.81655" lon="6.51481">
        <ele>851.2</ele>
        <time>2021-06-27T15:05:59.000Z</time>
      </trkpt>
      <trkpt lat="43.81655" lon="6.51468">
        <ele>850.2</ele>
        <time>2021-06-27T15:06:08.000Z</time>
      </trkpt>
      <trkpt lat="43.81654" lon="6.51456">
        <ele>848.9</ele>
        <time>2021-06-27T15:06:16.000Z</time>
      </trkpt>
      <trkpt lat="43.81653" lon="6.51444">
        <ele>847.8</ele>
        <time>2021-06-27T15:06:23.000Z</time>
      </trkpt>
      <trkpt lat="43.81651" lon="6.51431">
        <ele>846.4</ele>
        <time>2021-06-27T15:06:32.000Z</time>
      </trkpt>
      <trkpt lat="43.81651" lon="6.51418">
        <ele>845</ele>
        <time>2021-06-27T15:06:42.000Z</time>
      </trkpt>
      <trkpt lat="43.8165" lon="6.51404">
        <ele>843</ele>
        <time>2021-06-27T15:06:52.000Z</time>
      </trkpt>
      <trkpt lat="43.81649" lon="6.51392">
        <ele>841.4</ele>
        <time>2021-06-27T15:07:01.000Z</time>
      </trkpt>
      <trkpt lat="43.8165" lon="6.51379">
        <ele>840</ele>
        <time>2021-06-27T15:07:09.000Z</time>
      </trkpt>
      <trkpt lat="43.81653" lon="6.51366">
        <ele>838.4</ele>
        <time>2021-06-27T15:07:18.000Z</time>
      </trkpt>
      <trkpt lat="43.81655" lon="6.51353">
        <ele>836.5</ele>
        <time>2021-06-27T15:07:28.000Z</time>
      </trkpt>
      <trkpt lat="43.81662" lon="6.51344">
        <ele>834.6</ele>
        <time>2021-06-27T15:07:38.000Z</time>
      </trkpt>
      <trkpt lat="43.8167" lon="6.51338">
        <ele>831.5</ele>
        <time>2021-06-27T15:07:49.000Z</time>
      </trkpt>
      <trkpt lat="43.81678" lon="6.51332">
        <ele>829</ele>
        <time>2021-06-27T15:07:58.000Z</time>
      </trkpt>
      <trkpt lat="43.81684" lon="6.51322">
        <ele>826.6</ele>
        <time>2021-06-27T15:08:08.000Z</time>
      </trkpt>
      <trkpt lat="43.81688" lon="6.5131">
        <ele>824.7</ele>
        <time>2021-06-27T15:08:19.000Z</time>
      </trkpt>
      <trkpt lat="43.81689" lon="6.51297">
        <ele>823.2</ele>
        <time>2021-06-27T15:08:26.000Z</time>
      </trkpt>
      <trkpt lat="43.81689" lon="6.51284">
        <ele>821.4</ele>
        <time>2021-06-27T15:08:33.000Z</time>
      </trkpt>
      <trkpt lat="43.81687" lon="6.51272">
        <ele>819.5</ele>
        <time>2021-06-27T15:08:44.000Z</time>
      </trkpt>
      <trkpt lat="43.81689" lon="6.51259">
        <ele>817.5</ele>
        <time>2021-06-27T15:08:54.000Z</time>
      </trkpt>
      <trkpt lat="43.81694" lon="6.51248">
        <ele>815</ele>
        <time>2021-06-27T15:09:04.000Z</time>
      </trkpt>
      <trkpt lat="43.81696" lon="6.51236">
        <ele>812.8</ele>
        <time>2021-06-27T15:09:12.000Z</time>
      </trkpt>
      <trkpt lat="43.81697" lon="6.51223">
        <ele>810.9</ele>
        <time>2021-06-27T15:09:20.000Z</time>
      </trkpt>
      <trkpt lat="43.81701" lon="6.5121">
        <ele>808.6</ele>
        <time>2021-06-27T15:09:29.000Z</time>
      </trkpt>
      <trkpt lat="43.81706" lon="6.512">
        <ele>807</ele>
        <time>2021-06-27T15:09:37.000Z</time>
      </trkpt>
      <trkpt lat="43.81708" lon="6.51187">
        <ele>805</ele>
        <time>2021-06-27T15:09:46.000Z</time>
      </trkpt>
      <trkpt lat="43.81711" lon="6.51175">
        <ele>803.2</ele>
        <time>2021-06-27T15:09:54.000Z</time>
      </trkpt>
      <trkpt lat="43.8171" lon="6.51162">
        <ele>801.9</ele>
        <time>2021-06-27T15:10:01.000Z</time>
      </trkpt>
      <trkpt lat="43.81713" lon="6.5115">
        <ele>800.3</ele>
        <time>2021-06-27T15:10:10.000Z</time>
      </trkpt>
      <trkpt lat="43.81714" lon="6.51136">
        <ele>797.9</ele>
        <time>2021-06-27T15:10:22.000Z</time>
      </trkpt>
      <trkpt lat="43.81718" lon="6.51124">
        <ele>795.5</ele>
        <time>2021-06-27T15:10:32.000Z</time>
      </trkpt>
      <trkpt lat="43.81726" lon="6.51131">
        <ele>791</ele>
        <time>2021-06-27T15:10:52.000Z</time>
      </trkpt>
      <trkpt lat="43.81736" lon="6.51133">
        <ele>788.7</ele>
        <time>2021-06-27T15:11:01.000Z</time>
      </trkpt>
      <trkpt lat="43.81747" lon="6.51136">
        <ele>786.7</ele>
        <time>2021-06-27T15:11:09.000Z</time>
      </trkpt>
      <trkpt lat="43.81754" lon="6.51143">
        <ele>785.1</ele>
        <time>2021-06-27T15:11:17.000Z</time>
      </trkpt>
      <trkpt lat="43.81761" lon="6.51152">
        <ele>783.4</ele>
        <time>2021-06-27T15:11:26.000Z</time>
      </trkpt>
      <trkpt lat="43.81769" lon="6.5116">
        <ele>780.9</ele>
        <time>2021-06-27T15:11:35.000Z</time>
      </trkpt>
      <trkpt lat="43.81778" lon="6.51159">
        <ele>779.2</ele>
        <time>2021-06-27T15:12:05.000Z</time>
      </trkpt>
      <trkpt lat="43.81785" lon="6.51151">
        <ele>778.4</ele>
        <time>2021-06-27T15:12:50.000Z</time>
      </trkpt>
      <trkpt lat="43.81791" lon="6.5114">
        <ele>779.2</ele>
        <time>2021-06-27T15:13:01.000Z</time>
      </trkpt>
      <trkpt lat="43.81793" lon="6.51126">
        <ele>779.9</ele>
        <time>2021-06-27T15:13:09.000Z</time>
      </trkpt>
      <trkpt lat="43.81793" lon="6.51113">
        <ele>780.3</ele>
        <time>2021-06-27T15:13:17.000Z</time>
      </trkpt>
      <trkpt lat="43.81789" lon="6.51101">
        <ele>780.3</ele>
        <time>2021-06-27T15:13:23.000Z</time>
      </trkpt>
      <trkpt lat="43.81785" lon="6.51088">
        <ele>781</ele>
        <time>2021-06-27T15:13:30.000Z</time>
      </trkpt>
      <trkpt lat="43.81783" lon="6.51076">
        <ele>781.7</ele>
        <time>2021-06-27T15:13:38.000Z</time>
      </trkpt>
      <trkpt lat="43.81785" lon="6.51063">
        <ele>782</ele>
        <time>2021-06-27T15:13:52.000Z</time>
      </trkpt>
      <trkpt lat="43.81791" lon="6.51052">
        <ele>781.5</ele>
        <time>2021-06-27T15:14:00.000Z</time>
      </trkpt>
      <trkpt lat="43.81796" lon="6.51041">
        <ele>781.2</ele>
        <time>2021-06-27T15:14:06.000Z</time>
      </trkpt>
      <trkpt lat="43.81804" lon="6.51035">
        <ele>780.5</ele>
        <time>2021-06-27T15:14:12.000Z</time>
      </trkpt>
      <trkpt lat="43.81814" lon="6.51028">
        <ele>779.8</ele>
        <time>2021-06-27T15:14:19.000Z</time>
      </trkpt>
      <trkpt lat="43.81821" lon="6.5102">
        <ele>778.9</ele>
        <time>2021-06-27T15:14:29.000Z</time>
      </trkpt>
      <trkpt lat="43.8183" lon="6.51013">
        <ele>777.3</ele>
        <time>2021-06-27T15:14:38.000Z</time>
      </trkpt>
      <trkpt lat="43.81837" lon="6.51006">
        <ele>776</ele>
        <time>2021-06-27T15:14:45.000Z</time>
      </trkpt>
      <trkpt lat="43.81845" lon="6.50995">
        <ele>774.4</ele>
        <time>2021-06-27T15:14:54.000Z</time>
      </trkpt>
      <trkpt lat="43.8185" lon="6.50985">
        <ele>772.6</ele>
        <time>2021-06-27T15:15:02.000Z</time>
      </trkpt>
      <trkpt lat="43.8186" lon="6.5098">
        <ele>770.9</ele>
        <time>2021-06-27T15:15:10.000Z</time>
      </trkpt>
      <trkpt lat="43.81869" lon="6.50975">
        <ele>768.9</ele>
        <time>2021-06-27T15:15:19.000Z</time>
      </trkpt>
      <trkpt lat="43.81876" lon="6.50964">
        <ele>767.3</ele>
        <time>2021-06-27T15:15:26.000Z</time>
      </trkpt>
      <trkpt lat="43.81885" lon="6.50958">
        <ele>765.5</ele>
        <time>2021-06-27T15:15:35.000Z</time>
      </trkpt>
      <trkpt lat="43.81894" lon="6.50963">
        <ele>763.4</ele>
        <time>2021-06-27T15:15:46.000Z</time>
      </trkpt>
      <trkpt lat="43.81902" lon="6.5097">
        <ele>760.1</ele>
        <time>2021-06-27T15:15:59.000Z</time>
      </trkpt>
      <trkpt lat="43.81911" lon="6.5097">
        <ele>758.3</ele>
        <time>2021-06-27T15:16:06.000Z</time>
      </trkpt>
      <trkpt lat="43.81919" lon="6.50963">
        <ele>757.3</ele>
        <time>2021-06-27T15:16:14.000Z</time>
      </trkpt>
      <trkpt lat="43.81926" lon="6.50955">
        <ele>756.6</ele>
        <time>2021-06-27T15:16:24.000Z</time>
      </trkpt>
      <trkpt lat="43.81935" lon="6.50949">
        <ele>755.8</ele>
        <time>2021-06-27T15:16:32.000Z</time>
      </trkpt>
      <trkpt lat="43.81944" lon="6.50947">
        <ele>754.9</ele>
        <time>2021-06-27T15:16:39.000Z</time>
      </trkpt>
      <trkpt lat="43.81953" lon="6.50943">
        <ele>753</ele>
        <time>2021-06-27T15:16:53.000Z</time>
      </trkpt>
      <trkpt lat="43.81962" lon="6.50936">
        <ele>752</ele>
        <time>2021-06-27T15:17:04.000Z</time>
      </trkpt>
      <trkpt lat="43.81966" lon="6.50925">
        <ele>752</ele>
        <time>2021-06-27T15:17:26.000Z</time>
      </trkpt>
      <trkpt lat="43.81975" lon="6.50919">
        <ele>751.9</ele>
        <time>2021-06-27T15:17:38.000Z</time>
      </trkpt>
      <trkpt lat="43.81984" lon="6.5092">
        <ele>751.6</ele>
        <time>2021-06-27T15:17:45.000Z</time>
      </trkpt>
      <trkpt lat="43.81995" lon="6.50918">
        <ele>750.7</ele>
        <time>2021-06-27T15:17:57.000Z</time>
      </trkpt>
      <trkpt lat="43.82004" lon="6.50913">
        <ele>750.2</ele>
        <time>2021-06-27T15:18:06.000Z</time>
      </trkpt>
      <trkpt lat="43.82011" lon="6.50904">
        <ele>750.1</ele>
        <time>2021-06-27T15:18:16.000Z</time>
      </trkpt>
      <trkpt lat="43.8202" lon="6.509">
        <ele>750.4</ele>
        <time>2021-06-27T15:18:24.000Z</time>
      </trkpt>
      <trkpt lat="43.82028" lon="6.50893">
        <ele>750.7</ele>
        <time>2021-06-27T15:18:31.000Z</time>
      </trkpt>
      <trkpt lat="43.82037" lon="6.5089">
        <ele>750.9</ele>
        <time>2021-06-27T15:18:40.000Z</time>
      </trkpt>
      <trkpt lat="43.82047" lon="6.50891">
        <ele>750.6</ele>
        <time>2021-06-27T15:18:48.000Z</time>
      </trkpt>
      <trkpt lat="43.82056" lon="6.50888">
        <ele>750.3</ele>
        <time>2021-06-27T15:18:54.000Z</time>
      </trkpt>
      <trkpt lat="43.82067" lon="6.50891">
        <ele>750</ele>
        <time>2021-06-27T15:19:02.000Z</time>
      </trkpt>
      <trkpt lat="43.82076" lon="6.50896">
        <ele>749.3</ele>
        <time>2021-06-27T15:19:11.000Z</time>
      </trkpt>
      <trkpt lat="43.82086" lon="6.50896">
        <ele>748.9</ele>
        <time>2021-06-27T15:19:18.000Z</time>
      </trkpt>
      <trkpt lat="43.82095" lon="6.509">
        <ele>748.5</ele>
        <time>2021-06-27T15:19:26.000Z</time>
      </trkpt>
      <trkpt lat="43.82105" lon="6.509">
        <ele>748.2</ele>
        <time>2021-06-27T15:19:32.000Z</time>
      </trkpt>
      <trkpt lat="43.82114" lon="6.50905">
        <ele>748</ele>
        <time>2021-06-27T15:19:41.000Z</time>
      </trkpt>
      <trkpt lat="43.82123" lon="6.50906">
        <ele>747.5</ele>
        <time>2021-06-27T15:19:49.000Z</time>
      </trkpt>
      <trkpt lat="43.82132" lon="6.50901">
        <ele>747.5</ele>
        <time>2021-06-27T15:19:57.000Z</time>
      </trkpt>
      <trkpt lat="43.8214" lon="6.50895">
        <ele>748.4</ele>
        <time>2021-06-27T15:20:23.000Z</time>
      </trkpt>
      <trkpt lat="43.82149" lon="6.50888">
        <ele>748.8</ele>
        <time>2021-06-27T15:21:04.000Z</time>
      </trkpt>
      <trkpt lat="43.82154" lon="6.50876">
        <ele>749.3</ele>
        <time>2021-06-27T15:21:12.000Z</time>
      </trkpt>
      <trkpt lat="43.82161" lon="6.50866">
        <ele>750.2</ele>
        <time>2021-06-27T15:21:22.000Z</time>
      </trkpt>
      <trkpt lat="43.82168" lon="6.50857">
        <ele>751.5</ele>
        <time>2021-06-27T15:21:33.000Z</time>
      </trkpt>
      <trkpt lat="43.82175" lon="6.50848">
        <ele>752.7</ele>
        <time>2021-06-27T15:21:41.000Z</time>
      </trkpt>
      <trkpt lat="43.82182" lon="6.5084">
        <ele>754.2</ele>
        <time>2021-06-27T15:21:51.000Z</time>
      </trkpt>
      <trkpt lat="43.82184" lon="6.50853">
        <ele>756.4</ele>
        <time>2021-06-27T15:22:08.000Z</time>
      </trkpt>
      <trkpt lat="43.82183" lon="6.50867">
        <ele>757.8</ele>
        <time>2021-06-27T15:22:18.000Z</time>
      </trkpt>
      <trkpt lat="43.82192" lon="6.50871">
        <ele>759.7</ele>
        <time>2021-06-27T15:22:30.000Z</time>
      </trkpt>
      <trkpt lat="43.82201" lon="6.50866">
        <ele>761.3</ele>
        <time>2021-06-27T15:22:39.000Z</time>
      </trkpt>
      <trkpt lat="43.8221" lon="6.50859">
        <ele>763</ele>
        <time>2021-06-27T15:22:51.000Z</time>
      </trkpt>
      <trkpt lat="43.82218" lon="6.50852">
        <ele>764.2</ele>
        <time>2021-06-27T15:23:00.000Z</time>
      </trkpt>
      <trkpt lat="43.82227" lon="6.50846">
        <ele>765.6</ele>
        <time>2021-06-27T15:23:12.000Z</time>
      </trkpt>
      <trkpt lat="43.82236" lon="6.50837">
        <ele>766.8</ele>
        <time>2021-06-27T15:23:22.000Z</time>
      </trkpt>
      <trkpt lat="43.82241" lon="6.50827">
        <ele>768.2</ele>
        <time>2021-06-27T15:23:34.000Z</time>
      </trkpt>
      <trkpt lat="43.82247" lon="6.50817">
        <ele>770</ele>
        <time>2021-06-27T15:23:51.000Z</time>
      </trkpt>
      <trkpt lat="43.82249" lon="6.50803">
        <ele>771.4</ele>
        <time>2021-06-27T15:24:02.000Z</time>
      </trkpt>
      <trkpt lat="43.82251" lon="6.50788">
        <ele>772.6</ele>
        <time>2021-06-27T15:24:12.000Z</time>
      </trkpt>
      <trkpt lat="43.82253" lon="6.50776">
        <ele>773.6</ele>
        <time>2021-06-27T15:24:19.000Z</time>
      </trkpt>
      <trkpt lat="43.82253" lon="6.50763">
        <ele>775.8</ele>
        <time>2021-06-27T15:24:30.000Z</time>
      </trkpt>
      <trkpt lat="43.82262" lon="6.50766">
        <ele>779.3</ele>
        <time>2021-06-27T15:24:52.000Z</time>
      </trkpt>
      <trkpt lat="43.82268" lon="6.50776">
        <ele>780.3</ele>
        <time>2021-06-27T15:25:03.000Z</time>
      </trkpt>
      <trkpt lat="43.82277" lon="6.50783">
        <ele>781.1</ele>
        <time>2021-06-27T15:25:11.000Z</time>
      </trkpt>
      <trkpt lat="43.82286" lon="6.5079">
        <ele>781.8</ele>
        <time>2021-06-27T15:25:19.000Z</time>
      </trkpt>
      <trkpt lat="43.82295" lon="6.50796">
        <ele>782.7</ele>
        <time>2021-06-27T15:25:27.000Z</time>
      </trkpt>
      <trkpt lat="43.82302" lon="6.50804">
        <ele>783.3</ele>
        <time>2021-06-27T15:25:34.000Z</time>
      </trkpt>
      <trkpt lat="43.82311" lon="6.5081">
        <ele>784.1</ele>
        <time>2021-06-27T15:25:43.000Z</time>
      </trkpt>
      <trkpt lat="43.82318" lon="6.50818">
        <ele>785.1</ele>
        <time>2021-06-27T15:25:51.000Z</time>
      </trkpt>
      <trkpt lat="43.82325" lon="6.50827">
        <ele>786</ele>
        <time>2021-06-27T15:26:00.000Z</time>
      </trkpt>
      <trkpt lat="43.82332" lon="6.50837">
        <ele>786.9</ele>
        <time>2021-06-27T15:26:09.000Z</time>
      </trkpt>
      <trkpt lat="43.82338" lon="6.50848">
        <ele>788</ele>
        <time>2021-06-27T15:26:18.000Z</time>
      </trkpt>
      <trkpt lat="43.82346" lon="6.50855">
        <ele>788.8</ele>
        <time>2021-06-27T15:26:26.000Z</time>
      </trkpt>
      <trkpt lat="43.82354" lon="6.50861">
        <ele>789.7</ele>
        <time>2021-06-27T15:26:33.000Z</time>
      </trkpt>
      <trkpt lat="43.82363" lon="6.50868">
        <ele>790.7</ele>
        <time>2021-06-27T15:26:40.000Z</time>
      </trkpt>
      <trkpt lat="43.82369" lon="6.50877">
        <ele>791.8</ele>
        <time>2021-06-27T15:26:50.000Z</time>
      </trkpt>
      <trkpt lat="43.82376" lon="6.50887">
        <ele>792.6</ele>
        <time>2021-06-27T15:26:59.000Z</time>
      </trkpt>
      <trkpt lat="43.82385" lon="6.50893">
        <ele>793.1</ele>
        <time>2021-06-27T15:27:05.000Z</time>
      </trkpt>
      <trkpt lat="43.82393" lon="6.50899">
        <ele>793.5</ele>
        <time>2021-06-27T15:27:12.000Z</time>
      </trkpt>
      <trkpt lat="43.82401" lon="6.50908">
        <ele>794.2</ele>
        <time>2021-06-27T15:27:21.000Z</time>
      </trkpt>
      <trkpt lat="43.82409" lon="6.50915">
        <ele>794.9</ele>
        <time>2021-06-27T15:27:29.000Z</time>
      </trkpt>
      <trkpt lat="43.82417" lon="6.50923">
        <ele>795.6</ele>
        <time>2021-06-27T15:27:37.000Z</time>
      </trkpt>
      <trkpt lat="43.82425" lon="6.50928">
        <ele>796.3</ele>
        <time>2021-06-27T15:27:46.000Z</time>
      </trkpt>
      <trkpt lat="43.82434" lon="6.50932">
        <ele>797.1</ele>
        <time>2021-06-27T15:27:55.000Z</time>
      </trkpt>
      <trkpt lat="43.82445" lon="6.50931">
        <ele>798.1</ele>
        <time>2021-06-27T15:28:05.000Z</time>
      </trkpt>
      <trkpt lat="43.82454" lon="6.50934">
        <ele>798.9</ele>
        <time>2021-06-27T15:28:13.000Z</time>
      </trkpt>
      <trkpt lat="43.82463" lon="6.50937">
        <ele>799.7</ele>
        <time>2021-06-27T15:28:19.000Z</time>
      </trkpt>
      <trkpt lat="43.82473" lon="6.50937">
        <ele>800.5</ele>
        <time>2021-06-27T15:28:28.000Z</time>
      </trkpt>
      <trkpt lat="43.82483" lon="6.50936">
        <ele>801.7</ele>
        <time>2021-06-27T15:28:38.000Z</time>
      </trkpt>
      <trkpt lat="43.82492" lon="6.50936">
        <ele>802.8</ele>
        <time>2021-06-27T15:28:47.000Z</time>
      </trkpt>
      <trkpt lat="43.82502" lon="6.50936">
        <ele>803.8</ele>
        <time>2021-06-27T15:28:56.000Z</time>
      </trkpt>
      <trkpt lat="43.82512" lon="6.50935">
        <ele>804.5</ele>
        <time>2021-06-27T15:29:04.000Z</time>
      </trkpt>
      <trkpt lat="43.82522" lon="6.50936">
        <ele>805.2</ele>
        <time>2021-06-27T15:29:12.000Z</time>
      </trkpt>
      <trkpt lat="43.82531" lon="6.50932">
        <ele>806.2</ele>
        <time>2021-06-27T15:29:20.000Z</time>
      </trkpt>
      <trkpt lat="43.8254" lon="6.50935">
        <ele>807.3</ele>
        <time>2021-06-27T15:29:30.000Z</time>
      </trkpt>
      <trkpt lat="43.82549" lon="6.5094">
        <ele>808.3</ele>
        <time>2021-06-27T15:29:38.000Z</time>
      </trkpt>
      <trkpt lat="43.82559" lon="6.50941">
        <ele>809.9</ele>
        <time>2021-06-27T15:29:48.000Z</time>
      </trkpt>
      <trkpt lat="43.82569" lon="6.50944">
        <ele>811.1</ele>
        <time>2021-06-27T15:29:56.000Z</time>
      </trkpt>
      <trkpt lat="43.82578" lon="6.50946">
        <ele>812.1</ele>
        <time>2021-06-27T15:30:03.000Z</time>
      </trkpt>
      <trkpt lat="43.82587" lon="6.50939">
        <ele>812.9</ele>
        <time>2021-06-27T15:30:10.000Z</time>
      </trkpt>
      <trkpt lat="43.82596" lon="6.50934">
        <ele>813.6</ele>
        <time>2021-06-27T15:30:17.000Z</time>
      </trkpt>
      <trkpt lat="43.82604" lon="6.50929">
        <ele>814.5</ele>
        <time>2021-06-27T15:30:26.000Z</time>
      </trkpt>
      <trkpt lat="43.82614" lon="6.50927">
        <ele>815.5</ele>
        <time>2021-06-27T15:30:35.000Z</time>
      </trkpt>
      <trkpt lat="43.82623" lon="6.50924">
        <ele>816.2</ele>
        <time>2021-06-27T15:30:42.000Z</time>
      </trkpt>
      <trkpt lat="43.82633" lon="6.50922">
        <ele>817.3</ele>
        <time>2021-06-27T15:30:50.000Z</time>
      </trkpt>
      <trkpt lat="43.82641" lon="6.5092">
        <ele>818.3</ele>
        <time>2021-06-27T15:30:56.000Z</time>
      </trkpt>
      <trkpt lat="43.8265" lon="6.50913">
        <ele>819</ele>
        <time>2021-06-27T15:31:03.000Z</time>
      </trkpt>
      <trkpt lat="43.82659" lon="6.50911">
        <ele>820</ele>
        <time>2021-06-27T15:31:15.000Z</time>
      </trkpt>
      <trkpt lat="43.82669" lon="6.50914">
        <ele>820.8</ele>
        <time>2021-06-27T15:31:30.000Z</time>
      </trkpt>
      <trkpt lat="43.82679" lon="6.50916">
        <ele>821.2</ele>
        <time>2021-06-27T15:35:30.000Z</time>
      </trkpt>
      <trkpt lat="43.82688" lon="6.5092">
        <ele>820.9</ele>
        <time>2021-06-27T15:35:41.000Z</time>
      </trkpt>
      <trkpt lat="43.82696" lon="6.50926">
        <ele>820.1</ele>
        <time>2021-06-27T15:35:52.000Z</time>
      </trkpt>
      <trkpt lat="43.82704" lon="6.50933">
        <ele>819.1</ele>
        <time>2021-06-27T15:36:02.000Z</time>
      </trkpt>
      <trkpt lat="43.82712" lon="6.5094">
        <ele>817.5</ele>
        <time>2021-06-27T15:36:14.000Z</time>
      </trkpt>
      <trkpt lat="43.82721" lon="6.50946">
        <ele>816.5</ele>
        <time>2021-06-27T15:36:22.000Z</time>
      </trkpt>
      <trkpt lat="43.82729" lon="6.50952">
        <ele>815.3</ele>
        <time>2021-06-27T15:36:30.000Z</time>
      </trkpt>
      <trkpt lat="43.82738" lon="6.50956">
        <ele>813.7</ele>
        <time>2021-06-27T15:36:39.000Z</time>
      </trkpt>
      <trkpt lat="43.82748" lon="6.50957">
        <ele>812.1</ele>
        <time>2021-06-27T15:36:49.000Z</time>
      </trkpt>
      <trkpt lat="43.82757" lon="6.50958">
        <ele>809.1</ele>
        <time>2021-06-27T15:37:01.000Z</time>
      </trkpt>
      <trkpt lat="43.82766" lon="6.50959">
        <ele>807.2</ele>
        <time>2021-06-27T15:37:09.000Z</time>
      </trkpt>
      <trkpt lat="43.82777" lon="6.50961">
        <ele>805.9</ele>
        <time>2021-06-27T15:37:16.000Z</time>
      </trkpt>
      <trkpt lat="43.82786" lon="6.50962">
        <ele>804.6</ele>
        <time>2021-06-27T15:37:25.000Z</time>
      </trkpt>
      <trkpt lat="43.82795" lon="6.50967">
        <ele>803.2</ele>
        <time>2021-06-27T15:37:32.000Z</time>
      </trkpt>
      <trkpt lat="43.82804" lon="6.50969">
        <ele>801.5</ele>
        <time>2021-06-27T15:37:41.000Z</time>
      </trkpt>
      <trkpt lat="43.82813" lon="6.50972">
        <ele>800.2</ele>
        <time>2021-06-27T15:37:50.000Z</time>
      </trkpt>
      <trkpt lat="43.82823" lon="6.50975">
        <ele>799.2</ele>
        <time>2021-06-27T15:37:59.000Z</time>
      </trkpt>
      <trkpt lat="43.82831" lon="6.50982">
        <ele>798.1</ele>
        <time>2021-06-27T15:38:08.000Z</time>
      </trkpt>
      <trkpt lat="43.8284" lon="6.50988">
        <ele>796.5</ele>
        <time>2021-06-27T15:38:18.000Z</time>
      </trkpt>
      <trkpt lat="43.82849" lon="6.50994">
        <ele>794.5</ele>
        <time>2021-06-27T15:38:28.000Z</time>
      </trkpt>
      <trkpt lat="43.82857" lon="6.50999">
        <ele>793.1</ele>
        <time>2021-06-27T15:38:38.000Z</time>
      </trkpt>
      <trkpt lat="43.82865" lon="6.51006">
        <ele>792</ele>
        <time>2021-06-27T15:38:49.000Z</time>
      </trkpt>
      <trkpt lat="43.82875" lon="6.51011">
        <ele>791</ele>
        <time>2021-06-27T15:38:56.000Z</time>
      </trkpt>
      <trkpt lat="43.82879" lon="6.51022">
        <ele>788.1</ele>
        <time>2021-06-27T15:39:13.000Z</time>
      </trkpt>
      <trkpt lat="43.82888" lon="6.5103">
        <ele>786.2</ele>
        <time>2021-06-27T15:39:25.000Z</time>
      </trkpt>
      <trkpt lat="43.82897" lon="6.51037">
        <ele>784.3</ele>
        <time>2021-06-27T15:39:36.000Z</time>
      </trkpt>
      <trkpt lat="43.82905" lon="6.51044">
        <ele>782</ele>
        <time>2021-06-27T15:39:47.000Z</time>
      </trkpt>
      <trkpt lat="43.82915" lon="6.51047">
        <ele>780.4</ele>
        <time>2021-06-27T15:39:56.000Z</time>
      </trkpt>
      <trkpt lat="43.82924" lon="6.51053">
        <ele>778.9</ele>
        <time>2021-06-27T15:40:04.000Z</time>
      </trkpt>
      <trkpt lat="43.82932" lon="6.5106">
        <ele>776.7</ele>
        <time>2021-06-27T15:40:15.000Z</time>
      </trkpt>
      <trkpt lat="43.82939" lon="6.51068">
        <ele>774.5</ele>
        <time>2021-06-27T15:40:27.000Z</time>
      </trkpt>
      <trkpt lat="43.82948" lon="6.51074">
        <ele>772.7</ele>
        <time>2021-06-27T15:40:37.000Z</time>
      </trkpt>
      <trkpt lat="43.82956" lon="6.51083">
        <ele>770.8</ele>
        <time>2021-06-27T15:40:46.000Z</time>
      </trkpt>
      <trkpt lat="43.82965" lon="6.51087">
        <ele>768.9</ele>
        <time>2021-06-27T15:40:55.000Z</time>
      </trkpt>
      <trkpt lat="43.82975" lon="6.5109">
        <ele>767.1</ele>
        <time>2021-06-27T15:41:05.000Z</time>
      </trkpt>
      <trkpt lat="43.82984" lon="6.51093">
        <ele>765.6</ele>
        <time>2021-06-27T15:41:13.000Z</time>
      </trkpt>
      <trkpt lat="43.82994" lon="6.51093">
        <ele>764.1</ele>
        <time>2021-06-27T15:41:21.000Z</time>
      </trkpt>
      <trkpt lat="43.83003" lon="6.5109">
        <ele>762.3</ele>
        <time>2021-06-27T15:41:30.000Z</time>
      </trkpt>
      <trkpt lat="43.83014" lon="6.51088">
        <ele>760.7</ele>
        <time>2021-06-27T15:41:40.000Z</time>
      </trkpt>
      <trkpt lat="43.83023" lon="6.51088">
        <ele>759.3</ele>
        <time>2021-06-27T15:41:47.000Z</time>
      </trkpt>
      <trkpt lat="43.83033" lon="6.51085">
        <ele>758.1</ele>
        <time>2021-06-27T15:41:54.000Z</time>
      </trkpt>
      <trkpt lat="43.83042" lon="6.51083">
        <ele>756.9</ele>
        <time>2021-06-27T15:42:01.000Z</time>
      </trkpt>
      <trkpt lat="43.83051" lon="6.5108">
        <ele>755.4</ele>
        <time>2021-06-27T15:42:09.000Z</time>
      </trkpt>
      <trkpt lat="43.83059" lon="6.51073">
        <ele>754.1</ele>
        <time>2021-06-27T15:42:18.000Z</time>
      </trkpt>
      <trkpt lat="43.83069" lon="6.5107">
        <ele>752.7</ele>
        <time>2021-06-27T15:42:26.000Z</time>
      </trkpt>
      <trkpt lat="43.83078" lon="6.51065">
        <ele>751.2</ele>
        <time>2021-06-27T15:42:34.000Z</time>
      </trkpt>
      <trkpt lat="43.83086" lon="6.51056">
        <ele>749.8</ele>
        <time>2021-06-27T15:42:42.000Z</time>
      </trkpt>
      <trkpt lat="43.83094" lon="6.51051">
        <ele>748.8</ele>
        <time>2021-06-27T15:42:48.000Z</time>
      </trkpt>
      <trkpt lat="43.83102" lon="6.51044">
        <ele>747.3</ele>
        <time>2021-06-27T15:42:56.000Z</time>
      </trkpt>
      <trkpt lat="43.83109" lon="6.51036">
        <ele>746.2</ele>
        <time>2021-06-27T15:43:04.000Z</time>
      </trkpt>
      <trkpt lat="43.83117" lon="6.51028">
        <ele>744.5</ele>
        <time>2021-06-27T15:43:14.000Z</time>
      </trkpt>
      <trkpt lat="43.83125" lon="6.51024">
        <ele>743.1</ele>
        <time>2021-06-27T15:43:22.000Z</time>
      </trkpt>
      <trkpt lat="43.83133" lon="6.51017">
        <ele>741.8</ele>
        <time>2021-06-27T15:43:30.000Z</time>
      </trkpt>
      <trkpt lat="43.83142" lon="6.51011">
        <ele>740.1</ele>
        <time>2021-06-27T15:43:40.000Z</time>
      </trkpt>
      <trkpt lat="43.83151" lon="6.51008">
        <ele>738.5</ele>
        <time>2021-06-27T15:43:49.000Z</time>
      </trkpt>
      <trkpt lat="43.8316" lon="6.51004">
        <ele>737</ele>
        <time>2021-06-27T15:43:58.000Z</time>
      </trkpt>
      <trkpt lat="43.83169" lon="6.51001">
        <ele>735.4</ele>
        <time>2021-06-27T15:44:08.000Z</time>
      </trkpt>
      <trkpt lat="43.83178" lon="6.51">
        <ele>734.1</ele>
        <time>2021-06-27T15:44:16.000Z</time>
      </trkpt>
      <trkpt lat="43.83187" lon="6.50999">
        <ele>732</ele>
        <time>2021-06-27T15:44:27.000Z</time>
      </trkpt>
      <trkpt lat="43.83195" lon="6.50993">
        <ele>729.8</ele>
        <time>2021-06-27T15:44:41.000Z</time>
      </trkpt>
      <trkpt lat="43.83204" lon="6.50989">
        <ele>729.1</ele>
        <time>2021-06-27T15:45:04.000Z</time>
      </trkpt>
      <trkpt lat="43.83213" lon="6.50984">
        <ele>728</ele>
        <time>2021-06-27T15:45:17.000Z</time>
      </trkpt>
      <trkpt lat="43.83223" lon="6.50983">
        <ele>725.4</ele>
        <time>2021-06-27T15:45:33.000Z</time>
      </trkpt>
      <trkpt lat="43.83232" lon="6.5098">
        <ele>723.9</ele>
        <time>2021-06-27T15:45:42.000Z</time>
      </trkpt>
      <trkpt lat="43.83242" lon="6.50978">
        <ele>719.8</ele>
        <time>2021-06-27T15:46:07.000Z</time>
      </trkpt>
      <trkpt lat="43.8325" lon="6.50974">
        <ele>718.5</ele>
        <time>2021-06-27T15:46:22.000Z</time>
      </trkpt>
      <trkpt lat="43.83259" lon="6.50975">
        <ele>717.2</ele>
        <time>2021-06-27T15:46:38.000Z</time>
      </trkpt>
      <trkpt lat="43.83257" lon="6.50988">
        <ele>713.6</ele>
        <time>2021-06-27T15:47:15.000Z</time>
      </trkpt>
      <trkpt lat="43.83254" lon="6.50999">
        <ele>710.2</ele>
        <time>2021-06-27T15:47:48.000Z</time>
      </trkpt>
      <trkpt lat="43.83251" lon="6.51012">
        <ele>708.6</ele>
        <time>2021-06-27T15:48:28.000Z</time>
      </trkpt>
      <trkpt lat="43.83249" lon="6.51024">
        <ele>706.6</ele>
        <time>2021-06-27T15:48:52.000Z</time>
      </trkpt>
      <trkpt lat="43.83251" lon="6.51037">
        <ele>703.6</ele>
        <time>2021-06-27T15:49:33.000Z</time>
      </trkpt>
      <trkpt lat="43.83247" lon="6.51049">
        <ele>700</ele>
        <time>2021-06-27T15:50:11.000Z</time>
      </trkpt>
      <trkpt lat="43.83243" lon="6.5106">
        <ele>696.4</ele>
        <time>2021-06-27T15:50:39.000Z</time>
      </trkpt>
      <trkpt lat="43.83251" lon="6.51068">
        <ele>692.1</ele>
        <time>2021-06-27T15:51:13.000Z</time>
      </trkpt>
      <trkpt lat="43.8326" lon="6.51072">
        <ele>691</ele>
        <time>2021-06-27T15:51:40.000Z</time>
      </trkpt>
      <trkpt lat="43.83263" lon="6.51084">
        <ele>687.1</ele>
        <time>2021-06-27T15:52:39.000Z</time>
      </trkpt>
      <trkpt lat="43.8327" lon="6.51093">
        <ele>689.5</ele>
        <time>2021-06-27T15:54:45.000Z</time>
      </trkpt>
      <trkpt lat="43.83279" lon="6.51092">
        <ele>690.4</ele>
        <time>2021-06-27T15:56:26.000Z</time>
      </trkpt>
      <trkpt lat="43.83288" lon="6.5109">
        <ele>690.7</ele>
        <time>2021-06-27T15:56:40.000Z</time>
      </trkpt>
      <trkpt lat="43.83298" lon="6.51087">
        <ele>692.2</ele>
        <time>2021-06-27T15:56:56.000Z</time>
      </trkpt>
      <trkpt lat="43.83307" lon="6.51085">
        <ele>692.9</ele>
        <time>2021-06-27T15:57:21.000Z</time>
      </trkpt>
      <trkpt lat="43.83315" lon="6.51092">
        <ele>691.5</ele>
        <time>2021-06-27T15:57:41.000Z</time>
      </trkpt>
      <trkpt lat="43.83324" lon="6.51096">
        <ele>690.7</ele>
        <time>2021-06-27T15:58:14.000Z</time>
      </trkpt>
      <trkpt lat="43.8333" lon="6.51106">
        <ele>690.7</ele>
        <time>2021-06-27T15:59:21.000Z</time>
      </trkpt>
      <trkpt lat="43.83334" lon="6.51118">
        <ele>690.2</ele>
        <time>2021-06-27T15:59:55.000Z</time>
      </trkpt>
      <trkpt lat="43.83335" lon="6.51131">
        <ele>690.9</ele>
        <time>2021-06-27T16:00:13.000Z</time>
      </trkpt>
      <trkpt lat="43.83325" lon="6.51133">
        <ele>694.7</ele>
        <time>2021-06-27T16:01:25.000Z</time>
      </trkpt>
      <trkpt lat="43.83329" lon="6.51145">
        <ele>696.8</ele>
        <time>2021-06-27T16:02:54.000Z</time>
      </trkpt>
      <trkpt lat="43.83338" lon="6.51145">
        <ele>693.9</ele>
        <time>2021-06-27T16:06:14.000Z</time>
      </trkpt>
      <trkpt lat="43.83341" lon="6.51133">
        <ele>693.2</ele>
        <time>2021-06-27T16:07:01.000Z</time>
      </trkpt>
      <trkpt lat="43.8335" lon="6.51135">
        <ele>694.2</ele>
        <time>2021-06-27T16:08:02.000Z</time>
      </trkpt>
      <trkpt lat="43.83352" lon="6.51123">
        <ele>692.5</ele>
        <time>2021-06-27T16:08:32.000Z</time>
      </trkpt>
      <trkpt lat="43.8336" lon="6.51116">
        <ele>698.3</ele>
        <time>2021-06-27T16:10:29.000Z</time>
      </trkpt>
      <trkpt lat="43.83362" lon="6.51128">
        <ele>700.7</ele>
        <time>2021-06-27T16:11:22.000Z</time>
      </trkpt>
      <trkpt lat="43.83353" lon="6.51129">
        <ele>703.1</ele>
        <time>2021-06-27T16:12:21.000Z</time>
      </trkpt>
      <trkpt lat="43.83356" lon="6.51141">
        <ele>706.4</ele>
        <time>2021-06-27T16:13:12.000Z</time>
      </trkpt>
      <trkpt lat="43.83359" lon="6.51154">
        <ele>713</ele>
        <time>2021-06-27T16:14:27.000Z</time>
      </trkpt>
      <trkpt lat="43.83362" lon="6.51166">
        <ele>719</ele>
        <time>2021-06-27T16:16:41.000Z</time>
      </trkpt>
      <trkpt lat="43.83367" lon="6.51177">
        <ele>724.5</ele>
        <time>2021-06-27T16:17:45.000Z</time>
      </trkpt>
      <trkpt lat="43.83373" lon="6.51187">
        <ele>731.4</ele>
        <time>2021-06-27T16:18:51.000Z</time>
      </trkpt>
      <trkpt lat="43.83378" lon="6.51197">
        <ele>737.5</ele>
        <time>2021-06-27T16:20:12.000Z</time>
      </trkpt>
      <trkpt lat="43.83386" lon="6.51203">
        <ele>742.7</ele>
        <time>2021-06-27T16:21:43.000Z</time>
      </trkpt>
      <trkpt lat="43.83392" lon="6.51212">
        <ele>746</ele>
        <time>2021-06-27T16:23:06.000Z</time>
      </trkpt>
      <trkpt lat="43.83392" lon="6.51225">
        <ele>755.2</ele>
        <time>2021-06-27T16:28:14.000Z</time>
      </trkpt>
      <trkpt lat="43.83383" lon="6.51227">
        <ele>755.7</ele>
        <time>2021-06-27T16:30:03.000Z</time>
      </trkpt>
      <trkpt lat="43.83381" lon="6.5124">
        <ele>760.6</ele>
        <time>2021-06-27T16:33:49.000Z</time>
      </trkpt>
      <trkpt lat="43.83378" lon="6.51253">
        <ele>766.9</ele>
        <time>2021-06-27T16:37:31.000Z</time>
      </trkpt>
      <trkpt lat="43.83372" lon="6.51262">
        <ele>768.4</ele>
        <time>2021-06-27T16:40:31.000Z</time>
      </trkpt>
      <trkpt lat="43.83368" lon="6.51273">
        <ele>769.4</ele>
        <time>2021-06-27T16:42:15.000Z</time>
      </trkpt>
      <trkpt lat="43.83367" lon="6.51286">
        <ele>774</ele>
        <time>2021-06-27T16:43:28.000Z</time>
      </trkpt>
      <trkpt lat="43.8336" lon="6.51295">
        <ele>776.6</ele>
        <time>2021-06-27T16:44:41.000Z</time>
      </trkpt>
      <trkpt lat="43.83357" lon="6.51306">
        <ele>778.6</ele>
        <time>2021-06-27T16:45:30.000Z</time>
      </trkpt>
      <trkpt lat="43.83353" lon="6.51319">
        <ele>784.1</ele>
        <time>2021-06-27T16:46:56.000Z</time>
      </trkpt>
      <trkpt lat="43.8335" lon="6.51331">
        <ele>786.6</ele>
        <time>2021-06-27T16:47:39.000Z</time>
      </trkpt>
      <trkpt lat="43.83344" lon="6.51341">
        <ele>786.2</ele>
        <time>2021-06-27T16:48:05.000Z</time>
      </trkpt>
      <trkpt lat="43.83344" lon="6.51353">
        <ele>790</ele>
        <time>2021-06-27T16:50:58.000Z</time>
      </trkpt>
      <trkpt lat="43.83347" lon="6.51365">
        <ele>793.4</ele>
        <time>2021-06-27T16:52:12.000Z</time>
      </trkpt>
      <trkpt lat="43.8335" lon="6.51377">
        <ele>793.3</ele>
        <time>2021-06-27T16:55:00.000Z</time>
      </trkpt>
      <trkpt lat="43.83354" lon="6.51366">
        <ele>795.6</ele>
        <time>2021-06-27T16:59:42.000Z</time>
      </trkpt>
      <trkpt lat="43.83362" lon="6.5136">
        <ele>795.7</ele>
        <time>2021-06-27T16:59:52.000Z</time>
      </trkpt>
      <trkpt lat="43.83372" lon="6.51357">
        <ele>795.7</ele>
        <time>2021-06-27T17:00:05.000Z</time>
      </trkpt>
      <trkpt lat="43.83381" lon="6.51357">
        <ele>795.5</ele>
        <time>2021-06-27T17:00:15.000Z</time>
      </trkpt>
      <trkpt lat="43.8339" lon="6.51356">
        <ele>795</ele>
        <time>2021-06-27T17:00:24.000Z</time>
      </trkpt>
      <trkpt lat="43.83399" lon="6.51355">
        <ele>794.2</ele>
        <time>2021-06-27T17:00:33.000Z</time>
      </trkpt>
      <trkpt lat="43.83409" lon="6.51355">
        <ele>793.1</ele>
        <time>2021-06-27T17:00:42.000Z</time>
      </trkpt>
      <trkpt lat="43.83417" lon="6.5135">
        <ele>791.6</ele>
        <time>2021-06-27T17:00:55.000Z</time>
      </trkpt>
      <trkpt lat="43.83425" lon="6.51344">
        <ele>790.3</ele>
        <time>2021-06-27T17:01:07.000Z</time>
      </trkpt>
      <trkpt lat="43.83434" lon="6.5134">
        <ele>789.3</ele>
        <time>2021-06-27T17:01:17.000Z</time>
      </trkpt>
      <trkpt lat="43.83444" lon="6.51338">
        <ele>787.4</ele>
        <time>2021-06-27T17:01:28.000Z</time>
      </trkpt>
      <trkpt lat="43.83453" lon="6.51338">
        <ele>785.6</ele>
        <time>2021-06-27T17:01:38.000Z</time>
      </trkpt>
      <trkpt lat="43.83462" lon="6.51338">
        <ele>783.6</ele>
        <time>2021-06-27T17:01:51.000Z</time>
      </trkpt>
      <trkpt lat="43.83473" lon="6.51339">
        <ele>780.6</ele>
        <time>2021-06-27T17:02:06.000Z</time>
      </trkpt>
      <trkpt lat="43.83483" lon="6.51342">
        <ele>778.8</ele>
        <time>2021-06-27T17:02:17.000Z</time>
      </trkpt>
      <trkpt lat="43.83492" lon="6.51344">
        <ele>777.2</ele>
        <time>2021-06-27T17:02:27.000Z</time>
      </trkpt>
      <trkpt lat="43.835" lon="6.51352">
        <ele>774.4</ele>
        <time>2021-06-27T17:02:43.000Z</time>
      </trkpt>
      <trkpt lat="43.83508" lon="6.51359">
        <ele>773.3</ele>
        <time>2021-06-27T17:02:53.000Z</time>
      </trkpt>
      <trkpt lat="43.83515" lon="6.51366">
        <ele>772.5</ele>
        <time>2021-06-27T17:03:05.000Z</time>
      </trkpt>
      <trkpt lat="43.83523" lon="6.51371">
        <ele>772.4</ele>
        <time>2021-06-27T17:03:10.000Z</time>
      </trkpt>
      <trkpt lat="43.83532" lon="6.51377">
        <ele>772.3</ele>
        <time>2021-06-27T17:03:19.000Z</time>
      </trkpt>
      <trkpt lat="43.8354" lon="6.5138">
        <ele>771.9</ele>
        <time>2021-06-27T17:03:35.000Z</time>
      </trkpt>
      <trkpt lat="43.83548" lon="6.51388">
        <ele>771.2</ele>
        <time>2021-06-27T17:04:15.000Z</time>
      </trkpt>
      <trkpt lat="43.83553" lon="6.51399">
        <ele>772.1</ele>
        <time>2021-06-27T17:04:27.000Z</time>
      </trkpt>
      <trkpt lat="43.83558" lon="6.51409">
        <ele>773.5</ele>
        <time>2021-06-27T17:04:38.000Z</time>
      </trkpt>
      <trkpt lat="43.83566" lon="6.51417">
        <ele>774.3</ele>
        <time>2021-06-27T17:04:50.000Z</time>
      </trkpt>
      <trkpt lat="43.83573" lon="6.51425">
        <ele>774.9</ele>
        <time>2021-06-27T17:05:11.000Z</time>
      </trkpt>
      <trkpt lat="43.83577" lon="6.51436">
        <ele>776</ele>
        <time>2021-06-27T17:07:21.000Z</time>
      </trkpt>
      <trkpt lat="43.83586" lon="6.5144">
        <ele>778.6</ele>
        <time>2021-06-27T17:07:41.000Z</time>
      </trkpt>
      <trkpt lat="43.83595" lon="6.51444">
        <ele>779.6</ele>
        <time>2021-06-27T17:08:14.000Z</time>
      </trkpt>
      <trkpt lat="43.83598" lon="6.51457">
        <ele>782.5</ele>
        <time>2021-06-27T17:08:50.000Z</time>
      </trkpt>
      <trkpt lat="43.83607" lon="6.51455">
        <ele>783.4</ele>
        <time>2021-06-27T17:09:09.000Z</time>
      </trkpt>
      <trkpt lat="43.83617" lon="6.51458">
        <ele>784.4</ele>
        <time>2021-06-27T17:09:29.000Z</time>
      </trkpt>
      <trkpt lat="43.83625" lon="6.51464">
        <ele>785.5</ele>
        <time>2021-06-27T17:09:42.000Z</time>
      </trkpt>
      <trkpt lat="43.83634" lon="6.51469">
        <ele>787</ele>
        <time>2021-06-27T17:09:53.000Z</time>
      </trkpt>
      <trkpt lat="43.83641" lon="6.51478">
        <ele>788.9</ele>
        <time>2021-06-27T17:10:08.000Z</time>
      </trkpt>
      <trkpt lat="43.83647" lon="6.51489">
        <ele>790.2</ele>
        <time>2021-06-27T17:10:22.000Z</time>
      </trkpt>
      <trkpt lat="43.83648" lon="6.51503">
        <ele>791</ele>
        <time>2021-06-27T17:10:34.000Z</time>
      </trkpt>
      <trkpt lat="43.83646" lon="6.51515">
        <ele>791.9</ele>
        <time>2021-06-27T17:10:45.000Z</time>
      </trkpt>
      <trkpt lat="43.83645" lon="6.51529">
        <ele>792.4</ele>
        <time>2021-06-27T17:10:54.000Z</time>
      </trkpt>
      <trkpt lat="43.83651" lon="6.51538">
        <ele>792.4</ele>
        <time>2021-06-27T17:11:05.000Z</time>
      </trkpt>
      <trkpt lat="43.8366" lon="6.51544">
        <ele>793.1</ele>
        <time>2021-06-27T17:11:17.000Z</time>
      </trkpt>
      <trkpt lat="43.83669" lon="6.51548">
        <ele>793.4</ele>
        <time>2021-06-27T17:11:27.000Z</time>
      </trkpt>
      <trkpt lat="43.83679" lon="6.51552">
        <ele>793.6</ele>
        <time>2021-06-27T17:11:36.000Z</time>
      </trkpt>
      <trkpt lat="43.83688" lon="6.51554">
        <ele>793.5</ele>
        <time>2021-06-27T17:11:46.000Z</time>
      </trkpt>
      <trkpt lat="43.83698" lon="6.51554">
        <ele>793.4</ele>
        <time>2021-06-27T17:11:56.000Z</time>
      </trkpt>
      <trkpt lat="43.83707" lon="6.51559">
        <ele>793.4</ele>
        <time>2021-06-27T17:12:06.000Z</time>
      </trkpt>
      <trkpt lat="43.83717" lon="6.51561">
        <ele>793.4</ele>
        <time>2021-06-27T17:12:14.000Z</time>
      </trkpt>
      <trkpt lat="43.83726" lon="6.51557">
        <ele>793.7</ele>
        <time>2021-06-27T17:12:24.000Z</time>
      </trkpt>
      <trkpt lat="43.83736" lon="6.51561">
        <ele>794.6</ele>
        <time>2021-06-27T17:12:34.000Z</time>
      </trkpt>
      <trkpt lat="43.83744" lon="6.51566">
        <ele>795.8</ele>
        <time>2021-06-27T17:12:44.000Z</time>
      </trkpt>
      <trkpt lat="43.83753" lon="6.51572">
        <ele>796.8</ele>
        <time>2021-06-27T17:12:55.000Z</time>
      </trkpt>
      <trkpt lat="43.83762" lon="6.51577">
        <ele>797.9</ele>
        <time>2021-06-27T17:13:05.000Z</time>
      </trkpt>
      <trkpt lat="43.83771" lon="6.51581">
        <ele>798.6</ele>
        <time>2021-06-27T17:13:15.000Z</time>
      </trkpt>
      <trkpt lat="43.8378" lon="6.51585">
        <ele>799.3</ele>
        <time>2021-06-27T17:13:24.000Z</time>
      </trkpt>
      <trkpt lat="43.83789" lon="6.51585">
        <ele>799.6</ele>
        <time>2021-06-27T17:13:33.000Z</time>
      </trkpt>
      <trkpt lat="43.83798" lon="6.51583">
        <ele>799.8</ele>
        <time>2021-06-27T17:13:47.000Z</time>
      </trkpt>
      <trkpt lat="43.83807" lon="6.51577">
        <ele>799.9</ele>
        <time>2021-06-27T17:14:03.000Z</time>
      </trkpt>
      <trkpt lat="43.83814" lon="6.5157">
        <ele>799.4</ele>
        <time>2021-06-27T17:14:12.000Z</time>
      </trkpt>
      <trkpt lat="43.83823" lon="6.51565">
        <ele>799</ele>
        <time>2021-06-27T17:14:22.000Z</time>
      </trkpt>
      <trkpt lat="43.83828" lon="6.51554">
        <ele>798.6</ele>
        <time>2021-06-27T17:14:32.000Z</time>
      </trkpt>
      <trkpt lat="43.83827" lon="6.51542">
        <ele>798.2</ele>
        <time>2021-06-27T17:14:41.000Z</time>
      </trkpt>
      <trkpt lat="43.83827" lon="6.51529">
        <ele>797.7</ele>
        <time>2021-06-27T17:14:52.000Z</time>
      </trkpt>
      <trkpt lat="43.83819" lon="6.51536">
        <ele>797.1</ele>
        <time>2021-06-27T17:15:37.000Z</time>
      </trkpt>
      <trkpt lat="43.83813" lon="6.51546">
        <ele>797.7</ele>
        <time>2021-06-27T17:15:50.000Z</time>
      </trkpt>
      <trkpt lat="43.8381" lon="6.51558">
        <ele>798.5</ele>
        <time>2021-06-27T17:16:06.000Z</time>
      </trkpt>
      <trkpt lat="43.83803" lon="6.51568">
        <ele>799</ele>
        <time>2021-06-27T17:16:20.000Z</time>
      </trkpt>
      <trkpt lat="43.83794" lon="6.5157">
        <ele>799</ele>
        <time>2021-06-27T17:16:30.000Z</time>
      </trkpt>
      <trkpt lat="43.83785" lon="6.51571">
        <ele>798.8</ele>
        <time>2021-06-27T17:16:44.000Z</time>
      </trkpt>
      <trkpt lat="43.83776" lon="6.51567">
        <ele>798.3</ele>
        <time>2021-06-27T17:16:56.000Z</time>
      </trkpt>
      <trkpt lat="43.83767" lon="6.51566">
        <ele>798.1</ele>
        <time>2021-06-27T17:17:07.000Z</time>
      </trkpt>
      <trkpt lat="43.83758" lon="6.5156">
        <ele>797.7</ele>
        <time>2021-06-27T17:17:19.000Z</time>
      </trkpt>
      <trkpt lat="43.83752" lon="6.51551">
        <ele>796.6</ele>
        <time>2021-06-27T17:17:29.000Z</time>
      </trkpt>
      <trkpt lat="43.83744" lon="6.51543">
        <ele>795.2</ele>
        <time>2021-06-27T17:17:42.000Z</time>
      </trkpt>
      <trkpt lat="43.83738" lon="6.51533">
        <ele>793</ele>
        <time>2021-06-27T17:18:02.000Z</time>
      </trkpt>
      <trkpt lat="43.8374" lon="6.51521">
        <ele>790.7</ele>
        <time>2021-06-27T17:18:22.000Z</time>
      </trkpt>
      <trkpt lat="43.83746" lon="6.51512">
        <ele>788.2</ele>
        <time>2021-06-27T17:19:24.000Z</time>
      </trkpt>
      <trkpt lat="43.83749" lon="6.51499">
        <ele>787.4</ele>
        <time>2021-06-27T17:19:37.000Z</time>
      </trkpt>
      <trkpt lat="43.83751" lon="6.51486">
        <ele>783.6</ele>
        <time>2021-06-27T17:19:55.000Z</time>
      </trkpt>
      <trkpt lat="43.83751" lon="6.51474">
        <ele>779.8</ele>
        <time>2021-06-27T17:20:23.000Z</time>
      </trkpt>
      <trkpt lat="43.83755" lon="6.51462">
        <ele>776.4</ele>
        <time>2021-06-27T17:22:32.000Z</time>
      </trkpt>
      <trkpt lat="43.83763" lon="6.51455">
        <ele>775.8</ele>
        <time>2021-06-27T17:22:48.000Z</time>
      </trkpt>
      <trkpt lat="43.83772" lon="6.51451">
        <ele>775.4</ele>
        <time>2021-06-27T17:23:42.000Z</time>
      </trkpt>
      <trkpt lat="43.83778" lon="6.51441">
        <ele>773.3</ele>
        <time>2021-06-27T17:24:01.000Z</time>
      </trkpt>
      <trkpt lat="43.83781" lon="6.5143">
        <ele>771.6</ele>
        <time>2021-06-27T17:24:25.000Z</time>
      </trkpt>
      <trkpt lat="43.83789" lon="6.51423">
        <ele>769.9</ele>
        <time>2021-06-27T17:24:39.000Z</time>
      </trkpt>
      <trkpt lat="43.83796" lon="6.51414">
        <ele>768.1</ele>
        <time>2021-06-27T17:24:50.000Z</time>
      </trkpt>
      <trkpt lat="43.83802" lon="6.51406">
        <ele>767</ele>
        <time>2021-06-27T17:24:57.000Z</time>
      </trkpt>
      <trkpt lat="43.83809" lon="6.51395">
        <ele>765</ele>
        <time>2021-06-27T17:25:08.000Z</time>
      </trkpt>
      <trkpt lat="43.83818" lon="6.51388">
        <ele>763.8</ele>
        <time>2021-06-27T17:25:15.000Z</time>
      </trkpt>
      <trkpt lat="43.83827" lon="6.51381">
        <ele>762.5</ele>
        <time>2021-06-27T17:25:25.000Z</time>
      </trkpt>
      <trkpt lat="43.83835" lon="6.51375">
        <ele>761.3</ele>
        <time>2021-06-27T17:25:34.000Z</time>
      </trkpt>
      <trkpt lat="43.83843" lon="6.51368">
        <ele>759.9</ele>
        <time>2021-06-27T17:25:43.000Z</time>
      </trkpt>
      <trkpt lat="43.83851" lon="6.51361">
        <ele>758.2</ele>
        <time>2021-06-27T17:25:52.000Z</time>
      </trkpt>
      <trkpt lat="43.8386" lon="6.51355">
        <ele>756.9</ele>
        <time>2021-06-27T17:26:00.000Z</time>
      </trkpt>
      <trkpt lat="43.83869" lon="6.51349">
        <ele>755.3</ele>
        <time>2021-06-27T17:26:09.000Z</time>
      </trkpt>
      <trkpt lat="43.83878" lon="6.51346">
        <ele>753.7</ele>
        <time>2021-06-27T17:26:18.000Z</time>
      </trkpt>
      <trkpt lat="43.83886" lon="6.51339">
        <ele>752.5</ele>
        <time>2021-06-27T17:26:26.000Z</time>
      </trkpt>
      <trkpt lat="43.83895" lon="6.51335">
        <ele>750.9</ele>
        <time>2021-06-27T17:26:35.000Z</time>
      </trkpt>
      <trkpt lat="43.83903" lon="6.51331">
        <ele>749.1</ele>
        <time>2021-06-27T17:26:45.000Z</time>
      </trkpt>
      <trkpt lat="43.83913" lon="6.51325">
        <ele>747.1</ele>
        <time>2021-06-27T17:26:56.000Z</time>
      </trkpt>
      <trkpt lat="43.83921" lon="6.51317">
        <ele>742.7</ele>
        <time>2021-06-27T17:27:13.000Z</time>
      </trkpt>
      <trkpt lat="43.83924" lon="6.51305">
        <ele>743.2</ele>
        <time>2021-06-27T17:27:34.000Z</time>
      </trkpt>
      <trkpt lat="43.83931" lon="6.51296">
        <ele>741.3</ele>
        <time>2021-06-27T17:27:47.000Z</time>
      </trkpt>
      <trkpt lat="43.83933" lon="6.51283">
        <ele>738.9</ele>
        <time>2021-06-27T17:28:01.000Z</time>
      </trkpt>
      <trkpt lat="43.8394" lon="6.51274">
        <ele>737.8</ele>
        <time>2021-06-27T17:28:11.000Z</time>
      </trkpt>
      <trkpt lat="43.83948" lon="6.51266">
        <ele>736.6</ele>
        <time>2021-06-27T17:28:21.000Z</time>
      </trkpt>
      <trkpt lat="43.83956" lon="6.51258">
        <ele>735.2</ele>
        <time>2021-06-27T17:28:32.000Z</time>
      </trkpt>
      <trkpt lat="43.83965" lon="6.51252">
        <ele>733.7</ele>
        <time>2021-06-27T17:28:43.000Z</time>
      </trkpt>
      <trkpt lat="43.83974" lon="6.51249">
        <ele>732.6</ele>
        <time>2021-06-27T17:28:54.000Z</time>
      </trkpt>
      <trkpt lat="43.83983" lon="6.51247">
        <ele>732</ele>
        <time>2021-06-27T17:29:14.000Z</time>
      </trkpt>
      <trkpt lat="43.83992" lon="6.51243">
        <ele>731.5</ele>
        <time>2021-06-27T17:29:22.000Z</time>
      </trkpt>
      <trkpt lat="43.84001" lon="6.51238">
        <ele>730.4</ele>
        <time>2021-06-27T17:29:31.000Z</time>
      </trkpt>
      <trkpt lat="43.84008" lon="6.51231">
        <ele>729.2</ele>
        <time>2021-06-27T17:29:41.000Z</time>
      </trkpt>
      <trkpt lat="43.84018" lon="6.51227">
        <ele>728</ele>
        <time>2021-06-27T17:29:52.000Z</time>
      </trkpt>
      <trkpt lat="43.84026" lon="6.5122">
        <ele>727</ele>
        <time>2021-06-27T17:30:01.000Z</time>
      </trkpt>
      <trkpt lat="43.84034" lon="6.51215">
        <ele>725.5</ele>
        <time>2021-06-27T17:30:11.000Z</time>
      </trkpt>
      <trkpt lat="43.84041" lon="6.51206">
        <ele>718.9</ele>
        <time>2021-06-27T17:31:00.000Z</time>
      </trkpt>
      <trkpt lat="43.84047" lon="6.51196">
        <ele>724.4</ele>
        <time>2021-06-27T17:31:09.000Z</time>
      </trkpt>
      <trkpt lat="43.84053" lon="6.51187">
        <ele>723.8</ele>
        <time>2021-06-27T17:31:17.000Z</time>
      </trkpt>
      <trkpt lat="43.84058" lon="6.51175">
        <ele>722.7</ele>
        <time>2021-06-27T17:31:25.000Z</time>
      </trkpt>
      <trkpt lat="43.84066" lon="6.51168">
        <ele>721.6</ele>
        <time>2021-06-27T17:31:34.000Z</time>
      </trkpt>
      <trkpt lat="43.84075" lon="6.51164">
        <ele>721.1</ele>
        <time>2021-06-27T17:31:44.000Z</time>
      </trkpt>
      <trkpt lat="43.84084" lon="6.51168">
        <ele>720.5</ele>
        <time>2021-06-27T17:31:54.000Z</time>
      </trkpt>
      <trkpt lat="43.84093" lon="6.51176">
        <ele>720.3</ele>
        <time>2021-06-27T17:32:03.000Z</time>
      </trkpt>
      <trkpt lat="43.84102" lon="6.51177">
        <ele>720</ele>
        <time>2021-06-27T17:32:11.000Z</time>
      </trkpt>
      <trkpt lat="43.84111" lon="6.51179">
        <ele>719.1</ele>
        <time>2021-06-27T17:32:20.000Z</time>
      </trkpt>
      <trkpt lat="43.8412" lon="6.51183">
        <ele>717.6</ele>
        <time>2021-06-27T17:32:29.000Z</time>
      </trkpt>
      <trkpt lat="43.84129" lon="6.51186">
        <ele>715.7</ele>
        <time>2021-06-27T17:32:48.000Z</time>
      </trkpt>
      <trkpt lat="43.84131" lon="6.51198">
        <ele>714.5</ele>
        <time>2021-06-27T17:33:23.000Z</time>
      </trkpt>
      <trkpt lat="43.84131" lon="6.51211">
        <ele>713.4</ele>
        <time>2021-06-27T17:33:34.000Z</time>
      </trkpt>
      <trkpt lat="43.84127" lon="6.51222">
        <ele>711.5</ele>
        <time>2021-06-27T17:33:47.000Z</time>
      </trkpt>
      <trkpt lat="43.84121" lon="6.51233">
        <ele>708.7</ele>
        <time>2021-06-27T17:35:27.000Z</time>
      </trkpt>
      <trkpt lat="43.84117" lon="6.51245">
        <ele>707.3</ele>
        <time>2021-06-27T17:35:41.000Z</time>
      </trkpt>
      <trkpt lat="43.84112" lon="6.51255">
        <ele>705.6</ele>
        <time>2021-06-27T17:35:52.000Z</time>
      </trkpt>
      <trkpt lat="43.84105" lon="6.51264">
        <ele>704.2</ele>
        <time>2021-06-27T17:36:02.000Z</time>
      </trkpt>
      <trkpt lat="43.84102" lon="6.51276">
        <ele>702.8</ele>
        <time>2021-06-27T17:36:13.000Z</time>
      </trkpt>
      <trkpt lat="43.84108" lon="6.51285">
        <ele>699.9</ele>
        <time>2021-06-27T17:36:30.000Z</time>
      </trkpt>
      <trkpt lat="43.84117" lon="6.51284">
        <ele>697</ele>
        <time>2021-06-27T17:36:44.000Z</time>
      </trkpt>
      <trkpt lat="43.84128" lon="6.51286">
        <ele>694</ele>
        <time>2021-06-27T17:36:52.000Z</time>
      </trkpt>
      <trkpt lat="43.84136" lon="6.51292">
        <ele>693.7</ele>
        <time>2021-06-27T17:37:04.000Z</time>
      </trkpt>
      <trkpt lat="43.84145" lon="6.51298">
        <ele>691.2</ele>
        <time>2021-06-27T17:37:16.000Z</time>
      </trkpt>
      <trkpt lat="43.84155" lon="6.51302">
        <ele>689.4</ele>
        <time>2021-06-27T17:37:24.000Z</time>
      </trkpt>
      <trkpt lat="43.84164" lon="6.51308">
        <ele>687.4</ele>
        <time>2021-06-27T17:37:34.000Z</time>
      </trkpt>
      <trkpt lat="43.84173" lon="6.51313">
        <ele>685.5</ele>
        <time>2021-06-27T17:37:44.000Z</time>
      </trkpt>
      <trkpt lat="43.84181" lon="6.51318">
        <ele>683.7</ele>
        <time>2021-06-27T17:37:54.000Z</time>
      </trkpt>
      <trkpt lat="43.84189" lon="6.51325">
        <ele>682.1</ele>
        <time>2021-06-27T17:38:03.000Z</time>
      </trkpt>
      <trkpt lat="43.84197" lon="6.51333">
        <ele>680.2</ele>
        <time>2021-06-27T17:38:14.000Z</time>
      </trkpt>
      <trkpt lat="43.84204" lon="6.51341">
        <ele>677.2</ele>
        <time>2021-06-27T17:38:38.000Z</time>
      </trkpt>
      <trkpt lat="43.84212" lon="6.51349">
        <ele>676.2</ele>
        <time>2021-06-27T17:38:55.000Z</time>
      </trkpt>
      <trkpt lat="43.84221" lon="6.51353">
        <ele>674.7</ele>
        <time>2021-06-27T17:39:06.000Z</time>
      </trkpt>
      <trkpt lat="43.84229" lon="6.5136">
        <ele>672.7</ele>
        <time>2021-06-27T17:39:17.000Z</time>
      </trkpt>
      <trkpt lat="43.84237" lon="6.51367">
        <ele>669.9</ele>
        <time>2021-06-27T17:39:35.000Z</time>
      </trkpt>
      <trkpt lat="43.84246" lon="6.51373">
        <ele>668.3</ele>
        <time>2021-06-27T17:39:47.000Z</time>
      </trkpt>
      <trkpt lat="43.84254" lon="6.51378">
        <ele>666.5</ele>
        <time>2021-06-27T17:39:58.000Z</time>
      </trkpt>
      <trkpt lat="43.84263" lon="6.51383">
        <ele>663.8</ele>
        <time>2021-06-27T17:40:11.000Z</time>
      </trkpt>
      <trkpt lat="43.84272" lon="6.51388">
        <ele>662.2</ele>
        <time>2021-06-27T17:40:20.000Z</time>
      </trkpt>
      <trkpt lat="43.84281" lon="6.51391">
        <ele>660.5</ele>
        <time>2021-06-27T17:40:30.000Z</time>
      </trkpt>
      <trkpt lat="43.8429" lon="6.51397">
        <ele>658.8</ele>
        <time>2021-06-27T17:40:40.000Z</time>
      </trkpt>
      <trkpt lat="43.84297" lon="6.51405">
        <ele>657.2</ele>
        <time>2021-06-27T17:40:50.000Z</time>
      </trkpt>
      <trkpt lat="43.84303" lon="6.51416">
        <ele>656</ele>
        <time>2021-06-27T17:40:59.000Z</time>
      </trkpt>
      <trkpt lat="43.84308" lon="6.51427">
        <ele>654.3</ele>
        <time>2021-06-27T17:41:09.000Z</time>
      </trkpt>
      <trkpt lat="43.84312" lon="6.51438">
        <ele>653.2</ele>
        <time>2021-06-27T17:41:19.000Z</time>
      </trkpt>
      <trkpt lat="43.84317" lon="6.5145">
        <ele>651.9</ele>
        <time>2021-06-27T17:41:31.000Z</time>
      </trkpt>
      <trkpt lat="43.84323" lon="6.51459">
        <ele>651.2</ele>
        <time>2021-06-27T17:41:41.000Z</time>
      </trkpt>
      <trkpt lat="43.84328" lon="6.51471">
        <ele>650</ele>
        <time>2021-06-27T17:41:52.000Z</time>
      </trkpt>
      <trkpt lat="43.84335" lon="6.5148">
        <ele>648.6</ele>
        <time>2021-06-27T17:42:07.000Z</time>
      </trkpt>
      <trkpt lat="43.84338" lon="6.51493">
        <ele>646.5</ele>
        <time>2021-06-27T17:44:59.000Z</time>
      </trkpt>
      <trkpt lat="43.8434" lon="6.51507">
        <ele>644.1</ele>
        <time>2021-06-27T17:45:17.000Z</time>
      </trkpt>
      <trkpt lat="43.84344" lon="6.51519">
        <ele>642.5</ele>
        <time>2021-06-27T17:45:28.000Z</time>
      </trkpt>
      <trkpt lat="43.84343" lon="6.51532">
        <ele>640.7</ele>
        <time>2021-06-27T17:45:40.000Z</time>
      </trkpt>
      <trkpt lat="43.84347" lon="6.51543">
        <ele>639.3</ele>
        <time>2021-06-27T17:45:53.000Z</time>
      </trkpt>
      <trkpt lat="43.84352" lon="6.51556">
        <ele>638.6</ele>
        <time>2021-06-27T17:46:06.000Z</time>
      </trkpt>
      <trkpt lat="43.84362" lon="6.51556">
        <ele>634.5</ele>
        <time>2021-06-27T17:46:34.000Z</time>
      </trkpt>
      <trkpt lat="43.8437" lon="6.51562">
        <ele>631.8</ele>
        <time>2021-06-27T17:46:47.000Z</time>
      </trkpt>
      <trkpt lat="43.84376" lon="6.5157">
        <ele>629.1</ele>
        <time>2021-06-27T17:47:00.000Z</time>
      </trkpt>
      <trkpt lat="43.84385" lon="6.51574">
        <ele>627.6</ele>
        <time>2021-06-27T17:47:08.000Z</time>
      </trkpt>
      <trkpt lat="43.84394" lon="6.5157">
        <ele>623.2</ele>
        <time>2021-06-27T17:47:33.000Z</time>
      </trkpt>
      <trkpt lat="43.84403" lon="6.51569">
        <ele>619.4</ele>
        <time>2021-06-27T17:47:54.000Z</time>
      </trkpt>
      <trkpt lat="43.84412" lon="6.51574">
        <ele>617.5</ele>
        <time>2021-06-27T17:48:07.000Z</time>
      </trkpt>
      <trkpt lat="43.84421" lon="6.51577">
        <ele>616.2</ele>
        <time>2021-06-27T17:48:15.000Z</time>
      </trkpt>
      <trkpt lat="43.84429" lon="6.51583">
        <ele>613.8</ele>
        <time>2021-06-27T17:48:24.000Z</time>
      </trkpt>
      <trkpt lat="43.84438" lon="6.51581">
        <ele>612.2</ele>
        <time>2021-06-27T17:48:33.000Z</time>
      </trkpt>
      <trkpt lat="43.84447" lon="6.51577">
        <ele>609.4</ele>
        <time>2021-06-27T17:48:46.000Z</time>
      </trkpt>
      <trkpt lat="43.84456" lon="6.51574">
        <ele>607.1</ele>
        <time>2021-06-27T17:49:02.000Z</time>
      </trkpt>
      <trkpt lat="43.84465" lon="6.51569">
        <ele>605.2</ele>
        <time>2021-06-27T17:49:12.000Z</time>
      </trkpt>
      <trkpt lat="43.84474" lon="6.51572">
        <ele>600.9</ele>
        <time>2021-06-27T17:49:32.000Z</time>
      </trkpt>
      <trkpt lat="43.84483" lon="6.51576">
        <ele>598.8</ele>
        <time>2021-06-27T17:49:42.000Z</time>
      </trkpt>
      <trkpt lat="43.84492" lon="6.51583">
        <ele>596.4</ele>
        <time>2021-06-27T17:49:53.000Z</time>
      </trkpt>
      <trkpt lat="43.84499" lon="6.5159">
        <ele>595</ele>
        <time>2021-06-27T17:50:00.000Z</time>
      </trkpt>
      <trkpt lat="43.84507" lon="6.51596">
        <ele>593.2</ele>
        <time>2021-06-27T17:50:10.000Z</time>
      </trkpt>
      <trkpt lat="43.84515" lon="6.51606">
        <ele>590.9</ele>
        <time>2021-06-27T17:50:23.000Z</time>
      </trkpt>
      <trkpt lat="43.84521" lon="6.51616">
        <ele>589.4</ele>
        <time>2021-06-27T17:50:31.000Z</time>
      </trkpt>
      <trkpt lat="43.84531" lon="6.51621">
        <ele>588.2</ele>
        <time>2021-06-27T17:50:38.000Z</time>
      </trkpt>
      <trkpt lat="43.84533" lon="6.51634">
        <ele>587.4</ele>
        <time>2021-06-27T17:50:55.000Z</time>
      </trkpt>
      <trkpt lat="43.84525" lon="6.51636">
        <ele>587.1</ele>
        <time>2021-06-27T17:52:30.000Z</time>
      </trkpt>
      <trkpt lat="43.84522" lon="6.51623">
        <ele>587.4</ele>
        <time>2021-06-27T17:53:00.000Z</time>
      </trkpt>
      <trkpt lat="43.84522" lon="6.5161">
        <ele>587.1</ele>
        <time>2021-06-27T17:53:10.000Z</time>
      </trkpt>
      <trkpt lat="43.84522" lon="6.51602">
        <ele>587.3</ele>
        <time>2021-06-27T17:53:16.000Z</time>
      </trkpt>
    </trkseg>
  </trk>
</gpx>